     2              OBSERVATION DATA    GPS                 RINEX VERSION / TYPE
teqc 1997Jul24 19970814                                     PGM / RUN BY / DATE
                                                            COMMENT
Original Marker Name: 0612                                  COMMENT
Campaign Name: HPGN 1991                                    COMMENT
4-Character Station Name: 0612                              COMMENT
6-Character Antenna Code: TRMSST                            COMMENT
Vertical Measurement Point: BPA                             COMMENT
Vertical Offset to Rinex Ref. Point: 0.0000                 COMMENT
Radial Measurement Point: RRP                               COMMENT
Radial Offset to Rinex Ref. Point: 0.0000                   COMMENT
Antenna Height from Field Measurement: 2.2200 m             COMMENT
Original XYZ: -2592388.9650 -4472428.3432 3723764.7618      COMMENT
New XYZ position is based on association with SCEC monument COMMENT
E1F1O6I8+0011. Position of that monument is believed to be  COMMENT
valid to within 1 m horizontally; vertical accuracy         COMMENT
should be no worse than 3-times this value.                 COMMENT
                                                            COMMENT
Revised Rinex header created by UCSD GPS archive for        COMMENT
GSAC on 19-Apr-1999 (1999:109) 06:30:36 GMT                 COMMENT
For assistance contact dagnew@ucsd.edu or hjohnson@ucsd.edu COMMENT
                                                            COMMENT
KETTLE 1942                                                 MARKER NAME
unknown CALIF DEPT TRANSPORTATION                           OBSERVER / AGENCY
622 TRIMBLE 4000 SST NP 4.30 / SP 4.20                      REC # / TYPE / VERS
123 TR 4000SST L1/L2 GEO                                    ANT # / TYPE
 -2592391.0000 -4472434.0000  3723767.0000                  APPROX POSITION XYZ
        2.2200        0.0000        0.0000                  ANTENNA: DELTA H/E/N
     1     1     0                                          WAVELENGTH FACT L1/2
     3    C1    L1    L2                                    # / TYPES OF OBSERV
     0                                                      INTERVAL
  1991     5     2    19    19   45.000000                  TIME OF FIRST OBS
  1991     5     3     1    22    0.000000                  TIME OF LAST OBS
     0                                                      # OF SATELLITES
                                                            END OF HEADER
 91  5  2 19 19 45.0000000  0  4G18G 2G11G19
  20650312.570          -0.17718        -0.28233
  23628510.0864         -0.67056        -0.28871
  23782279.0784         -0.15156        -0.25471
  20684405.2424         -0.78957        -0.18372
 91  5  2 19 20  0.0000000  0  4G18G 2G11G19
  20655139.609       25365.874 8     19765.45223
  23620318.6884     -43042.22546    -33539.09461
  23776981.625      -27839.800 6    -21693.43321
  20685111.2504       3718.70547      2898.12762
 91  5  2 19 20 15.0000000  0  4G18G 2G11G19
  20659981.555       50808.506 8     39590.85923
  23612131.383      -86069.908 6    -67067.08421
  23771696.8364     -55618.53746    -43339.14361
  20685824.0634       7454.20847      5808.91462
 91  5  2 19 20 30.0000000  0  4G18G 2G11G19
  20664839.211       76334.855 8     59481.49723
  23603945.602     -129076.726 6   -100578.81721
  23766423.383      -83329.016 6    -64931.66821
  20686538.7584      11212.68747      8737.60462
 91  5  2 19 20 45.0000000  0  4G18G 2G11G19
  20669713.023      101949.931 8     79441.28023
  23595767.703     -172057.297 6   -134070.08421
  23761164.031     -110965.772 6    -86466.74521
  20687261.4304      14999.18147     11688.12462
 91  5  2 19 21  0.0000000  0  4G18G 2G11G19
  20674605.102      127660.378 8     99475.37923
  23587594.797     -215004.716 6   -167535.52821
  23755919.2894    -138521.72146   -107938.86561
  20687989.4144      18820.43647     14665.72362
 91  5  2 19 21 15.0000000  0  4G18G 2G11G19
  20679516.852      153466.618 8    119584.12323
  23579430.656     -257918.226 6   -200974.54921
  23750691.9384    -165995.91046   -129347.25961
  20688721.0084      22677.04747     17670.88362
 91  5  2 19 21 30.0000000  0  4G18G 2G11G19
  20684445.305      179367.359 8    139766.50023
  23571268.7974    -300799.08046   -234388.13561
  23745479.0704    -193389.19346   -150692.63661
  20689460.0784      26567.73147     20702.58162
 91  5  2 19 21 45.0000000  0  4G18G 2G11G19
  20689393.000      205365.091 8    160024.45323
  23563114.883     -343644.713 6   -267774.26521
  23740283.484     -220698.818 6   -171972.80921
  20690209.5164      30494.62347     23762.49962
 91  5  2 19 22  0.0000000  0  5G18G 2G11G19G16
  20694358.664      231462.160 8    180359.79523
  23554969.234     -386452.414 6   -301130.85721
  23735101.672     -247921.798 6
  20690965.219       34460.288 7     26852.61322
  24202341.6724         -0.19555
 91  5  2 19 22 15.0000000  0  5G18G 2G11G19G16
  20699344.695      257661.812 8    200775.08923
  23546832.055     -429218.482 6   -334454.99621
  23729938.7274    -275054.47346
  20691725.9304      38468.16047     29975.63062
  24197188.2274     -27083.15245
 91  5  2 19 22 30.0000000  0  5G18G 2G11G19G16
  20704349.070      283963.761 8    221270.09523
  23538703.055     -471943.012 6   -367746.76321
  23724792.773     -302096.902 6
  20692495.3984      42517.92847     33131.29862
  24192052.5864     -54060.99945
 91  5  2 19 22 45.0000000  0  5G18G 2G11G19G16
  20709374.422      310366.795 8    241843.86423
  23530579.250     -514627.005 6   -401006.93721
  23719664.3674    -329049.82446
  20693275.3674      46608.26947     36318.57462
  24186937.4694     -80934.61745
 91  5  2 19 23  0.0000000  0  5G18G 2G11G19G16
  20714416.672      336869.390 8    262495.21923
  23522464.8834    -557271.98646   -434236.72561
  23714552.4614    -355914.45246   -277335.35061
  20694059.7194      50737.60947     39536.24562
  24181845.234     -107705.565 5
 91  5  2 19 23 15.0000000  0  5G18G 2G11G19G16
  20719480.250      363473.905 8    283225.98623
  23514355.570     -599875.289 6   -467434.04421
  23709455.8914    -382687.98246   -298197.77561
  20694855.3834      54908.50147     42786.29362
  24176769.977     -134371.142 5
 91  5  2 19 23 30.0000000  0  5G18G 2G11G19G16
  20724562.344      390182.606 8    304037.94123
  23506258.836     -642434.011 6   -500596.60621
  23704380.289     -409367.305 6   -318986.81421
  20695655.7424      59123.63447     46070.81162
  24171719.477     -160928.616 5        -0.24431
 91  5  2 19 23 45.0000000  0  5G18G 2G11G19G16
  20729664.156      416994.100 8    324929.99923
  23498167.523     -684949.894 6   -533725.78821
  23699321.242     -435953.879 6   -339703.57921
  20696467.9224      63381.21247     49388.40462
  24166683.8444    -187379.28745    -20611.15361
 91  5  2 19 24  0.0000000  0  5G18G 2G11G19G16
  20734787.398      443914.195 8    345906.67723
  23490085.0704    -727416.84146   -566816.85261
  23694280.039     -462441.447 6   -360343.19521
  20697289.1024      67687.18247     52743.70462
  24161672.148     -213716.758 5    -41133.83621
 91  5  2 19 24 15.0000000  0  5G18G 2G11G19G16
  20739930.445      470939.340 8    366965.21123
  23482014.258     -769837.979 6   -599872.20521
  23689257.398     -488832.932 6   -380907.93321
  20698114.4384      72038.01447     56133.96562
  24156683.094     -239944.315 5    -61570.86221
 91  5  2 19 24 30.0000000  0  5G18G 2G11G19G16
  20745092.516      498072.921 8    388108.24223
  23473949.5234    -812209.59246   -632888.98761
  23684254.734     -515124.504 6   -401394.83321
  20698950.5864      76437.03247     59561.76362
  24151715.227     -266058.244 5    -81919.36021
 91  5  2 19 24 45.0000000  0  5G18G 2G11G19G16
  20750276.781      525314.234 8    409335.22323
  23465896.8134    -854532.20646   -665867.58161
  23679268.7584    -541316.47546   -421804.09961
  20699798.5234      80883.70447     63026.70262
  24146766.4844    -292059.17845   -102179.83861
 91  5  2 19 25  0.0000000  0  5G18G 2G11G19G16
  20755481.156      552664.621 8    430647.19423
  23457852.6564    -896804.40146   -698806.88861
  23674306.094     -567407.233 6   -442134.51521
  20700653.0634      85379.31747     66529.77462
  24141838.3914    -317945.64045   -122351.07261
 91  5  2 19 25 15.0000000  0  5G18G 2G11G19G16
  20760707.391      580124.368 8    452044.38523
  23449818.6644    -939025.39746   -731706.30561
  23669361.070     -593395.992 6   -462385.44721
  20701518.5864      89924.31747     70071.33262
  24136935.211     -343716.640 5   -142432.38121
 91  5  2 19 25 30.0000000  0  5G18G 2G11G19G16
  20765953.445      607693.471 8    473526.78523
  23441792.3594    -981195.02046   -764565.69061
  23664435.9454    -619282.34646   -482556.57061
  20702391.1254      94518.70047     73651.36662
  24132050.844     -369372.155 5   -162423.67521
 91  5  2 19 25 45.0000000  0  5G18G 2G11G19G16
  20771219.641      635371.940 8    495094.40423
  23433776.2734   -1023313.13446   -797384.93661
  23659529.6644    -645065.90946   -502647.60561
  20703275.6414      99162.28247     77269.74162
  24127191.7664    -394912.07245   -182324.91961
 91  5  2 19 26  0.0000000  0  5G18G 2G11G19G16
  20776507.945      663159.098 8    516746.72023
  23425773.289    -1065380.300 6   -830164.49021
  23654641.414     -670746.925 6   -522658.72721
  20704169.2194     103854.63047     80926.11262
  24122354.602     -420336.749 5   -202136.34021
 91  5  2 19 26 15.0000000  0  5G18G 2G11G19G16
  20781816.531      691056.562 8    538484.98523
  23417777.719    -1107394.569 6   -862902.82221
  23649773.5164    -696323.29846   -542588.29361
  20705070.9694     108597.46647     84621.82762
  24117540.2894    -445644.24945   -221856.45461
 91  5  2 19 26 30.0000000  0  5G18G 2G11G19G16
  20787147.078      719065.928 8    560310.44323
  23409793.7504   -1149354.15446   -895598.54461
  23644924.3134    -721793.11046   -562434.85161
  20705984.5704     113392.07647     88357.88562
  24112744.2894    -470832.49845   -241483.66961
 91  5  2 19 26 45.0000000  0  5G18G 2G11G19G16
  20792499.063      747191.969 8    582226.81723
  23401820.0004   -1191254.02546   -928247.74061
  23640101.5314    -747150.94046   -582194.14361
  20706908.5004     118243.58947     92138.28562
  24107976.1024    -495896.58145   -261014.12161
 91  5  2 19 27  0.0000000  0  5G18G 2G11G19G16
  20797873.398      775435.320 8    604234.60423
  23393859.164    -1233093.258 6   -960849.68621
  23635299.023     -772395.980 6   -601865.54621
  20707840.7974     123152.45047     95963.36762
  24103227.7114    -520835.55045   -280447.06461
 91  5  2 19 27 15.0000000  0  5G18G 2G11G19G16
  20803270.328      803793.060 8    626331.52223
  23385908.750    -1274874.497 6   -993406.45121
  23630514.609     -797530.680 6   -621450.97721
  20708786.3364     128115.99147     99831.06062
  24098506.3834    -545651.81345   -299784.38561
 91  5  2 19 27 30.0000000  0  5G18G 2G11G19G16
  20808689.492      832271.155 8    648522.22923
  23377970.9224   -1316591.57846  -1025913.20361
  23625753.3284    -822548.62846   -640945.41461
  20709741.0634     133140.19747    103746.01862
  24093809.5084    -570339.35445   -319021.43861
 91  5  2 19 27 45.0000000  0  5G18G 2G11G19G16
  20814131.422      860868.630 8    670805.95523
  23370042.3054   -1358245.22246  -1058370.52961
  23621014.586     -847450.362 6   -660349.32121
  20710709.5314     138223.99047    107707.41462
  24089135.648     -594898.937 5   -338158.74521
 91  5  2 19 28  0.0000000  0  5G18G 2G11G19G16
  20819595.344      889584.024 8    693181.56423
  23362127.586    -1399836.515 6  -1090779.26921
  23616298.836     -872236.815 6   -679663.38821
  20711687.6414     143366.37147    111714.45762
  24084485.9384    -619331.45845   -357197.05761
 91  5  2 19 28 15.0000000  0  5G18G 2G11G19G16
  20825082.477      918418.668 8    715650.10323
  23354226.5394   -1441363.94146  -1123138.23961
  23611604.602     -896906.290 6   -698886.30321
  20712677.9304     148568.47047    115768.03762
  24079862.531     -643635.389 5   -376135.15821
 91  5  2 19 28 30.0000000  0  5G18G 2G11G19G16
  20830592.289      947372.857 8    738211.79423
  23346335.9384   -1482826.97546  -1155447.03561
  23606931.266     -921458.002 6   -718017.46521
  20713679.2274     153830.83347    119868.57362
  24075262.1644    -667810.21645   -394972.68861
 91  5  2 19 28 45.0000000  0  5G18G 2G11G19G16
  20836124.438      976446.446 8    760866.52023
  23338457.000    -1524225.764 6  -1187705.77621
  23602281.578     -945891.943 6   -737056.84221
  20714692.6564     159153.18547    124015.86162
  24070687.3834    -691856.01545   -413709.65161
 91  5  2 19 29  0.0000000  0  5G18G 2G11G19G16
  20841680.219     1005641.372 8    783615.79923
  23330592.422    -1565558.050 6  -1219912.69521
  23597656.9614    -970205.71946   -756002.57761
  20715715.2034     164537.56647    128211.47462
  24066134.766     -715770.218 5   -432344.09721
 91  5  2 19 29 15.0000000  0  5G18G 2G11G19G16
  20847258.852     1034955.908 8    806458.27323
  23322738.1804   -1606825.31446  -1252068.94461
  23593051.063     -994400.639 6   -774855.71421
  20716754.2894     169982.16747    132454.01762
  24061609.3834    -739554.44645   -450877.24561
 91  5  2 19 29 30.0000000  0  5G18G 2G11G19G16
  20852859.789     1064387.131 8    829391.66823
  23314897.094    -1648030.164 6  -1284176.57621
  23588469.2424   -1018478.93246   -793617.96261
  20717798.7974     175484.29547    136741.38762
  24057106.695     -763211.356 5   -469311.17421
 91  5  2 19 29 45.0000000  0  5G18G 2G11G19G16
  20858482.461     1093937.864 8    852418.19223
  23307070.7584   -1689169.66146  -1316233.26861
  23583909.211    -1042437.651 6   -812287.02821
  20718858.5474     181046.68847    141075.71962
  24052630.1334    -786737.88645   -487643.54161
 91  5  2 19 30  0.0000000  0  5G18G 2G11G19G16
  20864128.930     1123609.913 8    875539.24723
  23299253.781    -1730241.502 6  -1348237.24721
  23579374.3134   -1066274.32746   -830860.99961
  20719928.4224     186671.28647    145458.51762
  24048179.648     -810131.672 5   -505872.45221
 91  5  2 19 30 15.0000000  0  5G18G 2G11G19G16
  20869798.461     1153402.023 8    898753.85423
  23291450.9924   -1771246.82146  -1380189.38061
  23574860.5944   -1089989.89746   -849340.60561
  20721010.8364     192356.84147    149888.81562
  24043751.906     -833393.834 5   -523998.80521
 91  5  2 19 30 30.0000000  0  5G18G 2G11G19G16
  20875489.742     1183310.237 8    922058.93023
  23283659.109    -1812189.505 6  -1412092.71621
  23570369.609    -1113588.077 6   -867728.73421
  20722105.3834     198099.24447    154363.41062
  24039349.7504    -856528.60345   -542025.88661
 91  5  2 19 30 45.0000000  0  5G18G 2G11G19G16
  20881202.742     1213333.093 8    945453.33923
  23275879.289    -1853070.636 6  -1443948.09521
  23565903.1724   -1137069.57546   -886025.94761
  20723207.2974     203897.44147    158881.48262
  24034971.5234    -879536.46445   -559954.08361
 91  5  2 19 31  0.0000000  0  5G18G 2G11G19G16
  20886937.938     1243470.132 8    968936.72323
  23268111.625    -1893890.280 6  -1475755.55321
  23561454.9064   -1160434.39446   -904232.23161
  20724319.1724     209751.17947    163442.83662
  24030616.102     -902417.579 5   -577783.49921
 91  5  2 19 31 15.0000000  0  5G18G 2G11G19G16
  20892694.602     1273720.727 8    992508.59323
  23260355.4694   -1934648.89146  -1507515.46261
  23557031.8984   -1183682.92446   -922347.93361
  20725445.3914     215659.67247    168046.85562
  24026288.055     -925172.646 5   -595514.70321
 91  5  2 19 31 30.0000000  0  5G18G 2G11G19G16
  20898472.469     1304083.248 8   1016167.67823
  23252610.242    -1975347.979 6  -1539228.97821
  23552629.383    -1206816.407 6   -940373.96821
  20726578.3134     221621.18647    172692.18762
  24021981.1884    -947802.94545   -613148.70161
 91  5  2 19 31 45.0000000  0  5G18G 2G11G19G16
  20904270.313     1334552.388 8   1039909.84423
  23244877.8204   -2015992.71046  -1570900.14161
  23548248.063    -1229839.779 6   -958314.21321
  20727723.8754     227630.68247    177374.90862
  24017695.609     -970313.279 5   -630689.20121
 91  5  2 19 32  0.0000000  0  5G18G 2G11G19G16
  20910090.164     1365133.093 8   1063738.93823
  23237153.023    -2056577.553 6  -1602524.63321
  23543889.180    -1252747.564 6   -976164.39721
  20728879.2274     233693.31247    182099.03462
  24013438.1884    -992698.33745   -648132.10661
 91  5  2 19 32 15.0000000  0  5G18G 2G11G19G16
  20915929.258     1395819.705 8   1087650.56323
  23229441.539    -2097108.126 6  -1634106.83321
  23539550.234    -1275545.032 6   -993928.60221
  20730040.1564     239803.26847    186860.03262
  24009200.6094   -1014963.91145   -665481.91461
 91  5  2 19 32 30.0000000  0  5G18G 2G11G19G16
  20921790.094     1426615.886 8   1111647.56423
  23221739.477    -2137580.401 6  -1665643.63321
  23535234.7114   -1298228.12646  -1011603.69461
  20731210.0634     245964.32047    191660.84862
  24004987.8134   -1037105.63245   -682735.20161
 91  5  2 19 32 45.0000000  0  5G18G 2G11G19G16
  20927670.539     1457521.958 8   1135730.19223
  23214048.609    -2177993.667 6  -1697134.44121
  23530940.0234   -1320795.94146  -1029188.95361
  20732394.8594     252176.97647    196501.87462
  24000797.3834   -1059123.11345   -699891.66861
 91  5  2 19 33  0.0000000  0  5G18G 2G11G19G16
  20933573.1024    1488537.80348   1159898.35663
  23206369.875    -2218348.259 6  -1728579.52821
  23526667.359    -1343248.380 6  -1046684.31521
  20733585.7974     258441.05147    201382.96962
  23996630.344    -1081016.537 5   -716951.47721
 91  5  2 19 33 15.0000000  0  5G18G 2G11G19G16
  20939495.906     1519663.743 8   1184152.30923
  23198700.945    -2258643.143 6  -1759978.08621
  23522415.734    -1365584.499 6  -1064089.02121
  20734788.5634     264757.16647    206304.61362
  23992489.359    -1102784.748 5   -733913.69121
 91  5  2 19 33 30.0000000  0  5G18G 2G11G19G16
  20945439.867     1550898.241 8   1208490.85523
  23191046.211    -2298879.815 6  -1791331.28321
  23518187.7664   -1387805.60746  -1081404.10061
  20736000.8594     271123.63747    211265.49762
  23988370.8834   -1124429.27645   -750779.56661
 91  5  2 19 33 45.0000000  0  5G18G 2G11G19G16
  20951404.016     1582241.088 8   1232913.83023
  23183398.641    -2339058.345 6  -1822639.17121
  23513981.7194   -1409911.59946  -1098629.48361
  20737221.4304     277540.27647    216265.47562
  23984274.461    -1145949.862 5   -767548.83421
 91  5  2 19 34  0.0000000  0  5G18G 2G11G19G16
  20957389.492     1613694.115 8   1257422.65823
  23175764.617    -2379176.649 6  -1853900.13821
  23509796.078    -1431900.199 6  -1115763.42121
  20738450.4454     284009.12647    221306.13562
  23980204.4224   -1167344.77745   -784220.19961
 91  5  2 19 34 15.0000000  0  5G18G 2G11G19G16
  20963395.891     1645259.152 8   1282018.76423
  23168141.625    -2419232.527 6  -1885112.46121
  23505636.0474   -1453769.06346  -1132804.03661
  20739692.6484     290531.98947    226388.87462
  23976155.8754   -1188612.03445   -800792.06561
 91  5  2 19 34 30.0000000  0  5G18G 2G11G19G16
  20969423.398     1676931.039 8   1306698.13123
  23160532.594    -2459231.074 6  -1916280.10821
  23501495.406    -1475523.093 6  -1149755.16821
  20740944.9534     297103.82147    231509.78262
  23972133.7894   -1209756.25245   -817268.07161
 91  5  2 19 34 45.0000000  0  5G18G 2G11G19G16
  20975472.102     1708716.845 8   1331466.26523
  23152932.156    -2499164.753 6  -1947397.19921
  23497378.7274   -1497154.55646  -1166610.79161
  20742204.7734     303731.94547    236674.54762
  23968134.813    -1230769.829 5   -833642.27321
 91  5  2 19 35  0.0000000  0  5G18G 2G11G19G16
  20981541.609     1740614.362 8   1356321.45023
  23145344.219    -2539035.431 6  -1978465.20921
  23493287.125    -1518665.058 6  -1183372.17021
  20743474.4924     310414.38947    241881.64062
  23964160.4534   -1251654.68345   -849916.16961
 91  5  2 19 35 15.0000000  0  5G18G 2G11G19G16
  20987632.727     1772620.341 8   1381261.15223
  23137768.836    -2578846.178 6  -2009486.51821
  23489215.0474   -1540057.51046  -1200041.56261
  20744757.7274     317147.98147    247128.59162
  23960210.8984   -1272413.80945   -866092.09661
 91  5  2 19 35 30.0000000  0  5G18G 2G11G19G16
  20993744.031     1804734.937 8   1406285.48923
  23130203.9614   -2618596.80446  -2040460.97761
  23485167.086    -1561331.745 6  -1216618.82721
  20746048.7584     323932.39947    252415.14762
  23956283.500    -1293046.936 5   -882169.85821
 91  5  2 19 35 45.0000000  0  5G18G 2G11G19G16
  20999875.297     1836958.302 8   1431394.57923
  23122651.703    -2658286.848 6  -2071388.23121
  23481141.281    -1582486.837 6  -1233103.26621
  20747349.8984     330768.09947    257741.66362
  23952380.203    -1313553.600 5   -898149.04921
 91  5  2 19 36  0.0000000  0  5G18G 2G11G19G16
  21006026.945     1869287.256 8   1456585.94823
  23115110.727    -2697919.169 6  -2102270.51021
  23477137.336    -1603525.640 6  -1249497.09421
  20748658.6644     337652.01047    263105.73962
  23948501.9844   -1333936.97345   -914032.19661
 91  5  2 19 36 15.0000000  0  5G18G 2G11G19G16
  21012199.688     1901720.553 8   1481858.62223
  23107579.7734   -2737494.57246  -2133108.44161
  23473157.367    -1624448.806 6  -1265800.80021
  20749978.2114     344583.29047    268506.73762
  23944645.2274   -1354197.55745   -929819.64561
 91  5  2 19 36 30.0000000  0  5G18G 2G11G19G16
  21018390.6024    1934257.61348   1507212.14663
  23100059.164    -2777013.641 6  -2163902.47421
  23469196.8984   -1645256.83446  -1282014.82561
  20751308.8754     351561.19747    273944.06062
  23940815.1644   -1374336.11545   -945512.04561
 91  5  2 19 36 45.0000000  0  5G18G 2G11G19G16
  21024603.047     1966900.094 8   1532647.81923
  23092549.961    -2816474.305 6  -2194650.99021
  23465259.867    -1665947.514 6  -1298137.37821
  20752644.3914     358587.64647    279419.21562
  23937006.141    -1394350.454 5   -961107.62621
 91  5  2 19 37  0.0000000  0  5G18G 2G11G19G16
  21030833.875     1999647.305 8   1558165.10523
  23085050.906    -2855876.903 6  -2225354.26321
  23461343.789    -1686521.163 6  -1314168.73921
  20753987.6254     365661.97647    284931.67762
  23933221.602    -1414240.933 5   -976606.70221
 91  5  2 19 37 15.0000000  0  5G18G 2G11G19G16
  21037085.484     2032499.498 8   1583764.19523
  23077565.148    -2895220.936 6  -2256011.89821
  23457450.438    -1706976.860 6  -1330108.20421
  20755346.1804     372784.65847    290481.81762
  23929458.477    -1434006.903 5   -992008.74321
 91  5  2 19 37 30.0000000  0  5G18G 2G11G19G16
  21043357.438     2065456.423 8   1609444.89223
  23070088.938    -2934506.619 6  -2286624.07921
  23453579.719    -1727314.535 6  -1345955.70921
  20756709.2734     379955.24047    296069.28062
  23925721.4064   -1453648.35445  -1007313.78261
 91  5  2 19 37 45.0000000  0  5G18G 2G11G19G16
  21049647.0784    2098511.48048   1635202.04663
  23062621.9844   -2973740.45446  -2317195.86061
  23449731.727    -1747540.573 6  -1361716.20521
  20758082.9534     387167.31747    301689.07862
  23922005.5704   -1473171.84845  -1022526.88261
 91  5  2 19 38  0.0000000  0  5G18G 2G11G19G16
  21055956.836     2131669.553 8   1661039.48023
  23055166.422    -3012917.082 6  -2347723.05321
  23445904.570    -1767649.658 6  -1377385.56721
  20759462.7974     394425.76047    307345.00362
  23918313.813    -1492572.491 5  -1037644.25021
 91  5  2 19 38 15.0000000  0  5G18G 2G11G19G16
  21062285.570     2164926.921 8   1686954.28923
  23047722.234    -3052039.985 6  -2378208.37721
  23442101.336    -1787645.074 6  -1392966.36121
  20760852.4694     401726.91247    313034.21262
  23914644.0234   -1511853.43245  -1052668.35561
 91  5  2 19 38 30.0000000  0  6G18G 2G11G19G16G 6
  21068633.9224    2198284.23248   1712946.97063
  23040287.3444   -3091108.10046  -2408651.02161
  23438317.5944   -1807525.56246  -1408457.59461
  20762250.2894     409071.65847    318757.38862
  23910999.094    -1531013.606 5  -1067598.33921
  24438503.3674         -0.24953
 91  5  2 19 38 45.0000000  0  6G18G 2G11G19G16G 6
  21075000.180     2231741.127 8   1739017.25623
  23032863.594    -3130121.840 6  -2439051.28421
  23434555.1094   -1827291.38946  -1423859.48861
  20763656.2114     416459.72647    324514.32162
  23907373.8984   -1550053.43145  -1082434.56361
  24432737.1024     -30304.64344
 91  5  2 19 39  0.0000000  0  6G18G 2G11G19G16G 6
  21081385.719     2265298.928 8   1765166.16423
  23025450.750    -3169079.536 6  -2469407.88521
  23430817.102    -1846940.652 6  -1439170.55521
  20765070.4924     423892.68247    330306.23162
  23903775.2114   -1568971.29245  -1097175.74361
  24426969.8914     -60592.92344
 91  5  2 19 39 15.0000000  0  6G18G 2G11G19G16G 6
  21087790.891     2298956.952 8   1791393.17623
  23018047.031    -3207981.190 6  -2499720.81021
  23427099.5234   -1866473.34446  -1454390.79661
  20766493.8754     431370.17547    336132.84562
  23900200.070    -1587767.139 5  -1111821.85121
  24421213.2974     -90865.44744
 91  5  2 19 39 30.0000000  0  6G18G 2G11G19G16G 6
  21094215.086     2332715.635 8   1817698.61823
  23010655.016    -3246826.498 6  -2529989.84221
  23423404.492    -1885888.979 6  -1469519.82321
  20767923.9694     438892.18747    341994.14962
  23896645.3754   -1606440.61145  -1126372.61161
  24415452.570     -121122.158 4
 91  5  2 19 39 45.0000000  0  6G18G 2G11G19G16G 6
  21100658.3054    2366573.02648   1844080.97463
  23003274.266    -3285617.002 6  -2560216.15421
  23419731.4694   -1905188.91946  -1484558.70261
  20769363.1954     446457.00547    347888.81362
  23893115.1484   -1624993.24545  -1140829.20961
  24409698.344     -151364.826 4        -0.04431
 91  5  2 19 40  0.0000000  0  6G18G 2G11G19G16G 6
  21107120.391     2400531.926 8   1870542.42823
  22995904.523    -3324349.403 6  -2590397.20721
  23416083.4064   -1924369.81346  -1499504.78761
  20770812.5164     454067.82947    353819.31962
  23889608.8204   -1643421.96545  -1155189.22561
  24403942.906     -181590.388 4    -23552.35921
 91  5  2 19 40 15.0000000  0  6G18G 2G11G19G16G 6
  21113601.4064    2434591.48348   1897082.31363
  22988542.992    -3363024.517 6  -2620533.61421
  23412453.898    -1943432.339 6  -1514358.65621
  20772269.9064     461723.81747    359785.02462
  23886125.6644   -1661727.47445  -1169453.26061
  24398200.227     -211799.742 4    -47092.03421
 91  5  2 19 40 30.0000000  0  6G18G 2G11G19G16G 6
  21120101.1254    2468748.26548   1923697.95663
  22981195.148    -3401645.687 6  -2650627.98821
  23408849.109    -1962379.467 6  -1529122.62221
  20773733.8134     469421.41847    365783.15362
  23882664.102    -1679912.926 5  -1183623.73121
  24392456.9694    -241996.30344    -70621.74061
 91  5  2 19 40 45.0000000  0  6G18G 2G11G19G16G 6
  21126620.1334    2503004.98748   1950391.47963
  22973856.398    -3440209.699 6  -2680677.81721
  23405265.3364   -1981207.83646  -1543794.05461
  20775208.4844     477163.82447    371816.19262
  23879228.734    -1697975.216 5  -1197698.23621
  24386706.3364    -272177.06044    -94139.11161
 91  5  2 19 41  0.0000000  0  6G18G 2G11G19G16G 6
  21133158.1954    2537363.16348   1977164.05763
  22966527.336    -3478715.161 6  -2710682.02221
  23401707.305    -1999915.912 6  -1558371.70721
  20776689.2034     484952.35047    377885.17062
  23875812.5784   -1715912.64345  -1211675.45361
  24380968.9384    -302340.80544   -117643.26061
 91  5  2 19 41 15.0000000  0  6G18G 2G11G19G16G 6
  21139714.898     2571822.091 8   2004015.14423
  22959212.273    -3517162.275 6  -2740640.76121
  23398168.453    -2018503.973 6  -1572855.88521
  20778180.4534     492786.48547    383989.68362
  23872424.2194   -1733725.67245  -1225555.72061
  24375233.1334    -332488.05444   -141134.55861
 91  5  2 19 41 30.0000000  0  6G18G 2G11G19G16G 6
  21146291.9224    2606380.47348   2030943.72563
  22951905.758    -3555551.961 6  -2770554.76221
  23394654.6174   -2036972.64046  -1587247.04461
  20779679.1254     500665.40247    390129.09262
  23869058.7504   -1751415.09945  -1239339.70161
  24369497.6564    -362619.83744   -164613.80061
 91  5  2 19 41 45.0000000  0  6G18G 2G11G19G16G 6
  21152887.6174    2641040.01348   2057951.13163
  22944612.563    -3593882.345 6  -2800422.55421
  23391163.141    -2055319.940 6  -1601543.59321
  20781188.6024     508590.61247    396304.57262
  23865715.172    -1768978.995 5  -1253025.84421
  24363768.6174    -392734.46445   -188079.68261
 91  5  2 19 42  0.0000000  0  6G18G 2G11G19G16G 6
  21159501.523     2675797.599 8   2085034.94323
  22937329.234    -3632156.386 6  -2830246.43121
  23387694.141    -2073548.568 6  -1615747.67821
  20782704.0004     516558.98147    402513.68762
  23862396.5474   -1786420.32045  -1266616.48661
  24358034.2194    -422835.06644   -211534.63661
 91  5  2 19 42 15.0000000  0  6G18G 2G11G19G16G 6
  21166135.3674    2710656.51248   2112197.70263
  22930057.375    -3670370.484 6  -2860023.60721
  23384249.070    -2091654.799 6  -1629856.39321
  20784230.4924     524574.01647    408759.15962
  23859103.0164   -1803735.57345  -1280108.87261
  24352312.430     -452918.243 4   -234976.00921
 91  5  2 19 42 30.0000000  0  6G18G 2G11G19G16G 6
  21172788.2194    2745617.62348   2139440.09663
  22922796.352    -3708523.333 6  -2889753.05421
  23380826.1724   -2109637.10646  -1643868.54061
  20785763.9844     532637.02547    415042.01562
  23855831.4774   -1820923.54945  -1293502.11361
  24346592.758     -482982.850 4   -258402.92721
 91  5  2 19 42 45.0000000  0  6G18G 2G11G19G16G 6
  21179460.656     2780679.355 8   2166760.90423
  22915548.328    -3746616.488 6  -2919435.98721
  23377428.4844   -2127497.10246  -1657785.39761
  20787307.3444     540746.13247    421360.79262
  23852586.0004   -1837985.76345  -1306797.32361
  24340873.1174    -513030.80044   -281816.84061
 91  5  2 19 43  0.0000000  0  6G18G 2G11G19G16G 6
  21186151.633     2815845.440 7   2194163.02423
  22908313.469    -3784645.872 6  -2949069.22421
  23374053.9304   -2145230.44746  -1671603.55361
  20788861.6254     548905.37547    427718.63562
  23849362.7734   -1854917.88845  -1319991.19261
  24335162.172     -543058.076 4   -305214.65021
 91  5  2 19 43 15.0000000  0  6G18G 2G11G19G16G 6
  21192864.5864    2851116.23448   2221646.73363
  22901086.5554   -3822610.94446  -2978652.35461
  23370703.5944   -2162836.46946  -1685322.50561
  20790422.4614     557115.04647    434115.77662
  23846165.6564   -1871719.76245  -1333083.56461
  24329449.047     -573064.279 4   -328596.07621
 91  5  2 19 43 30.0000000  0  6G18G 2G11G19G16G 6
  21199596.7814    2886495.89848   2249215.27463
  22893875.875    -3860507.160 6  -3008181.83221
  23367378.000    -2180310.519 6  -1698938.59921
  20791994.0864     565379.52047    440555.61762
  23842992.8204   -1888386.57745  -1346070.69861
  24323740.727     -603045.082 4   -351957.68521
 91  5  2 19 43 45.0000000  0  6G18G 2G11G19G16G 6
  21206350.164     2921986.393 7   2276870.17723
  22886677.484    -3898332.380 6  -3037655.98621
  23364078.320    -2197650.280 6  -1712450.08121
  20793579.1254     573701.04247    447039.91662
  23839847.875    -1904915.995 5  -1358950.76321
  24318045.2814    -632998.49244   -375297.96961
 91  5  2 19 44  0.0000000  0  6G18G 2G11G19G16G 6
  21213125.5004    2957593.64747   2304616.05963
  22879494.3054   -3936080.18846  -3067069.82361
  23360805.844    -2214849.156 6  -1725851.79921
  20795174.1644     582085.84147    453573.51662
  23836728.7034   -1921302.02745  -1371719.09061
  24312351.5164    -662918.35744   -398612.10161
 91  5  2 19 44 15.0000000  0  6G18G 2G11G19G16G 6
  21219924.094     2993318.310 7   2332453.43223
  22872325.5164   -3973749.73446  -3096422.67361
  23357558.500    -2231906.241 6  -1739142.97921
  20796782.5004     590534.40147    460156.80262
  23833638.7814   -1937544.09845  -1384375.24161
  24306664.3594    -692804.08244   -421899.62461
 91  5  2 19 44 30.0000000  0  6G18G 2G11G19G16G 6
  21226744.305     3029159.722 7   2360381.77723
  22865173.5084   -4011341.53946  -3125714.95361
  23354340.1484   -2248821.85946  -1752323.95461
  20798403.0164     599046.07947    466789.26962
  23830575.781    -1953642.363 5  -1396919.34021
  24300983.422     -722656.366 5   -445161.09921
 91  5  2 19 44 45.0000000  0  6G18G 2G11G19G16G 6
  21233586.9844    3065118.05747   2388401.22963
  22858035.359    -4048855.011 6  -3154946.18621
  23351148.3914   -2265595.29346  -1765394.12761
  20800032.7974     607621.44647    473471.36762
  23827540.8674   -1969595.92045  -1409350.67261
  24295307.313     -752474.713 5   -468396.13721
 91  5  2 19 45  0.0000000  0  6G18G 2G11G19G16G 6
  21240452.414     3101195.381 7   2416513.40523
  22850911.023    -4086287.842 6  -3184114.58721
  23347984.602    -2282223.992 6  -1778351.54021
  20801675.1564     616262.75647    480204.85162
  23824534.0634   -1985402.60745  -1421667.55461
  24289642.500     -782256.853 5   -491602.95921
 91  5  2 19 45 15.0000000  0  6G18G 2G11G19G16G 6
  21247339.7344    3137391.64847   2444718.26263
  22843803.586    -4123639.877 6  -3213220.02121
  23344848.242    -2298707.729 6  -1791195.99721
  20803335.3054     624969.98747    486989.70262
  23821552.2974   -2001062.43745  -1433870.01361
  24283983.727     -812002.909 5   -514781.64821
 91  5  2 19 45 30.0000000  0  6G18G 2G11G19G16G 6
  21254249.047     3173700.775 7   2473011.05723
  22836709.0704   -4160916.79146  -3242266.92561
  23341736.7424   -2315052.12246  -1803931.84961
  20805001.2504     633737.20147    493821.29462
  23818600.6094   -2016580.89045  -1445962.30561
  24278327.5634    -841718.86645   -537936.90061
 91  5  2 19 45 45.0000000  0  6G18G 2G11G19G16G 6
  21261181.1804    3210127.49247   2501395.48963
  22829632.344    -4198113.748 6  -3271251.52221
  23338654.188    -2331252.273 6  -1816555.31721
  20806682.9384     642569.04947    500703.24862
  23815671.8204   -2031953.32645  -1457940.82161
  24272675.188     -871400.153 5   -561065.10121
 91  5  2 19 46  0.0000000  0  6G18G 2G11G19G16G 6
  21268135.3594    3246671.10247   2529870.99763
  22822568.039    -4235231.281 6  -3300174.23621
  23335600.2114   -2347308.34346  -1829066.51561
  20808378.2584     651465.15647    507635.27262
  23812776.516    -2047180.068 5  -1469805.80521
  24267040.477     -901047.203 5   -584166.68121
 91  5  2 19 46 15.0000000  0  6G18G 2G11G19G16G 6
  21275111.1884    3283324.69448   2558432.20563
  22815518.227    -4272276.177 6  -3329040.34321
  23332569.023    -2363227.110 6  -1841470.71521
  20810080.5164     660418.45947    514611.86862
  23809904.078    -2062268.150 5  -1481562.74121
  24261400.508     -930667.040 5   -607247.04421
 91  5  2 19 46 30.0000000  0  6G18G 2G11G19G16G 6
  21282107.125     3320088.421 8   2587079.23923
  22808481.8914   -4309247.56046  -3357849.17661
  23329565.9694   -2379007.67046  -1853767.23161
  20811793.1254     669429.51147    521633.45862
  23807060.0784   -2077216.58745  -1493210.85661
  24255771.7664    -960259.07345   -630305.70161
 91  5  2 19 46 45.0000000  0  6G18G 2G11G19G16G 6
  21289123.1724    3356960.28348   2615810.53363
  22801461.3364   -4346147.14746  -3386602.06061
  23326588.9534   -2394651.50946  -1865957.18861
  20813520.2894     678496.56247    528698.68962
  23804241.125    -2092027.260 5  -1504751.62221
  24250143.2194    -989825.22445   -653344.22761
 91  5  2 19 47  0.0000000  0  6G18G 2G11G19G16G 6
  21296162.4224    3393944.31248   2644629.22863
  22794453.258    -4382970.835 6  -3415295.80221
  23323640.0314   -2410154.38346  -1878037.30961
  20815258.9774     687623.79247    535810.80862
  23801450.2424   -2106696.26945  -1516182.01161
  24244520.563    -1019361.492 5   -676359.48221
 91  5  2 19 47 15.0000000  0  6G18G 2G11G19G16G 6
  21303219.3984    3431033.35147   2673529.74363
  22787458.6644   -4419725.73646  -3443935.94661
  23320715.617    -2425523.160 6  -1890012.95221
  20817004.3984     696804.03147    542964.23862
  23798686.1564   -2121230.32845  -1527507.24161
  24238906.117    -1048875.094 5   -699357.03321
 91  5  2 19 47 30.0000000  0  6G18G 2G11G19G16G 6
  21310297.0554    3468228.18947   2702512.70563
  22780479.016    -4456410.610 6  -3472521.51721
  23317817.1484   -2440756.60846  -1901883.12461
  20818760.0554     706038.31647    550159.78062
  23795945.3914   -2135628.20145  -1538726.36161
  24233291.797    -1078365.076 4   -722336.22921
 91  5  2 19 47 45.0000000  0  6G18G 2G11G19G16G 6
  21317394.7034    3505525.40347   2731575.44163
  22773509.820    -4493028.552 6  -3501054.93521
  23314943.1884   -2455857.71546  -1913650.17661
  20820529.1174     715323.39847    557394.90362
  23793232.1644   -2149893.16345  -1549841.90261
  24227683.391    -1107834.738 4   -745299.52721
 91  5  2 19 48  0.0000000  0  6G18G 2G11G19G16G 6
  21324510.6954    3542922.70847   2760716.16563
  22766553.922    -4529581.499 6  -3529537.70621
  23312094.1174   -2470828.16646  -1925315.43661
  20822303.7344     724657.02947    564667.86362
  23790540.7664   -2164027.18045  -1560855.41861
  24222081.0864   -1137286.14944   -768248.67061
 91  5  2 19 48 15.0000000  0  6G18G 2G11G19G16G 6
  21331645.7424    3580416.26547   2789931.89663
  22759610.281    -4566073.115 6  -3557972.69221
  23309268.648    -2485671.438 6  -1936881.60621
  20824089.7664     734035.45747    571975.72462
  23787875.945    -2178033.807 5  -1571769.66221
  24216487.1564   -1166723.08544   -791186.49161
 91  5  2 19 48 30.0000000  0  6G18G 2G11G19G16G 6
  21338800.1884    3618009.75447   2819225.49563
  22752678.578    -4602499.477 6  -3586356.82721
  23306470.4454   -2500383.50146  -1948345.52061
  20825882.3134     743462.57547    579321.52662
  23785234.4614   -2191909.16745  -1582581.63661
  24210882.516    -1196141.809 4   -814110.09821
 91  5  2 19 48 45.0000000  0  6G18G 2G11G19G16G 6
  21345971.156     3655702.494 7   2848596.43923
  22745758.8674   -4638860.82046  -3614690.30461
  23303694.297    -2514964.784 6  -1959707.53721
  20827686.0944     752937.89647    586704.89362
  23782618.617    -2205653.649 5  -1593291.60121
  24205290.0634   -1225542.87544   -837019.96161
 91  5  2 19 49  0.0000000  0  6G18G 2G11G19G16G 6
  21353163.6094    3693493.17547   2878043.68963
  22738851.9304   -4675158.25146  -3642973.97761
  23300944.9224   -2529416.09446  -1970968.26961
  20829500.6024     762460.23547    594124.89362
  23780027.6724   -2219268.38045  -1603900.49861
  24199697.883    -1254927.519 4   -859917.03421
 91  5  2 19 49 15.0000000  0  6G18G 2G11G19G16G 6
  21360373.6804    3731380.96747   2907566.60863
  22731958.1174   -4711392.42446  -3671208.35661
  23298219.273    -2543738.055 6  -1982128.19421
  20831319.9064     772028.76147    601580.88662
  23777464.3524   -2232754.04345  -1614408.79061
  24194105.0864   -1284296.64344   -882802.04861
 91  5  2 19 49 30.0000000  0  6G18G 2G11G19G16G 6
  21367601.016     3769363.967 7   2937163.72323
  22725073.438    -4747565.099 6  -3699394.81521
  23295518.578    -2557932.036 6  -1993188.40621
  20833148.2894     781641.90347    609071.64262
  23774919.2274   -2246112.18845  -1624817.74261
  24188519.758    -1313651.899 4   -905676.19621
 91  5  2 19 49 45.0000000  0  6G18G 2G11G19G16G 6
  21374848.219     3807443.528 7   2966836.08523
  22718201.594    -4783674.398 6  -3727531.88721
  23292842.7424   -2571996.12346  -2004147.40761
  20834987.4384     791301.45247    616598.55862
  23772402.8914   -2259340.88045  -1635125.82061
  24182940.2664   -1342991.78044   -928538.40761
 91  5  2 19 50  0.0000000  0  6G18G 2G11G19G16G 6
  21382113.4224    3845621.17147   2996584.86463
  22711342.5704   -4819718.49746  -3755618.16061
  23290191.469    -2585928.493 6  -2015003.75121
  20836833.5704     801008.75947    624162.69362
  23769910.5084   -2272438.49445  -1645331.75661
  24177352.578    -1372314.565 4   -951387.30421
 91  5  2 19 50 15.0000000  0  6G18G 2G11G19G16G 6
  21389396.4384    3883896.45447   3026409.73363
  22704495.4064   -4855697.81646  -3783653.95261
  23287564.6334   -2599729.40146  -2025757.66961
  20838691.0864     810763.19147    631763.53962
  23767442.1804   -2285405.56345  -1655435.96561
  24171781.914    -1401620.816 5   -974223.29421
 91  5  2 19 50 30.0000000  0  6G18G 2G11G19G16G 6
  21396698.9534    3922271.67447   3056312.47263
  22697662.039    -4891609.718 6  -3811637.21221
  23284963.9694   -2613395.98246  -2036406.92461
  20840555.7114     820567.60247    639403.34262
  23765001.1564   -2298239.11745  -1665436.13961
  24166205.1564   -1430908.03745   -997044.46261
 91  5  2 19 50 45.0000000  0  6G18G 2G11G19G16G 6
  21404019.4534    3960740.66247   3086288.27563
  22690840.367    -4927459.739 6  -3839572.24421
  23282387.1564   -2626933.76146  -2046955.79961
  20842430.0164     830416.20647    647077.57762
  23762583.5634   -2310945.01345  -1675336.83061
  24160634.0314   -1460182.15845  -1019855.39261
 91  5  2 19 51  0.0000000  0  6G18G 2G11G19G16G 6
  21411357.4384    3999303.35947   3116337.09863
  22684030.2974   -4963247.89446  -3867459.07861
  23279836.5164   -2640342.61046  -2057404.22161
  20844312.0474     840308.88147    654786.15462
  23760188.6414   -2323523.26745  -1685138.05561
  24155067.4224   -1489443.20245  -1042656.15461
 91  5  2 19 51 15.0000000  0  6G18G 2G11G19G16G 6
  21418715.0944    4037962.96347   3146461.43063
  22677231.391    -4998971.010 6  -3895295.23221
  23277309.914    -2653619.104 6  -2067749.49721
  20846204.9774     850248.74147    662531.49662
  23757820.570    -2335970.782 5  -1694837.43121
  24149503.820    -1518688.135 5  -1065444.36221
 91  5  2 19 51 30.0000000  0  6G18G 2G11G19G16G 6
  21426089.4844    4076720.16347   3176661.81863
  22670446.2504   -5034627.73346  -3923079.64961
  23274808.492    -2666761.919 6  -2077990.61421
  20848104.5944     860236.83747    670314.42362
  23755477.570    -2348286.159 5  -1704433.80021
  24143939.2424   -1547915.91045  -1088219.21961
 91  5  2 19 51 45.0000000  0  6G18G 2G11G19G16G 6
  21433483.1644    4115574.88347   3206938.19263
  22663673.953    -5070217.962 6  -3950812.24621
  23272334.4384   -2679770.78646  -2088127.36261
  20850014.7274     870273.36347    678135.09362
  23753158.586    -2360469.329 5  -1713927.19921
  24138382.8524   -1577126.50945  -1110980.65261
 91  5  2 19 52  0.0000000  0  6G18G 2G11G19G16G 6
  21440895.0474    4154525.79947   3237289.52263
  22656914.875    -5105742.801 6  -3978493.89821
  23269882.9924   -2692646.80246  -2098160.58061
  20851933.1644     880357.13147    685992.57162
  23750866.8054   -2372521.50645  -1723318.50261
  24132829.1024   -1606321.11845  -1133729.66661
 91  5  2 19 52 15.0000000  0  6G18G 2G11G19G16G 6
  21448325.1174    4193571.56347   3267714.75763
  22650165.1564   -5141203.23046  -4006125.35861
  23267457.9844   -2705390.75446  -2108090.89561
  20853861.4534     890486.99547    693885.96962
  23748598.375    -2384443.758 5  -1732608.56321
  24127272.2814   -1635501.04945  -1156467.23561
 91  5  2 19 52 30.0000000  0  6G18G 2G11G19G16G 6
  21455774.6094    4232714.40647   3298215.64163
  22643430.664    -5176596.770 6  -4033704.69621
  23265058.8594   -2718000.11246  -2117916.33361
  20855796.4844     900665.18047    701817.02162
  23746354.2424   -2396233.53545  -1741795.41461
  24121728.1174   -1664663.99045  -1179191.52961
 91  5  2 19 52 45.0000000  0  6G18G 2G11G19G16G 6
  21463242.0164    4271954.76647   3328792.51163
  22636707.273    -5211922.713 6  -4061231.35521
  23262684.680    -2730473.927 6  -2127636.15521
  20857744.7274     910892.50947    709786.35962
  23744134.9614   -2407890.01045  -1750878.38261
  24116176.648    -1693809.232 5  -1201902.05721
 91  5  2 19 53  0.0000000  0  6G18G 2G11G19G16G 6
  21470727.2664    4311293.05747   3359445.68963
  22629998.586    -5247180.497 6  -4088704.91421
  23260337.305    -2742811.616 6  -2137249.90721
  20859697.8524     921169.23147    717794.19462
  23741942.3054   -2419412.80045  -1759857.18561
  24110636.8834   -1722936.46345  -1224598.55561
 91  5  2 19 53 15.0000000  0  6G18G 2G11G19G16G 6
  21478230.6254    4350725.25347   3390172.04863
  22623302.602    -5282373.784 6  -4116128.21221
  23258013.4844   -2755016.60346  -2146760.24461
  20861664.2274     931491.75547    725837.71762
  23739772.3284   -2430805.64445  -1768734.70361
  24105095.6644   -1752049.49745  -1247283.97661
 91  5  2 19 53 30.0000000  0  6G18G 2G11G19G16G 6
  21485753.2034    4390255.72847   3420974.98263
  22616618.539    -5317497.777 6  -4143497.50922
  23255717.102    -2767084.200 6  -2156163.53021
  20863637.1724     941864.70747    733920.53162
  23737632.0784   -2442063.88445  -1777507.37161
  24099557.641    -1781143.844 5  -1269954.84021
 91  5  2 19 53 45.0000000  0  6G18G 2G11G19G16G 6
  21493293.6564    4429883.87947   3451854.02563
  22609947.313    -5352552.762 6  -4170813.04021
  23253447.7194   -2779014.56846  -2165459.88861
  20865622.0004     952287.45347    742042.14562
  23735515.2894   -2453187.84545  -1786175.38761
  24094027.969    -1810219.990 5  -1292611.54321
 91  5  2 19 54  0.0000000  0  6G18G 2G11G19G16G 6
  21500853.1254    4469606.94647   3482807.03563
  22603288.578    -5387541.480 6  -4198076.94021
  23251202.7584   -2790810.17546  -2174651.23361
  20867613.7504     962757.30747    750200.47062
  23733424.4534   -2464179.83345  -1794740.57261
  24088499.719    -1839280.639 5  -1315256.15721
 91  5  2 19 54 15.0000000  0  6G18G 2G11G19G16G 6
  21508430.9304    4509425.14447   3513834.16763
  22596643.8284   -5422463.23246  -4225288.65361
  23248983.6724   -2802470.26146  -2183736.97661
  20869614.9144     973275.04747    758396.10862
  23731357.0314   -2475039.36645  -1803202.55661
  24082971.289    -1868325.196 5  -1337888.23821
 91  5  2 19 54 30.0000000  0  6G18G 2G11G19G16G 6
  21516025.6254    4549340.88647   3544937.31163
  22590011.6024   -5457315.52746  -4252446.24861
  23246791.922    -2813992.263 6  -2192715.10921
  20871624.9064     983842.84647    766630.75362
  23729314.2344   -2485763.99045  -1811559.41261
  24077443.070    -1897351.362 5  -1360505.96921
 91  5  2 19 54 45.0000000  0  6G18G 2G11G19G16G 6
  21523640.0634    4589352.38447   3576115.06663
  22583392.6724   -5492099.77746  -4279550.81861
  23244624.609    -2825377.440 6  -2201586.64821
  20873647.0784     994459.36447    774903.36262
  23727301.4304   -2496355.29845  -1819812.38261
  24071925.648    -1926360.753 5  -1383110.63921
 91  5  2 19 55  0.0000000  0  6G18G 2G11G19G16G 6
  21531272.5234    4629459.04147   3607366.97263
  22576785.3984   -5526816.13446  -4306602.48261
  23242484.109    -2836625.901 6  -2210351.64921
  20875674.4614    1005124.37147    783213.75062
  23725309.6024   -2506813.49345  -1827961.62561
  24066407.039    -1955353.746 5  -1405702.53121
 91  5  2 19 55 15.0000000  0  6G18G 2G11G19G16G 6
  21538923.1804    4669661.94047   3638693.87563
  22570193.492    -5561463.454 6  -4333600.35121
  23240369.227    -2847736.406 6  -2219009.13821
  20877715.3134    1015838.74247    791562.61162
  23723345.2584   -2517137.48245  -1836006.29461
  24060894.9224   -1984329.42545  -1428280.93861
 91  5  2 19 55 30.0000000  0  6G18G 2G11G19G16G 6
  21546592.0084    4709959.50747   3670094.54163
  22563612.6334   -5596043.03246  -4360545.44161
  23238281.8364   -2858710.09846  -2227560.03261
  20879764.3444    1026601.05947    799948.82762
  23721407.188    -2527328.370 5  -1843947.24821
  24055383.383    -2013289.104 5  -1450846.88821
 91  5  2 19 55 45.0000000  0  6G18G 2G11G19G16G 6
  21554278.1094    4750352.60947   3701569.64863
  22557044.9924   -5630553.63046  -4387436.77262
  23236220.086    -2869545.702 6  -2236003.34121
  20881820.9774    1037412.65747    808373.44062
  23719492.930    -2537385.198 5  -1851783.74221
  24049879.711    -2042231.723 5  -1473399.55421
 91  5  2 19 56  0.0000000  0  6G18G 2G11G19G16G 6
  21561982.6884    4790842.14347   3733119.89663
  22550491.852    -5664994.074 6  -4414273.44322
  23234184.5704   -2880242.01446  -2244338.10761
  20883886.1254    1048274.22547    816836.99562
  23717603.8984   -2547307.02145  -1859515.02961
  24044369.5554   -2071156.39145  -1495938.21661
 91  5  2 19 56 15.0000000  0  6G18G 2G11G19G16G 6
  21569706.1484    4831426.21247   3764743.81663
  22543951.266    -5699366.063 6  -4441056.76922
  23232174.4924   -2890800.52946  -2252565.48461
  20885964.5784    1059184.20147    825338.27262
  23715742.0474   -2557095.29145  -1867142.24261
  24038871.219    -2100064.868 5  -1518464.29221
 91  5  2 19 56 30.0000000  0  6G18G 2G11G19G16G 6
  21577447.2034    4872107.14347   3796443.20763
  22537423.9774   -5733666.68746  -4467784.48862
  23230192.0704   -2901218.24246  -2260683.15661
  20888049.2974    1070145.52947    833879.55562
  23713906.8364   -2566747.30345  -1874663.28161
  24033374.4304   -2128954.38045  -1540975.55061
 91  5  2 19 56 45.0000000  0  6G18G 2G11G19G16G 6
  21585208.3754    4912890.14447   3828222.13363
  22530911.2274   -5767890.79446  -4494452.58662
  23228238.6564   -2911489.99846  -2268687.09161
  20890146.7814    1081163.20447    842464.75862
  23712096.8524   -2576257.79545  -1882074.05261
  24027881.4224   -2157819.97545  -1563468.18061
 91  5  2 19 57  0.0000000  0  6G18G 2G11G19G16G 6
  21592988.2584    4953772.95347   3860078.83563
  22524412.703    -5802040.312 6  -4521062.55822
  23226311.0234   -2921617.63246  -2276578.72361
  20892255.3204    1092235.18747    851092.27662
  23710313.6414   -2585628.63646  -1889376.01661
  24022390.516    -2186663.649 5  -1585943.72321
 91  5  2 19 57 15.0000000  0  6G18G 2G11G19G16G 6
  21600786.9614    4994754.43147   3892012.42063
  22517928.297    -5836116.122 6  -4547615.09722
  23224410.430    -2931601.806 6  -2284358.55921
  20894369.5864    1103360.41447    859761.28462
  23708556.5394   -2594860.99945  -1896570.04961
  24016905.656    -2215486.427 5  -1608402.97921
 91  5  2 19 57 30.0000000  0  6G18G 2G11G19G16G 6
  21608605.0084    5035840.82947   3924027.75463
  22511460.0784   -5870111.74147  -4574105.14962
  23222540.7504   -2941435.85146  -2292021.42161
  20896497.4694    1114545.47447    868476.91462
  23706827.7894   -2603948.23945  -1903651.00861
  24011427.5394   -2244281.90345  -1630840.96761
 91  5  2 19 57 45.0000000  0  6G18G 2G11G19G16G 6
  21616441.4694    5077018.00947   3956113.83063
  22505003.1564   -5904040.77647  -4600543.32162
  23220694.3364   -2951133.37746  -2299577.89361
  20898636.1414    1125776.59847    877228.43462
  23705123.4614   -2612904.11645  -1910629.61661
  24005948.453    -2273064.061 5  -1653268.56821
 91  5  2 19 58  0.0000000  0  6G18G 2G11G19G16G 6
  21624296.2734    5118295.90647   3988278.39663
  22498559.7664   -5937893.26047  -4626921.84162
  23218876.9924   -2960684.20346  -2307020.05861
  20900783.5704    1137063.60847    886023.50562
  23703445.4694   -2621718.63245  -1917498.06061
  24000481.6094   -2301822.95045  -1675678.03061
 91  5  2 19 58 15.0000000  0  6G18G 2G11G19G16G 6
  21632168.5864    5159667.49647   4020515.95663
  22492132.945    -5971675.863 7  -4653245.90022
  23217086.5634   -2970094.91746  -2314353.04761
  20902940.7814    1148399.78147    894856.88562
  23701793.5704   -2630398.62145  -1924261.68061
  23995010.0164   -2330565.36745  -1698074.67961
 91  5  2 19 58 30.0000000  0  6G18G 2G11G19G16G 6
  21640060.4304    5201140.75347   4052832.74163
  22485718.922    -6005380.020 7  -4679508.83821
  23215323.953    -2979357.134 6  -2321570.34521
  20905109.8284    1159793.38647    903735.01962
  23700170.0394   -2638935.57345  -1930913.84061
  23989544.500    -2359283.127 5  -1720452.11821
 91  5  2 19 58 45.0000000  0  6G18G 2G11G19G16G 6
  21647970.9224    5242710.35147   4085224.60063
  22479318.891    -6039010.961 7  -4705714.71922
  23213588.023    -2988475.847 6  -2328675.81721
  20907287.6254    1171239.12847    912653.77662
  23698572.1644   -2647334.83845  -1937458.70861
  23984081.3444   -2387981.48945  -1742814.41761
 91  5  2 19 59  0.0000000  0  6G18G 2G11G19G16G 6
  21655900.508     5284378.429 7   4117693.18823
  22472933.070    -6072566.533 7  -4731861.86822
  23211881.047    -2997448.663 6  -2335667.59721
  20909473.5314    1182739.26447    921614.92162
  23696999.867    -2655593.876 6  -1943894.32021
  23978625.242    -2416658.242 5  -1765159.89721
 91  5  2 19 59 15.0000000  0  6G18G 2G11G19G16G 6
  21663849.5314    5326152.34147   4150244.25063
  22466563.102    -6106038.879 7  -4757944.17222
  23210203.3364   -3006267.73346  -2342539.57061
  20911676.5004    1194301.61047    930624.53662
  23695456.563    -2663705.108 6  -1950214.75821
  23973173.6414   -2445305.83445  -1787482.64161
 91  5  2 19 59 30.0000000  0  6G18G 2G11G19G16G 6
  21671818.6484    5368024.08147   4182871.54463
  22460208.8134   -6139435.99447  -4783967.85762
  23208551.6174   -3014940.91746  -2349297.86261
  20913887.4304    1205918.08047    939676.32962
  23693938.922    -2671676.785 5  -1956426.46621
  23967730.602    -2473932.265 5  -1809788.89621
 91  5  2 19 59 45.0000000  0  6G18G 2G11G19G16G 6
  21679804.7344    5409990.17847   4215572.35863
  22453865.8444   -6172760.92647  -4809935.30561
  23206928.555    -3023471.315 6  -2355944.88221
  20916107.2424    1217585.39347    948767.74162
  23692446.3594   -2679511.84145  -1962531.70861
  23962281.4844   -2502540.94545  -1832081.30561
 91  5  2 20  0  0.0000000  0  6G18G 2G11G19G16G 6
  21687807.8444    5452051.30147   4248347.22263
  22447539.945    -6206012.522 7  -4835845.60022
  23205332.6174   -3031857.77646  -2362479.75461
  20918334.0554    1229304.59247    957899.57462
  23690981.9924   -2687209.52945  -1968529.91061
  23956844.969    -2531130.905 5  -1854359.15121
 91  5  2 20  0 15.0000000  0  6G18G 2G11G19G16G 6
  21695832.008     5494212.327 7   4281199.92723
  22441225.211    -6239185.582 6  -4861694.68922
  23203765.5474   -3040095.11046  -2368898.43161
  20920576.9454    1241080.71747    967075.77862
  23689544.4924   -2694764.49745  -1974416.90161
  23951405.852    -2559697.110 5  -1876618.48621
 91  5  2 20  0 30.0000000  0  6G18G 2G11G19G16G 6
  21703873.141     5536476.391 7   4314132.91823
  22434928.727    -6272276.645 6  -4887479.89222
  23202226.523    -3048179.356 6  -2375197.79521
  20922829.2274    1252917.41447    976299.17562
  23688135.4304   -2702173.14645  -1980189.88161
  23945971.5864   -2588235.92745  -1898856.47461
 91  5  2 20  0 45.0000000  0  6G18G 2G11G19G16G 6
  21711934.734     5578841.239 7   4347144.44023
  22428648.484    -6305288.020 6  -4913202.99122
  23200716.6484   -3056112.71846  -2381379.60961
  20925092.7664    1264812.29147    985567.91162
  23686752.7974   -2709437.73845  -1985850.59161
  23940547.3444   -2616749.95745  -1921075.15761
 91  5  2 20  1  0.0000000  0  6G18G 2G11G19G16G 6
  21720014.805     5621295.281 7   4380225.47123
  22422377.945    -6338231.000 6  -4938872.79922
  23199233.7274   -3063906.49946  -2387452.64761
  20927364.7974    1276754.04047    994873.16662
  23685396.6334   -2716569.88845  -1991408.10961
  23935124.414    -2645250.598 5  -1943283.38821
 91  5  2 20  1 15.0000000  0  6G18G 2G11G19G16G 6
  21728111.6954    5663850.72447   4413385.51663
  22416125.492    -6371092.824 6  -4964479.36622
  23197779.5944   -3071548.12146  -2393407.12861
  20929649.3054    1288755.13447   1004224.66662
  23684067.477    -2723556.882 6  -1996852.52721
  23929704.4614   -2673725.36145  -1965471.46961
 91  5  2 20  1 30.0000000  0  6G18G 2G11G19G16G 6
  21736227.9774    5706501.71347   4446620.01362
  22409885.6174   -6403879.14047  -4990027.11262
  23196354.328    -3079043.053 6  -2399247.31321
  20931946.0234    1300809.81847   1013617.92262
  23682763.2194   -2730404.30945  -2002188.18061
  23924290.1564   -2702179.88145  -1987643.78561
 91  5  2 20  1 45.0000000  0  6G18G 2G11G19G16G 6
  21744363.8524    5749253.69947   4479933.20963
  22403663.4924   -6436584.17747  -5015511.51662
  23194955.1804   -3086385.55146  -2404968.71561
  20934248.5234    1312923.61647   1023057.23962
  23681488.9924   -2737106.56445  -2007410.71961
  23918883.000    -2730608.809 5  -2009796.14021
 91  5  2 20  2  0.0000000  0  6G18G 2G11G19G16G 6
  21752517.4774    5792098.68147   4513318.87362
  22397452.9224   -6469215.64347  -5040938.59662
  23193588.1884   -3093583.20446  -2410577.24761
  20936561.6334    1325088.80147   1032536.59862
  23680238.3914   -2743671.59246  -2012526.32861
  23913477.188    -2759019.875 5  -2031934.58821
 91  5  2 20  2 15.0000000  0  6G18G 2G11G19G16G 6
  21760689.2814    5835043.52447   4546782.34762
  22391258.9614   -6501766.54347  -5066302.89262
  23192244.867    -3100628.787 6  -2416067.28321
  20938888.7664    1337312.64647   1042061.66962
  23679017.7814   -2750092.17146  -2017529.37661
  23908073.625    -2787406.081 5  -2054053.65421
 91  5  2 20  2 30.0000000  0  6G18G 2G11G19G16G 6
  21768878.578     5878082.697 7   4580319.31822
  22385079.500    -6534242.295 6  -5091608.63022
  23190932.781    -3107527.615 6  -2421442.96521
  20941225.5704    1349589.53347   1051628.07562
  23677823.2894   -2756373.80746  -2022424.15561
  23902674.586    -2815773.048 5  -2076157.74821
 91  5  2 20  2 45.0000000  0  6G18G 2G11G19G16G 6
  21777087.117     5921216.950 7   4613930.38022
  22378913.438    -6566641.459 6  -5116854.68522
  23189648.734    -3114278.203 6  -2426703.15621
  20943572.1024    1361920.80247   1061236.85462
  23676653.2034   -2762515.13246  -2027209.60561
  23897282.6484   -2844119.48245  -2098245.82061
 91  5  2 20  3  0.0000000  0  6G18G 2G11G19G16G 6
  21785313.703     5964445.915 7   4647615.24722
  22372762.484    -6598963.981 7  -5142041.02122
  23188391.8834   -3120880.55346  -2431847.80961
  20945928.8284    1374306.22047   1070887.82562
  23675511.3134   -2768516.44945  -2031885.96061
  23891889.039    -2872445.584 5  -2120318.05421
 91  5  2 20  3 15.0000000  0  6G18G 2G11G19G16G 6
  21793558.023     6007771.433 7   4681375.34722
  22366627.4064   -6631208.06847  -5167166.24262
  23187165.430    -3127332.820 6  -2436875.50521
  20948296.0634    1386747.64347   1080582.44062
  23674395.5704   -2774375.82445  -2036451.70161
  23886504.594    -2900749.722 5  -2142373.17321
 91  5  2 20  3 30.0000000  0  6G18G 2G11G19G16G 6
  21801820.688     6051193.371 7   4715210.57722
  22360506.305    -6663373.782 7  -5192230.38922
  23185964.883    -3133634.830 6  -2441786.12721
  20950675.2424    1399245.02447   1090320.65762
  23673304.953    -2780093.321 5  -2040906.88621
  23881122.336    -2929031.824 5  -2164411.11821
 91  5  2 20  3 45.0000000  0  6G18G 2G11G19G16G 6
  21810102.1884    6094708.11947   4749118.13462
  22354398.773    -6695464.213 7  -5217235.88022
  23184793.094    -3139789.729 6  -2446582.13821
  20953062.5084    1411795.11347   1100099.94462
  23672246.7974   -2785672.11745  -2045254.00561
  23875745.4384   -2957295.24045  -2186434.50661
 91  5  2 20  4  0.0000000  0  6G18G 2G11G19G16G 6
  21818400.055     6138313.793 7   4783096.53822
  22348306.844    -6727480.864 7  -5242183.87822
  23183650.5784   -3145798.80946  -2451264.51561
  20955463.5004    1424396.27547   1109919.03062
  23671209.0634   -2791113.73545  -2049494.23161
  23870366.914    -2985541.581 5  -2208444.59121
 91  5  2 20  4 15.0000000  0  6G18G 2G11G19G16G 6
  21826716.258     6182023.407 7   4817155.92922
  22342230.719    -6759410.459 7  -5267064.03922
  23182536.3984   -3151648.94146  -2455823.02661
  20957872.3054    1437061.77847   1119788.24562
  23670205.563    -2796405.214 6  -2053617.45821
  23864998.7424   -3013757.87945  -2230431.26161
 91  5  2 20  4 30.0000000  0  6G18G 2G11G19G16G 6
  21835052.305     6225830.497 7   4851291.27722
  22336170.3134   -6791259.10047  -5291881.11962
  23181453.6094   -3157346.09046  -2460262.32861
  20960292.6254    1449785.30747   1129702.68562
  23669224.5554   -2801552.60346  -2057628.39361
  23859634.641    -3041950.304 5  -2252399.33621
 91  5  2 20  4 45.0000000  0  6G18G 2G11G19G16G 6
  21843407.125     6269724.200 7   4885494.11422
  22330122.680    -6823037.578 7  -5316643.52722
  23180395.789    -3162900.864 6  -2464590.70321
  20962722.6094    1462556.14947   1139653.98762
  23668269.5004   -2806566.60346  -2061535.41861
  23854271.3754   -3070129.65245  -2274357.21861
 91  5  2 20  5  0.0000000  0  6G18G 2G11G19G16G 6
  21851778.188     6313714.394 7   4919772.13622
  22324090.367    -6854735.545 7  -5341343.20122
  23179367.1884   -3168302.91746  -2468800.07161
  20965163.6484    1475384.65347   1149650.22362
  23667342.9224   -2811437.22046  -2065330.70361
  23848916.492    -3098285.722 5  -2296296.94221
 91  5  2 20  5 15.0000000  0  6G18G 2G11G19G16G 6
  21860167.484     6357803.015 7   4954126.86322
  22318074.648    -6886350.776 7  -5365978.40222
  23178369.0164   -3173550.18246  -2472888.81761
  20967616.2194    1488272.96947   1159693.06862
  23666446.156    -2816162.524 6  -2069012.76021
  23843561.500    -3126416.689 5  -2318217.11521
 91  5  2 20  5 30.0000000  0  6G18G 2G11G19G16G 6
  21868577.172     6401994.437 7   4988561.69022
  22312076.508    -6917878.790 7  -5390545.63922
  23177400.6954   -3178637.82346  -2476853.18761
  20970081.9844    1501225.59547   1169786.02662
  23665572.6414   -2820737.58046  -2072577.72861
  23838212.9534   -3154517.86245  -2340114.06761
 91  5  2 20  5 45.0000000  0  6G18G 2G11G19G16G 6
  21877005.578     6446283.155 7   5023072.32822
  22306092.273    -6949324.547 7  -5415048.78022
  23176462.422    -3183570.885 6  -2480697.10721
  20972557.4614    1514237.21547   1179924.94862
  23664732.0394   -2825167.60146  -2076029.69461
  23832869.945    -3182594.501 5  -2361991.92321
 91  5  2 20  6  0.0000000  0  6G18G 2G11G19G16G 6
  21885451.250     6490667.119 7   5057657.18622
  22300122.617    -6980689.923 7  -5439489.28722
  23175553.5164   -3188351.13246  -2484421.94661
  20975044.9454    1527305.94747   1190108.37662
  23663915.8204   -2829454.59546  -2079370.20061
  23827534.148    -3210648.683 5  -2383852.25421
 91  5  2 20  6 15.0000000  0  6G18G 2G11G19G16G 6
  21893915.750     6535152.400 7   5092320.99322
  22294169.9694   -7011968.90347  -5463862.48162
  23174673.5084   -3192972.34146  -2488022.85361
  20977542.6564    1540437.86547   1200341.04362
  23663127.3444   -2833592.50146  -2082594.54361
  23822198.477    -3238674.292 5  -2405690.35221
 91  5  2 20  6 30.0000000  0  6G18G 2G11G19G16G 6
  21902401.281     6579742.068 7   5127066.14322
  22288235.344    -7043157.677 7  -5488165.37822
  23173824.3134   -3197430.89146  -2491497.01861
  20980054.9774    1553636.45747   1210625.65962
  23662369.1884   -2837577.79045  -2085699.96161
  23816873.4694   -3266667.82945  -2427503.42361
 91  5  2 20  6 45.0000000  0  6G18G 2G11G19G16G 6
  21910905.625     6624436.508 7   5161892.93022
  22282316.6094   -7074255.65847  -5512397.53362
  23173008.023    -3201726.031 6  -2494843.85721
  20982578.7584    1566902.40147   1220962.75262
  23661639.7974   -2841409.93045  -2088686.04161
  23811552.117    -3294628.759 5  -2449291.12021
 91  5  2 20  7  0.0000000  0  6G18G 2G11G19G16G 6
  21919432.313     6669239.017 7   5196803.92722
  22276418.2114   -7105259.55747  -5536556.38162
  23172222.3754   -3205854.33346  -2498060.68161
  20985116.9844    1580239.08647   1231354.97262
  23660940.3284   -2845085.41445  -2091550.07961
  23806237.0084   -3322553.77845  -2471050.81361
 91  5  2 20  7 15.0000000  0  6G18G 2G11G19G16G 6
  21927977.680     6714148.137 7   5231797.99822
  22270534.797    -7136170.240 7  -5560642.58322
  23171467.000    -3209816.770 6  -2501148.27021
  20987668.1334    1593645.46347   1241801.49562
  23660269.9694   -2848605.48945  -2094292.99361
  23800929.719    -3350444.088 5  -2492783.45521
 91  5  2 20  7 30.0000000  0  6G18G 2G11G19G16G 6
  21936544.922     6759165.586 7   5266876.48222
  22264670.563    -7166985.663 7  -5584654.55722
  23170745.6414   -3213611.19646  -2504104.93761
  20990233.8054    1607123.55947   1252303.90162
  23659632.7424   -2851967.88746  -2096913.05561
  23795630.9224   -3378297.73245  -2514487.53261
 91  5  2 20  7 45.0000000  0  6G18G 2G11G19G16G 6
  21945132.406     6804297.978 7   5302044.52922
  22258827.008    -7197699.030 7  -5608587.00222
  23170057.3834   -3217230.72446  -2506925.31961
  20992812.0634    1620680.20847   1262867.52362
  23659023.0084   -2855165.95446  -2099405.06861
  23790336.7974   -3406107.96945  -2536157.79661
 91  5  2 20  8  0.0000000  0  6G18G 2G11G19G16G 6
  21953743.250     6849547.911 7   5337304.16222
  22253002.164    -7228307.420 7  -5632437.64822
  23169401.781    -3220672.502 6  -2509607.19321
  20995410.0004    1634318.02347   1273494.39062
  23658443.3594   -2858197.23845  -2101767.09861
  23785055.070    -3433872.241 5  -2557792.24121
 91  5  2 20  8 15.0000000  0  6G18G 2G11G19G16G 6
  21962376.578     6894918.780 7   5372658.04222
  22247198.133    -7258807.395 7  -5656203.81822
  23168781.6334   -3223932.81146  -2512147.67261
  20998019.5704    1648040.59147   1284187.29762
  23657900.6334   -2861058.09645  -2103996.34661
  23779778.961    -3461586.858 5  -2579387.97721
 91  5  2 20  8 30.0000000  0  6G18G 2G11G19G16G 6
  21971034.375     6940412.919 7   5408107.97022
  22241415.8444   -7289196.01447  -5679883.21962
  23168195.9844   -3227008.72646  -2514544.46761
  21000646.6564    1661850.80947   1294948.50462
  23657389.3754   -2863745.67745  -2106090.55961
  23774517.7114   -3489249.15645  -2600942.96561
 91  5  2 20  8 45.0000000  0  6G18G 2G11G19G16G 6
  21979713.539     6986023.229 7   5443648.42222
  22235651.852    -7319480.313 7  -5703481.33222
  23167645.5704   -3229907.32346  -2516803.07961
  21003291.2034    1675741.33547   1305772.28962
  23656907.320    -2866267.012 5  -2108055.24121
  23769260.852    -3516866.343 5  -2622462.79621
 91  5  2 20  9  0.0000000  0  6G18G 2G11G19G16G 6
  21988415.094     7031752.499 7   5479281.56822
  22229909.1724   -7349657.05747  -5726995.64362
  23167127.5234   -3232625.42746  -2518921.06061
  21005949.9384    1689715.45747   1316661.20562
  23656460.8754   -2868619.14146  -2109888.07261
  23764012.070    -3544435.404 5  -2643945.12521
 91  5  2 20  9 15.0000000  0  6G18G 2G11G19G16G 6
  21997141.469     7077602.675 7   5515008.93322
  22224189.8134   -7379723.99747  -5750424.38662
  23166644.977    -3235160.554 6  -2520896.46621
  21008625.0084    1703775.44347   1327617.03662
  23656046.9774   -2870800.13246  -2111587.54661
  23758775.797    -3571954.091 5  -2665388.18421
 91  5  2 20  9 30.0000000  0  6G18G 2G11G19G16G 6
  22005889.594     7123574.411 7   5550831.01722
  22218487.211    -7409680.254 7  -5773766.87922
  23166195.789    -3237511.841 6  -2522728.61821
  21011320.4144    1717922.23247   1338640.50263
  23655665.563    -2872808.867 6  -2113152.80421
  23753550.5944   -3599421.64045  -2686791.42461
 91  5  2 20  9 45.0000000  0  6G18G 2G11G19G16G 6
  22014662.383     7169679.671 7   5586757.14122
  22212810.273    -7439513.651 7  -5797013.63622
  23165786.641    -3239667.016 6  -2524407.95821
  21014027.8204    1732167.74347   1349740.89862
  23655319.3674   -2874633.19446  -2114574.35261
  23748333.102    -3626825.908 5  -2708145.34121
 91  5  2 20 10  0.0000000  0  6G18G 2G11G19G16G 6
  22023457.258     7215897.798 7   5622771.21622
  22207153.000    -7469244.604 7  -5820180.56522
  23165410.813    -3241646.484 6  -2525950.37921
  21016753.0704    1746491.50147   1360902.26262
  23655001.6644   -2876293.74646  -2115868.28661
  23743129.1414   -3654187.52345  -2729466.03761
 91  5  2 20 10 15.0000000  0  6G18G 2G11G19G16G 6
  22032274.891     7262237.133 7   5658879.74122
  22201515.875    -7498864.338 7  -5843260.83222
  23165069.242    -3243441.372 6  -2527348.98221
  21019495.5944    1760902.50147   1372131.61462
  23654718.883    -2877781.770 6  -2117027.78621
  23737931.750    -3681497.682 5  -2750746.62621
 91  5  2 20 10 30.0000000  0  6G18G 2G11G19G16G 6
  22041116.313     7308692.148 7   5695078.40522
  22195899.383    -7528378.116 7  -5866258.54522
  23164761.875    -3245056.882 6  -2528607.79621
  21022254.1724    1775395.33847   1383424.72762
  23654465.7424   -2879102.70645  -2118057.09561
  23732744.2664   -3708761.73745  -2771991.30761
 91  5  2 20 10 45.0000000  0  6G18G 2G11G19G16G 6
  22049979.359     7355265.126 7   5731368.98322
  22190305.039    -7557783.496 7  -5889171.77922
  23164489.0634   -3246490.57646  -2529724.93261
  21025027.1644    1789972.38647   1394783.46362
  23654249.258    -2880254.130 6  -2118954.32221
  23727564.8134   -3735977.43245  -2793198.29561
 91  5  2 20 11  0.0000000  0  6G18G 2G11G19G16G 6
  22058864.789     7401961.863 7   5767755.99822
  22184730.297    -7587074.304 7  -5911995.74522
  23164251.9144   -3247736.38546  -2530695.65461
  21027821.2114    1804639.69746   1406212.52962
  23654060.2584   -2881230.04646  -2119714.77461
  23722396.1804   -3763138.78545  -2814362.91661
 91  5  2 20 11 15.0000000  0  6G18G 2G11G19G16G 6
  22067771.117     7448761.183 7   5804222.95322
  22179174.758    -7616271.712 7  -5934746.93222
  23164046.883    -3248815.320 6  -2531536.36521
  21030623.1804    1819376.06547   1417695.40162
  23653906.8364   -2882051.63446  -2120354.97561
  23717233.289    -3790267.088 5  -2835501.82821
 91  5  2 20 11 30.0000000  0  6G18G 2G11G19G16G 6
  22076696.508     7495666.791 7   5840772.72622
  22173637.969    -7645371.346 7  -5957421.93122
  23163875.703    -3249723.046 6  -2532243.66621
  21033440.0784    1834185.74347   1429235.40462
  23653776.9384   -2882714.85046  -2120871.77761
  23712078.055    -3817358.102 5  -2856611.65021
 91  5  2 20 11 45.0000000  0  6G18G 2G11G19G16G 6
  22085641.133     7542680.094 7   5877406.41522
  22168118.055    -7674371.315 7  -5980019.26422
  23163733.836    -3250457.632 6  -2532816.05221
  21036273.8204    1849070.52447   1440833.92862
  23653684.6954   -2883217.93746  -2121263.78761
  23706931.031    -3844410.096 5  -2877691.08021
 91  5  2 20 12  0.0000000  0  6G18G 2G11G19G16G 6
  22094606.516     7589787.374 7   5914113.33522
  22162616.266    -7703285.196 7  -6002549.52122
  23163624.602    -3251032.644 6  -2533264.09221
  21039120.4384    1864016.76947   1452480.34462
  23653614.820    -2883574.076 6  -2121541.30521
  23701788.1024   -3871436.69545  -2898750.73061
 91  5  2 20 12 15.0000000  0  6G18G 2G11G19G16G 6
  22103589.133     7636990.056 7   5950894.59422
  22157130.086    -7732111.282 7  -6025011.36322
  23163546.375    -3251446.298 6  -2533586.40421
  21041974.4534    1879026.22547   1464176.02162
  23653577.1334   -2883781.90546
  23696650.938    -3898436.277 5  -2919789.32621
 91  5  2 20 12 30.0000000  0  6G18G 2G11G19G16G 6
  22112589.992     7684286.078 7   5987748.59022
  22151661.8134   -7760851.60647  -6047406.38162
  23163495.859    -3251700.488 6  -2533784.45621
  21044841.6564    1894096.83847   1475919.34762
  23653567.7194   -2883843.97046
  23691517.539    -3925410.815 5  -2940808.37921
 91  5  2 20 12 45.0000000  0  6G18G 2G11G19G16G 6
  22121606.820     7731672.320 7   6024672.87822
  22146208.477    -7789509.108 7  -6069736.85722
  23163478.438    -3251798.253 6
  21047721.0164    1909225.68647   1487708.05062
  23653582.3364   -2883762.71346
  23686387.1954   -3952363.67345  -2961810.55461
 91  5  2 20 13  0.0000000  0  6G18G 2G11G19G16G 6
  22130642.086     7779150.899 7   6061669.12322
  22140770.9844   -7818081.28547  -6092000.85462
  23163489.258    -3251736.919 6
  21050611.7344    1924415.16347   1499544.00462
  23653623.4534   -2883535.80746
  23681261.258    -3979292.163 5  -2982793.73921
 91  5  2 20 13 15.0000000  0  6G18G 2G11G19G16G 6
  22139693.031     7826717.480 7   6098733.93922
  22135349.7114   -7846571.87347  -6114201.27262
  23163529.6644   -3251520.39846
  21053512.5394    1939661.32547   1511424.12362
  23653696.0554   -2883167.27146
  23676139.203    -4006200.351 5  -3003761.11221
 91  5  2 20 13 30.0000000  0  6G18G 2G11G19G16G 6
  22148760.461     7874367.598 7   6135863.85222
  22129942.4774   -7874985.04047  -6136341.36462
  23163600.273    -3251152.688 6
  21056424.1414    1954960.07647   1523345.21862
  23653791.0084   -2882661.41346  -2120830.16661
  23671021.8754   -4033092.36445  -3024715.87861
 91  5  2 20 13 45.0000000  0  6G18G 2G11G19G16G 6
  22157840.961     7922085.331 7   6173046.45022
  22124548.3444   -7903336.55047  -6158433.41162
  23163698.430    -3250649.548 6  -2532965.46321
  21059342.9924    1970295.62347   1535294.98562
  23653909.8984   -2882034.12046  -2120341.37061
  23665902.469    -4059984.202 5  -3045670.49121
 91  5  2 20 14  0.0000000  0  6G18G 2G11G19G16G 6
  22166936.813     7969885.779 7   6210293.50022
  22119167.8284   -7931610.96747  -6180465.38662
  23163820.086    -3249995.687 6  -2532455.94821
  21062273.7274    1985683.36547   1547285.42562
  23654051.6094   -2881270.08446  -2119746.01461
  23660791.2894   -4086860.51445  -3066613.02561
 91  5  2 20 14 15.0000000  0  6G18G 2G11G19G16G 6
  22176047.156     8017760.395 6   6247598.34922
  22113800.1024   -7959816.69147  -6202443.83162
  23163972.8284   -3249199.27246
  21065207.4534    2001115.00247   1559310.07162
  23654222.328    -2880377.734 6
  23655680.945    -4113729.593 5  -3087549.92921
 91  5  2 20 14 30.0000000  0  6G18G 2G11G19G16G 6
  22185172.367     8065717.359 6   6284967.35922
  22108447.1644   -7987945.16847  -6224362.09262
  23164152.984    -3248251.753 6
  21068153.1484    2016598.89947   1571375.44462
  23654419.539    -2879348.507 6
  23650571.867    -4140583.260 5  -3108474.81121
 91  5  2 20 14 45.0000000  0  6G18G 2G11G19G16G 6
  22194310.773     8113740.258 7   6322387.75122
  22103105.7274   -8016012.53147  -6246232.72462
  23164359.594    -3247169.281 6
  21071107.1484    2032118.91647   1583468.95862
  23654639.289    -2878199.090 6
  23645462.391    -4167437.568 5  -3129400.20521
 91  5  2 20 15  0.0000000  0  6G18G 2G11G19G16G 6
  22203464.688     8161832.108 7   6359861.86922
  22097776.4844   -8044015.44847  -6268053.14462
  23164590.5314   -3245948.62646
  21074067.8674    2047678.23746   1595593.09862
  23654882.867    -2876926.146 6
  23640348.0784   -4194289.51345  -3150323.74961
 91  5  2 20 15 15.0000000  0  6G18G 2G11G19G16G 6
  22212629.117     8209998.143 7   6397393.79122
  22092462.2974   -8071948.43747  -6289819.07162
  23164851.6174   -3244584.23346
  21077036.3984    2063282.39146   1607752.17262
  23655149.742    -2875524.135 6
  23635241.953    -4221133.535 5  -3171241.12621
 91  5  2 20 15 30.0000000  0  6G18G 2G11G19G16G 6
  22221808.555     8258236.556 7   6434982.11922
  22087159.1644   -8099813.05747  -6311531.72862
  23165137.7194   -3243077.56946
  21080014.0164    2078929.92147   1619945.04862
  23655437.500    -2873994.408 6
  23630136.8834   -4247971.35845  -3192153.67361
 91  5  2 20 15 45.0000000  0  6G18G 2G11G19G16G 6
  22231002.609     8306549.511 7   6472628.52922
  22081870.4774   -8127606.96547  -6333189.28262
  23165451.242    -3241426.315 6
  21083000.3524    2094622.89547   1632173.33362
  23655756.711    -2872335.179 6
  23625026.977    -4274800.668 5  -3213059.57621
 91  5  2 20 16  0.0000000  0  6G18G 2G11G19G16G 6
  22240210.734     8354933.874 7   6510330.58322
  22076592.7814   -8155332.62847  -6354793.66062
  23165792.1644   -3239632.93746
  21085996.3594    2110358.89247   1644435.14362
  23656096.516    -2870549.137 6
  23619925.609    -4301624.139 5  -3233960.95521
 91  5  2 20 16 15.0000000  0  6G18G 2G11G19G16G 6
  22249430.625     8403388.469 7   6548087.36122
  22071331.0084   -8182991.32447  -6376345.85762
  23166160.5944   -3237698.48446
  21088997.0474    2126136.67547   1656729.51262
  23656460.820    -2868636.972 6
  23614819.594    -4328442.906 5  -3254858.64721
 91  5  2 20 16 30.0000000  0  6G18G 2G11G19G16G 6
  22258665.141     8451915.255 7   6585900.38822
  22066078.8284   -8210580.69447  -6397844.03362
  23166555.3914   -3235620.80146
  21092009.1484    2141958.47647   1669058.18562
  23656846.039    -2866596.905 6
  23609720.0944   -4355254.78545  -3275750.97061
 91  5  2 20 16 45.0000000  0  6G18G 2G11G19G16G 6
  22267913.594     8500514.578 7   6623769.94522
  22060844.7814   -8238100.04147  -6419287.64362
  23166979.4454   -3233399.16246
  21095028.3594    2157825.00747   1681421.71262
  23657258.820    -2864428.432 6
  23604618.117    -4382059.284 5  -3296637.56121
 91  5  2 20 17  0.0000000  0  6G18G 2G11G19G16G 6
  22277176.609     8549191.948 7   6661700.30822
  22055621.6884   -8265543.30047  -6440671.96762
  23167430.9304   -3231027.54446
  21098056.6414    2173742.40647   1693824.87362
  23657699.180    -2862125.729 6
  23599521.273    -4408850.442 5  -3317513.74321
 91  5  2 20 17 15.0000000  0  6G18G 2G11G19G16G 6
  22286455.375     8597952.552 7   6699695.53722
  22050415.1564   -8292905.27547  -6461992.95362
  23167912.2664   -3228500.65246
  21101096.4384    2189715.92647   1706271.75962
  23658162.453    -2859683.228 5
  23594423.445    -4435623.069 5  -3338375.49021
 91  5  2 20 17 30.0000000  0  6G18G 2G11G19G16G 6
  22295751.742     8646803.639 7   6737761.27322
  22045223.7114   -8320178.41047  -6483244.71162
  23168425.3594   -3225810.95846  -2513610.61961
  21104148.0554    2205752.81747   1718768.03462
  23658654.5394   -2857093.95045  -2100908.05461
  23589336.352    -4462369.653 5  -3359216.94821
 91  5  2 20 17 45.0000000  0  6G18G 2G11G19G16G 6
  22305064.406     8695742.561 7   6775895.44622
  22040050.5634   -8347365.11647  -6504429.12562
  23168967.539    -3222960.940 6  -2511389.82521
  21107212.5004    2221850.73047   1731311.85562
  23659174.641    -2854360.378 5  -2098778.00421
  23584251.367    -4489092.885 5  -3380040.20621
 91  5  2 20 18  0.0000000  0  6G18G 2G11G19G16G 6
  22314394.953     8744773.529 7   6814101.34522
  22034897.5634   -8374460.93747  -6525542.71962
  23169539.2584   -3219946.00446  -2509040.51961
  21110288.7114    2238014.17747   1743906.73962
  23659718.445    -2851477.973 5  -2096531.97921
  23579169.4454   -4515788.17645  -3400841.67161
 91  5  2 20 18 15.0000000  0  6G18G 2G11G19G16G 6
  22323740.828     8793890.371 7   6852374.15022
  22029754.8134   -8401471.43747  -6546589.82662
  23170144.6254   -3216771.86746  -2506567.16361
  21113374.5394    2254237.31547   1756548.14262
  23660300.5634   -2848452.89446  -2094174.79061
  23574092.8984   -4542461.45745  -3421626.01361
 91  5  2 20 18 30.0000000  0  6G18G 2G11G19G16G 6
  22333104.320     8843093.998 7   6890714.59422
  22024631.3834   -8428395.61447  -6567569.66862
  23170778.9384   -3213437.35746  -2503968.83461
  21116473.8674    2270521.36747   1769237.01062
  23660902.773    -2845284.110 6  -2091705.61621
  23569024.9774   -4569111.78245  -3442392.44861
 91  5  2 20 18 45.0000000  0  6G18G 2G11G19G16G 6
  22342484.523     8892385.846 7   6929123.77422
  22019524.8204   -8455231.71647  -6588480.88262
  23171443.0234   -3209940.75446  -2501244.20761
  21119584.1024    2286868.05547   1781974.68662
  23661534.3834   -2841969.42845  -2089122.74761
  23563961.1334   -4595737.16845  -3463139.46661
 91  5  2 20 19  0.0000000  0  6G18G 2G11G19G16G 6
  22351881.156     8941763.984 7   6967600.19222
  22014435.4144   -8481981.66847  -6609324.96662
  23172139.0944   -3206283.90446  -2498394.71661
  21122707.0554    2303275.47347   1794759.67862
  23662190.367    -2838511.098 5  -2086427.95921
  23558896.9144   -4622339.68345  -3483868.65461
 91  5  2 20 19 15.0000000  0  6G18G 2G11G19G16G 6
  22361293.586     8991226.973 7   7006142.72922
  22009360.6174   -8508646.28647
  23172865.6954   -3202467.63846  -2495421.00661
  21125840.4224    2319742.74447   1807591.31162
  23662878.4694   -2834910.13045  -2083622.02161
  23553839.1484   -4648920.41145
 91  5  2 20 19 30.0000000  0  6G18G 2G11G19G16G 6
  22370721.195     9040770.410 7   7044747.96022
  22004301.7974   -8535229.58347
  23173621.820    -3198496.069 6  -2492326.26621
  21128984.2424    2336265.61047   1820466.26462
  23663590.4454   -2831170.72445  -2080708.20161
  23548781.9064   -4675483.39945
 91  5  2 20 19 45.0000000  0  6G18G 2G11G19G16G 6
  22380163.852     9090392.441 7   7083414.42922
  21999257.8364   -8561733.35247
  23174407.992    -3194370.934 6  -2489111.85321
  21132138.9774    2352842.43447   1833383.26162
  23664324.984    -2827294.983 5  -2077688.15721
  23543731.4454   -4702030.41945
 91  5  2 20 20  0.0000000  0  6G18G 2G11G19G16G 6
  22389621.680     9140089.749 7   7122139.55222
  21994230.3444   -8588160.90547  -6692061.90862
  23175220.4224   -3190095.44146  -2485780.30761
  21135302.7194    2369470.06647   1846339.84862
  23665087.805    -2823285.767 5  -2074564.11021
  23538681.8914   -4728564.89745  -3566641.38561
 91  5  2 20 20 15.0000000  0  6G18G 2G11G19G16G 6
  22399091.6804    9189857.08046   7160919.23362
  21989213.7584   -8614516.87347  -6712598.99262
  23176060.8444   -3185674.48346  -2482335.39861
  21138476.4224    2386143.65347   1859332.24762
  23665875.773    -2819148.122 5  -2071339.98321
  23533634.453    -4755091.729 5  -3587311.60321
 91  5  2 20 20 30.0000000  0  6G18G 2G11G19G16G 6
  22408573.227     9239687.481 6   7199748.06122
  21984211.3834   -8640807.77947  -6733085.37662
  23176929.9844   -3181114.62846  -2478782.26461
  21141658.7274    2402856.59447   1872355.31462
  23666686.9844   -2814889.02145  -2068021.22461
  23528583.7344   -4781617.46745  -3607980.95861
 91  5  2 20 20 45.0000000  0  6G18G 2G11G19G16G 6
  22418068.039     9289583.163 6   7238627.76222
  21979220.0864   -8667031.36447  -6753519.30662
  23177822.7344   -3176413.58246  -2475119.10561
  21144844.1334    2419611.15047   1885410.80562
  23667521.3914   -2810506.38745  -2064606.19361
  23523537.2424   -4808139.82945  -3628647.71761
 91  5  2 20 21  0.0000000  0  6G18G 2G11G19G16G 6
  22427577.047     9339549.150 6   7277562.24122
  21974245.0634   -8693182.27947  -6773896.60962
  23178747.1954   -3171565.88246  -2471341.68261
  21148042.1024    2436412.53947   1898502.78962
  23668379.219    -2805994.797 5  -2061090.68521
  23518491.9694   -4834653.64745  -3649307.78561
 91  5  2 20 21 15.0000000  0  6G18G 2G11G19G16G 6
  22437099.6094    9389583.64546   7316550.10262
  21969280.3524   -8719261.94747  -6794218.39662
  23179696.5554   -3166573.10746  -2467451.20561
  21151247.9144    2453259.18047   1911630.03662
  23669259.758    -2801355.881 5  -2057475.95921
  23513450.5164   -4861160.42045  -3669962.38561
 91  5  2 20 21 30.0000000  0  6G18G 2G11G19G16G 6
  22446634.2424    9439687.31747   7355591.86962
  21964332.7584   -8745269.41847  -6814483.92762
  23180674.430    -3161434.071 6  -2463446.75721
  21154462.3524    2470152.34247   1924793.52962
  23670166.352    -2796588.525 5  -2053761.13621
  23508405.055    -4887659.197 5  -3690610.74121
 91  5  2 20 21 45.0000000  0  6G18G 2G11G19G16G 6
  22456180.461     9489863.143 6   7394689.85822
  21959398.3594   -8771201.59047  -6834690.77962
  23181679.711    -3156145.872 6  -2459326.07321
  21157686.9694    2487095.02747   1937995.61462
  23671098.6094   -2791690.04045  -2049944.17061
  23503364.430    -4914146.969 5  -3711250.51621
 91  5  2 20 22  0.0000000  0  6G18G 2G11G19G16G 6
  22465741.6884    9540107.52846   7433841.27162
  21954475.8204   -8797061.78547  -6854841.55162
  23182715.3594   -3150711.70046  -2455091.65161
  21160922.0314    2504083.97947   1951233.75062
  23672059.695    -2786663.624 5  -2046027.48221
  23498328.211    -4940627.088 5  -3731884.33321
 91  5  2 20 22 15.0000000  0  6G18G 2G11G19G16G 6
  22475314.8914    9590419.85646   7473045.62462
  21949569.2034   -8822850.39247  -6874936.53862
  23183777.000    -3145131.932 6  -2450743.76921
  21164161.2034    2521118.93747   1964507.73662
  23673039.602    -2781510.196 5  -2042011.83521
  23493286.7584   -4967100.04145  -3752512.57161
 91  5  2 20 22 30.0000000  0  6G18G 2G11G19G16G 6
  22484904.0234    9640801.33046   7512303.85762
  21944674.3524   -8848565.59647  -6894974.32862
  23184866.4694   -3139404.85846  -2446281.11361
  21167411.3754    2538201.55747   1977818.85862
  23674042.7584   -2776227.83845  -2037895.72061
  23488254.555    -4993563.917 5  -3773133.72521
 91  5  2 20 22 45.0000000  0  6G18G 2G11G19G16G 6
  22494505.9844    9691253.98846   7551617.55762
  21939796.4844   -8874205.36947  -6914953.34262
  23185984.3834   -3133528.46446  -2441702.11061
  21170671.6644    2555333.79947   1991168.65362
  23675072.289    -2770814.644 5  -2033677.66421
  23483216.2194   -5020016.96746  -3793746.46261
 91  5  2 20 23  0.0000000  0  6G18G 2G11G19G16G 6
  22504119.016     9741776.052 6   7590985.34221
  21934931.2034   -8899770.89647  -6934874.50562
  23187130.3364   -3127503.90246  -2437007.63961
  21173940.7584    2572514.54847   2004556.24062
  23676131.4844   -2765271.80746  -2029358.58161
  23478188.219    -5046460.437 6  -3814351.72121
 91  5  2 20 23 15.0000000  0  6G18G 2G11G19G16G 6
  22513746.4614    9792368.42446   7630407.90661
  21930081.3444   -8925261.01047  -6954736.90362
  23188305.586    -3121330.174 6  -2432196.93021
  21177220.4064    2589744.75447   2017982.36062
  23677208.328    -2759598.617 5  -2024937.92821
  23473155.8204   -5072893.24746  -3834948.68661
 91  5  2 20 23 30.0000000  0  6G18G 2G11G19G16G 6
  22523387.078     9843029.622 6   7669884.10522
  21925242.8444   -8950677.16547  -6974541.66563
  23189508.4304   -3115008.72346  -2427271.12361
  21180509.7584    2607022.89947   2031445.84362
  23678313.1414   -2753796.62745  -2020416.91061
  23468127.5314   -5099317.00746  -3855538.60061
 91  5  2 20 23 45.0000000  0  6G18G 2G11G19G16G 6
  22533042.7034    9893766.84646   7709419.54162
  21920423.6564   -8976011.81547  -6994282.92162
  23190741.1174   -3108531.96246  -2422224.30061
  21183805.4224    2624356.72247   2044952.71062
  23679442.438    -2747858.520 5  -2015789.84121
  23463103.9384   -5125724.03946  -3876115.47961
 91  5  2 20 24  0.0000000  0  6G18G 2G11G19G16G 6
  22542711.0944    9944579.76546   7749013.96061
  21915617.6724   -9001264.69447  -7013960.45962
  23192002.9534   -3101899.71746  -2417056.31561
  21187115.2584    2641746.42947   2058503.12562
  23680599.2584   -2741783.84045  -2011056.33761
  23458082.406    -5152114.381 6  -3896679.33821
 91  5  2 20 24 15.0000000  0  6G18G 2G11G19G16G 6
  22552395.1414    9995468.67446   7788667.59661
  21910829.0474   -9026435.48847  -7033574.03162
  23193295.8594   -3095111.54446  -2411766.82361
  21190436.1484    2659192.24747   2072097.26262
  23681783.664    -2735572.481 5  -2006216.32321
  23453061.9384   -5178487.57345  -3917229.83661
 91  5  2 20 24 30.0000000  0  6G18G 2G11G19G16G 6
  22562093.5704   10046434.15746   7828380.89861
  21906053.5164   -9051523.30747  -7053122.95263
  23194616.3984   -3088166.78946  -2406355.31961
  21193769.1024    2676695.16447   2085735.88662
  23682987.953    -2729224.082 5  -2001269.55021
  23448044.734    -5204842.950 5  -3937766.45821
 91  5  2 20 24 45.0000000  0  6G18G 2G11G19G16G 6
  22571806.5314   10097476.69446   7868154.23761
  21901296.063    -9076527.297 7  -7072606.55522
  23195967.5634   -3081064.44846  -2400821.02861
  21197107.5004    2694256.11347   2099419.73762
  23684222.3834   -2722737.41845  -1996215.01561
  23443034.813    -5231179.599 5  -3958288.47821
 91  5  2 20 25  0.0000000  0  6G18G 2G11G19G16G 6
  22581534.7894   10148594.08346   7907985.90661
  21896552.6644   -9101449.37947  -7092026.33162
  23197348.9614   -3073806.66146  -2395165.60061
  21200459.9144    2711872.84047   2113147.04362
  23685480.2734   -2716115.00545  -1991054.70061
  23438024.9924   -5257499.69745  -3978797.61661
 91  5  2 20 25 15.0000000  0  6G18G 2G11G19G16G 6
  22591275.9534   10199787.57046   7947876.87361
  21891826.2814   -9126288.08147  -7111381.13362
  23198760.086    -3066391.826 6  -2389387.79121
  21203822.8674    2729546.98247   2126919.10062
  23686770.7114   -2709355.22646  -1985787.34861
  23433023.344    -5283801.509 5  -3999292.49821
 91  5  2 20 25 30.0000000  0  6G18G 2G11G19G16G 6
  22601031.2194   10251054.99746   7987825.45161
  21887115.2344   -9151045.27547  -7130672.42262
  23200200.2974   -3058821.75746  -2383489.03261
  21207197.0474    2747276.81847   2140734.54162
  23688082.4224   -2702459.93045  -1980414.40661
  23428019.406    -5310087.133 5  -4019774.76121
 91  5  2 20 25 45.0000000  0  6G18G 2G11G19G16G 6
  22610800.9224   10302393.60046   8027829.49161
  21882418.1094   -9175723.62847  -7149902.28062
  23201669.9224   -3051099.14746  -2377471.40461
  21210580.4454    2765059.65347   2154591.28862
  23689421.5234   -2695432.06046  -1974938.14661
  23423022.3754   -5336359.19946  -4040246.46661
 91  5  2 20 26  0.0000000  0  6G18G 2G11G19G16G 6
  22620585.5474   10353810.18246   8067894.29561
  21877739.3204   -9200315.82347  -7169064.99662
  23203169.0784   -3043216.82346  -2371329.33261
  21213977.2274    2782902.83847   2168495.06162
  23690785.6564   -2688264.53646  -1969353.08561
  23418025.313    -5362610.524 6  -4060702.00021
 91  5  2 20 26 15.0000000  0  6G18G 2G11G19G16G 6
  22630382.6804   10405298.02146   8108014.63161
  21873075.0944   -9224828.55947  -7188165.79962
  23204700.1954   -3035181.48546  -2365068.02761
  21217381.8914    2800799.57247   2182440.56762
  23692173.586    -2680964.312 6  -1963664.59721
  23413030.641    -5388847.853 6  -4081146.64321
 91  5  2 20 26 30.0000000  0  6G18G 2G11G19G16G 6
  22640192.7894   10456855.52346   8148189.24261
  21868425.1884   -9249262.97247  -7207205.56962
  23206257.7194   -3026994.34546  -2358688.43361
  21220801.2344    2818748.76347   2196426.94362
  23693585.063    -2673532.581 5  -1957873.66821
  23408040.1954   -5415072.36746  -4101581.29961
 91  5  2 20 26 45.0000000  0  6G18G 2G11G19G16G 6
  22650018.6484   10508486.46546   8188421.07961
  21863791.0474   -9273614.84647  -7226181.02962
  23207845.9304   -3018651.23446  -2352187.30461
  21224224.0944    2836754.53147   2210457.40162
  23695026.2664   -2665965.32846  -1951977.10761
  23403054.898    -5441279.982 6  -4122002.79021
 91  5  2 20 27  0.0000000  0  6G18G 2G11G19G16G 6
  22659858.5084   10560185.75146   8228706.16761
  21859171.4064   -9297889.16047  -7245096.04962
  23209460.2584   -3010157.17146  -2345568.55661
  21227660.6024    2854811.90747   2224528.07662
  23696491.500    -2658267.560 6  -1945978.86421
  23398071.5004   -5467475.83246  -4142415.10961
 91  5  2 20 27 15.0000000  0  6G18G 2G11G19G16G 6
  22669707.8204   10611954.83146   8269045.65361
  21854567.781    -9322084.122 7  -7263949.23722
  23211107.3364   -3001510.47346  -2338830.85861
  21231106.461     2872922.582 7   2238640.27722
  23697979.2974   -2650437.94645  -1939877.87161
  23393086.484    -5493658.008 6  -4162816.77621
 91  5  2 20 27 30.0000000  0  6G18G 2G11G19G16G 6
  22679573.5944   10663792.58446   8309438.64561
  21849978.6564   -9346200.48647  -7282741.18162
  23212780.9534   -2992711.80446  -2331974.75161
  21234563.4064    2891085.88447   2252793.49162
  23699493.3754   -2642477.32345  -1933674.79261
  23388105.9224   -5519827.42446  -4183208.50361
 91  5  2 20 27 45.0000000  0  6G18G 2G11G19G16G 6
  22689450.5474   10715696.70746   8349883.35161
  21845402.859    -9370240.382 7  -7301473.53822
  23214484.2664   -2983763.40746  -2325001.96361
  21238028.1954    2909299.75247   2266986.10862
  23701038.5394   -2634387.71245  -1927371.21361
  23383131.3204   -5545986.15246  -4203591.88661
 91  5  2 20 28  0.0000000  0  6G18G 2G11G19G16G 6
  22699339.8054   10767663.88946   8390377.19461
  21840842.3834   -9394206.83547  -7320148.66662
  23216214.9614   -2974668.24546  -2317914.83561
  21241504.2274    2927561.24147   2281215.83662
  23702598.5084   -2626172.42045  -1920969.70161
  23378151.3444   -5572137.35046  -4223969.41861
 91  5  2 20 28 15.0000000  0  6G18G 2G11G19G16G 6
  22709240.9694   10819695.22646   8430921.03061
  21836296.1414   -9418098.33647  -7338765.39362
  23217973.4924   -2965424.83646  -2310712.18961
  21244988.6024    2945871.62447   2295483.65862
  23704185.8364   -2617829.99345  -1914469.11961
  23373179.3524   -5598279.38046  -4244339.80061
 91  5  2 20 28 30.0000000  0  6G18G 2G11G19G16G 6
  22719153.8284   10871788.03646   8471512.76961
  21831764.0704   -9441917.60847  -7357325.83762
  23219759.8444   -2956036.00646  -2303396.21361
  21248483.1724    2964228.34547   2309787.59162
  23705801.9384   -2609363.59245  -1907871.94261
  23368203.492    -5624415.092 6  -4264705.26521
 91  5  2 20 28 45.0000000  0  6G18G 2G11G19G16G 6
  22729079.6804   10923942.26446   8512152.36761
  21827245.156    -9465664.176 7  -7375829.63022
  23221574.1174   -2946501.41146  -2295966.66361
  21251984.2814    2982631.86647   2324127.99662
  23707430.3204   -2600772.70045  -1901177.74661
  23363235.1484   -5650544.25046  -4285065.60961
 91  5  2 20 29  0.0000000  0  6G18G 2G11G19G16G 6
  22739015.7274   10976157.68846   8552839.64561
  21822740.750    -9489337.894 7  -7394276.65822
  23223416.2194   -2936820.90346  -2288423.40461
  21255495.4224    3001082.25647   2338504.91363
  23709091.406    -2592057.398 5  -1894386.61821
  23358259.8754   -5676666.75946  -4305420.77261
 91  5  2 20 29 15.0000000  0  6G18G 2G11G19G16G 6
  22748962.438    11028434.628 6   8593574.86321
  21818247.7894   -9512938.37047  -7412666.61062
  23225287.0314   -2926994.17546  -2280766.21161
  21259014.9144    3019579.97347   2352918.71163
  23710773.2664   -2583217.39845  -1887498.32061
  23353292.1094   -5702782.04646  -4325770.31461
 91  5  2 20 29 30.0000000  0  6G18G 2G11G19G16G 6
  22758923.0474   11080778.38546   8634362.13761
  21813773.359    -9536459.734 7  -7430994.92122
  23227186.6724   -2917015.36046  -2272990.51061
  21262545.7034    3038130.86147   2367373.93762
  23712485.094    -2574247.163 5  -1880508.54121
  23348326.703    -5728884.504 6  -4346109.85721
 91  5  2 20 29 45.0000000  0  6G18G 2G11G19G16G 6
  22768896.1644   11133183.92346   8675197.55961
  21809312.383    -9559906.645 7  -7449265.21722
  23229112.2584   -2906889.32446  -2265100.09561
  21266084.7734    3056730.19347   2381866.91662
  23714209.508    -2565151.459 5  -1873420.99521
  23343357.8054   -5754978.99346  -4366443.19761
 91  5  2 20 30  0.0000000  0  6G18G 2G11G19G16G 6
  22778882.1094   11185655.83046   8716084.69461
  21804865.039    -9583274.424 7  -7467473.85222
  23231069.6644   -2896611.33646  -2257091.27061
  21269634.1254    3075382.53547   2396401.19662
  23715972.359    -2555925.708 5  -1866232.12721
  23338397.336    -5781060.707 6  -4386766.58321
 91  5  2 20 30 15.0000000  0  6G18G 2G11G19G16G 6
  22788880.0784   11238197.53746   8757026.21661
  21800433.672    -9606559.340 7  -7485617.92022
  23233053.1094   -2886177.76446  -2248961.20761
  21273195.2974    3094091.78147   2410979.82262
  23717745.7894   -2546566.48145  -1858939.23761
  23333438.4614   -5807125.86246  -4407077.06061
 91  5  2 20 30 30.0000000  0  6G18G 2G11G19G16G 6
  22798892.6024   11290808.25946   8798021.51261
  21796018.320    -9629762.242 7  -7503698.08422
  23235069.6644   -2875589.15046  -2240710.34761
  21276766.1094    3112857.42447   2425602.39462
  23719554.648    -2537074.528 5  -1851542.93821
  23328481.102    -5833175.303 6  -4427375.31121
 91  5  2 20 30 45.0000000  0  6G18G 2G11G19G16G 6
  22808916.6414   11343488.05046   8839070.63861
  21791618.305    -9652882.716 7  -7521714.01222
  23237114.1564   -2864845.44346  -2232338.63061
  21280346.5084    3131679.63347   2440269.04262
  23721387.0474   -2527449.83845  -1844043.19361
  23323526.367    -5859208.651 6  -4447661.00421
 91  5  2 20 31  0.0000000  0  6G18G 2G11G19G16G 6
  22818954.5394   11396239.10146   8880175.28461
  21787234.797    -9675917.972 7  -7539663.53922
  23239188.4384   -2853943.88446  -2223843.91161
  21283940.1884    3150561.14247   2454981.90062
  23723241.078    -2517689.633 5  -1836437.86421
  23318576.445    -5885223.346 6  -4467932.17621
 91  5  2 20 31 15.0000000  0  6G18G 2G11G19G16G 6
  22829005.0474   11449055.53746   8921330.87561
  21782866.430    -9698873.847 7  -7557551.21022
  23241291.0084   -2842890.34446  -2215230.76461
  21287544.2194    3169496.06447   2469736.37862
  23725126.3444   -2507799.86745  -1828731.58061
  23313627.227    -5911225.195 6  -4488193.33121
 91  5  2 20 31 30.0000000  0  6G18G 2G11G19G16G 6
  22839068.3674   11501941.68246   8962540.79461
  21778515.0394   -9721745.61447  -7575373.34262
  23243423.5084   -2831680.16946  -2206495.56261
  21291158.8674    3188489.24947   2484536.25662
  23727033.2114   -2497776.18745  -1820920.93661
  23308683.1414   -5937209.43846  -4508440.76261
 91  5  2 20 31 45.0000000  0  6G18G 2G11G19G16G 6
  22849145.3984   11554893.49046   9003801.87561
  21774176.945    -9744536.864 7  -7593132.73422
  23245586.7274   -2820317.04246  -2197641.17861
  21294783.0314    3207537.05047   2499378.69062
  23728967.3204   -2487622.22545  -1813008.78861
  23303741.352    -5963179.776 6  -4528677.35921
 91  5  2 20 32  0.0000000  0  6G18G 2G11G19G16G 6
  22859233.3834   11607908.15246   9045111.92861
  21769854.898    -9767250.316 7  -7610831.50622
  23247778.2894   -2808803.65946  -2188669.71161
  21298417.4064    3226636.83447   2514261.62763
  23730920.3444   -2477341.14045  -1804997.58861
  23298801.0864   -5989139.01846  -4548905.30061
 91  5  2 20 32 15.0000000  0  6G18G 2G11G19G16G 6
  22869335.875    11660989.232 6   9086473.73821
  21765547.516    -9789882.052 7  -7628466.60022
  23249998.1804   -2797136.21346  -2179578.20261
  21302061.5474    3245792.49847   2529188.10862
  23732901.4224   -2466929.19945  -1796884.39661
  23293864.1174   -6015083.14646  -4569121.47261
 91  5  2 20 32 30.0000000  0  6G18G 2G11G19G16G 6
  22879447.641    11714134.997 6   9127885.94521
  21761257.258    -9812433.603 7  -7646039.21822
  23252248.7114   -2785316.16046  -2170367.77861
  21305716.773     3265002.720 7   2544157.10022
  23734909.7114   -2456387.60545  -1788670.17461
  23288929.2894   -6041013.72546  -4589327.07561
 91  5  2 20 32 45.0000000  0  6G18G 2G11G19G16G 6
  22889574.430    11767346.466 6   9169349.35421
  21756980.148    -9834903.732 7  -7663548.38322
  23254525.6334   -2773342.42646  -2161037.59261
  21309383.984     3284268.663 7   2559169.51322
  23736937.8364   -2445715.59845  -1780354.36061
  23283996.5704   -6066929.52246  -4609521.16961
 91  5  2 20 33  0.0000000  0  6G18G 2G11G19G16G 6
  22899712.578    11820625.004 6   9210865.02221
  21752720.8444   -9857290.69647  -7680992.75162
  23256833.5944   -2761213.15946  -2151586.21361
  21313063.9384    3303591.94547   2574226.60262
  23738996.922    -2434911.308 5  -1771935.44921
  23279069.7194   -6092828.66046  -4629702.27961
 91  5  2 20 33 15.0000000  0  6G18G 2G11G19G16G 6
  22909864.133    11873971.799 6   9252433.88321
  21748475.320    -9879592.842 7  -7698371.02023
  23259173.3444   -2748927.07346  -2142012.64661
  21316749.1804    3322974.17247   2589329.62962
  23741074.461    -2423973.431 5  -1763412.44621
  23274143.7974   -6118710.06546  -4649869.57961
 91  5  2 20 33 30.0000000  0  6G18G 2G11G19G16G 6
  22920028.539    11927384.617 6   9294054.18321
  21744248.750    -9901812.638 7  -7715685.12723
  23261537.3134   -2736486.70346  -2132318.85361
  21320448.484     3342412.949 7   2604476.71322
  23743183.1564   -2412904.87945  -1754787.62461
  23269219.336    -6144575.901 6  -4670024.75121
 91  5  2 20 33 45.0000000  0  6G18G 2G11G19G16G 6
  22930205.773    11980865.870 6   9335727.80821
  21740035.508    -9923947.159 7  -7732932.78023
  23263938.3364   -2723888.93246  -2122502.41861
  21324157.8674    3361911.46147   2619670.35362
  23745312.3754   -2401702.62545  -1746058.62961
  23264303.930    -6170423.065 6  -4690165.38521
 91  5  2 20 34  0.0000000  0  6G18G 2G11G19G16G 6
  22940395.219    12034410.408 6   9377450.75421
  21735838.945    -9946001.305 7  -7750117.80623
  23266362.3984   -2711138.76946  -2112567.21561
  21327881.2424    3381464.74347   2634906.66662
  23747468.195    -2390371.866 5  -1737229.48021
  23259388.117    -6196256.910 6  -4710295.62621
 91  5  2 20 34 15.0000000  0  6G18G 2G11G19G16G 6
  22950595.039    12088016.269 6   9419221.47121
  21731657.695    -9967976.471 7  -7767241.28823
  23268817.9924   -2698238.01246  -2102514.67761
  21331610.9224    3401071.05247   2650184.29862
  23749650.273    -2378914.276 5  -1728301.52921
  23254474.6954   -6222078.85346  -4730416.58761
 91  5  2 20 34 30.0000000  0  6G18G 2G11G19G16G 6
  22960809.070    12141690.600 6   9461045.54221
  21727492.805    -9989865.622 7  -7784297.74523
  23271303.2344   -2685179.46446  -2092339.18261
  21335355.406     3420737.690 7   2665508.93822
  23751852.859    -2367322.921 5  -1719269.33021
  23249560.883    -6247881.547 6  -4750522.55721
 91  5  2 20 34 45.0000000  0  6G18G 2G11G19G16G 6
  22971034.930    12195432.284 6   9502922.10421
  21723342.422   -10011669.366 7  -7801287.65323
  23273816.1804   -2671963.78346  -2082041.24861
  21339107.539     3440464.085 7   2680880.14322
  23754081.313    -2355598.237 5  -1710133.22721
  23244656.422    -6273665.793 6  -4770614.14921
 91  5  2 20 35  0.0000000  0  6G18G 2G11G19G16G 6
  22981272.953    12249232.487 6   9544844.26221
  21719209.008   -10033396.146 7  -7818217.59223
  23276359.2504   -2658599.42646  -2071627.46061
  21342870.930     3460241.859 7   2696291.38023
  23756344.359    -2343749.251 6  -1700900.29021
  23239750.617    -6299440.128 6  -4790698.00121
 91  5  2 20 35 15.0000000  0  6G18G 2G11G19G16G 6
  22991523.180    12303094.197 6   9586814.34321
  21715089.992   -10055042.752 7  -7835085.05923
  23278931.6174   -2645083.43446  -2061095.52361
  21346645.164     3480074.032 7   2711745.00722
  23758623.242    -2331773.023 6  -1691568.18421
  23234849.9304   -6325201.31346  -4810771.62561
 91  5  2 20 35 30.0000000  0  6G18G 2G11G19G16G 6
  23001784.375    12357014.072 6   9628829.74521
  21710983.328   -10076612.450 7  -7851892.59423
  23281532.8134   -2631419.14746  -2050448.04061
  21350428.773     3499957.525 7   2727238.62422
  23760922.5084   -2319672.56545  -1682139.28761
  23229951.0234   -6350952.70146  -4830837.61161
 91  5  2 20 35 45.0000000  0  6G18G 2G11G19G16G 6
  23012056.547    12410994.262 6   9670892.14621
  21706895.727   -10098102.510 7  -7868638.07723
  23284161.1174   -2617603.94446  -2039682.95161
  21354222.9614    3519894.96647   2742774.28162
  23763252.266    -2307445.647 5  -1672611.83921
  23225050.086    -6376691.608 6  -4850893.87721
 91  5  2 20 36  0.0000000  0  6G18G 2G11G19G16G 6
  23022339.781    12465032.947 6   9713000.13921
  21702820.938   -10119514.465 7  -7885322.69323
  23286818.9774   -2603639.43146  -2028801.51561
  21358029.2034    3539884.91947   2758350.85762
  23765600.445    -2295093.997 5  -1662987.20421
  23220151.250    -6402419.498 6  -4870941.56221
 91  5  2 20 36 15.0000000  0  6G18G 2G11G19G16G 6
  23032635.242    12519131.989 6   9755155.14821
  21698762.242   -10140846.438 7  -7901944.99223
  23289504.6954   -2589523.78946  -2017802.32461
  21361841.094     3559929.264 7   2773969.81622
  23767973.8444   -2282615.89345  -1653264.03261
  23215259.188    -6428134.717 6  -4890979.37421
 91  5  2 20 36 30.0000000  0  6G18G 2G11G19G16G 6
  23042939.961    12573288.565 6   9797355.00221
  21694717.633   -10162100.880 7  -7918506.87123
  23292221.0394   -2575259.35746  -2006687.17861
  21365663.5864    3580025.86947   2789629.49862
  23770374.563    -2270014.024 5  -1643444.41521
  23210371.000    -6453839.311 6  -4911008.90021
 91  5  2 20 36 45.0000000  0  6G18G 2G11G19G16G 6
  23053258.273    12627506.140 6   9839602.36721
  21690688.469   -10183274.178 7  -7935005.52523
  23294964.3754   -2560842.64146  -1995453.38261
  21369499.664     3600178.171 7   2805332.57622
  23772799.852    -2257284.568 5  -1633525.36521
  23205481.555    -6479529.884 6  -4931027.49421
 91  5  2 20 37  0.0000000  0  6G18G 2G11G19G16G 6
  23063587.9224   12681787.56846   9881899.50561
  21686674.852   -10204363.160 7  -7951438.47723
  23297735.3834   -2546270.60746  -1984098.56061
  21373349.4454    3620389.22547   2821081.43962
  23775244.8054   -2244425.14945  -1623505.06861
  23200595.9144   -6505203.35246  -4951032.75761
 91  5  2 20 37 15.0000000  0  6G18G 2G11G19G16G 6
  23073926.8284   12736128.32946   9924242.86861
  21682676.961   -10225371.824 7  -7967808.84123
  23300537.8834   -2531547.30846  -1972625.85661
  21377201.633     3640655.302 7   2836873.17422
  23777715.484    -2231439.271 5  -1613386.22821
  23195712.000    -6530863.512 6  -4971027.65621
 91  5  2 20 37 30.0000000  0  6G18G 2G11G19G16G 6
  23084281.422    12790531.507 6   9966634.86521
  21678695.742   -10246296.943 7  -7984114.11023
  23303368.313    -2516669.690 6  -1961032.91821
  21381068.867     3660979.499 7   2852710.19822
  23780207.5784   -2218324.21445  -1603166.72861
  23190831.9694   -6556507.39946  -4991009.87361
 91  5  2 20 37 45.0000000  0  6G18G 2G11G19G16G 6
  23094646.445    12844995.848 6  10009074.52821
  21674729.438   -10267139.722 7  -8000355.21623
  23306229.8834   -2501639.09746  -1949320.77461
  21384947.9614    3681360.44247   2868591.44162
  23782728.969    -2205081.687 5  -1592847.90521
  23185955.8524   -6582136.26546  -5010980.40161
 91  5  2 20 38  0.0000000  0  6G18G 2G11G19G16G 6
  23105020.781    12899519.119 6  10051560.10221
  21670779.828   -10287901.647 7  -8016533.32023
  23309117.6334   -2486457.03646  -1937490.60861
  21388838.1334    3701796.95747   2884515.98462
  23785273.9534   -2191713.17945  -1582430.91461
  23181081.3834   -6607751.50746  -5030940.29561
 91  5  2 20 38 15.0000000  0  6G18G 2G11G19G16G 6
  23115408.758    12954103.502 6  10094093.30621
  21666842.797   -10308580.419 7  -8032646.63023
  23312038.125    -2471121.288 6  -1925540.68621
  21392737.5554    3722291.23747   2900485.54362
  23787842.5864   -2178216.50545  -1571914.04261
  23176210.7344   -6633350.92046  -5050887.86061
 91  5  2 20 38 30.0000000  0  6G18G 2G11G19G16G 6
  23125807.391    13008755.360 6  10136679.08721
  21662924.438   -10329169.446 7  -8048690.00423
  23314985.4774   -2455625.30846  -1913465.89161
  21396649.227     3742849.883 7   2916505.25422
  23790439.3204   -2164585.48345  -1561292.48961
  23171344.2344   -6658927.82346  -5070817.88761
 91  5  2 20 38 45.0000000  0  6G18G 2G11G19G16G 6
  23136219.1804   13063465.54046  10179310.30861
  21659022.914   -10349677.614 7  -8064670.37623
  23317961.2194   -2439978.18146  -1901273.33261
  21400573.016     3763464.173 7   2932568.32522
  23793054.219    -2150828.919 5  -1550573.11021
  23166478.4224   -6684491.17546  -5090737.35461
 91  5  2 20 39  0.0000000  0  6G18G 2G11G19G16G 6
  23146642.3524   13118237.53246  10221989.69461
  21655136.773   -10370101.112 7  -8080584.77123
  23320969.4614   -2424176.17946  -1888960.09561
  21404509.766     3784137.938 7   2948677.73922
  23795698.3754   -2136943.40745  -1539753.27061
  23161616.6334   -6710037.18246  -5110643.29961
 91  5  2 20 39 15.0000000  0  6G18G 2G11G19G16G 6
  23157075.6334   13173071.07246  10264717.03561
  21651265.594   -10390440.211 7  -8096433.39923
  23324007.2344   -2408219.54846  -1876526.36161
  21408451.695     3804871.059 7   2964833.39922
  23798366.6644   -2122929.14945  -1528833.09861
  23156762.133    -6735566.023 6  -5130535.87721
 91  5  2 20 39 30.0000000  0  6G18G 2G11G19G16G 6
  23167523.3364   13227971.36346  10307496.38661
  21647412.930   -10410689.458 7  -8112212.01223
  23327072.7814   -2392102.90646  -1863967.95161
  21412409.680     3825668.959 7   2981039.54322
  23801055.930    -2108781.204 5  -1517808.75121
  23151904.719    -6761072.251 6  -5150410.84121
 91  5  2 20 39 45.0000000  0  6G18G 2G11G19G16G 6
  23177983.1094   13282931.54446  10350322.41361
  21643574.789   -10430855.025 7  -8127925.42523
  23330169.3134   -2375832.68746  -1851289.86661
  21416379.5394    3846525.19347   2997291.14362
  23803772.859    -2094505.689 5  -1506685.00121
  23147055.805    -6786562.150 6  -5170273.08121
 91  5  2 20 40  0.0000000  0  6G18G 2G11G19G16G 6
  23188453.3134   13337951.58746  10393195.08561
  21639753.500   -10450936.819 7  -8143573.55523
  23333294.1954   -2359408.77146  -1838492.01761
  21420359.383     3867440.010 7   3013588.39022
  23806513.7274   -2080102.68945  -1495461.91961
  23142206.820    -6812035.573 6  -5190122.47421
 91  5  2 20 40 15.0000000  0  6G18G 2G11G19G16G 6
  23198934.4774   13393030.28246  10436113.45861
  21635947.945   -10470935.705 7  -8159157.08523
  23336448.492    -2342832.175 6  -1825575.20121
  21424350.2424    3888412.45347   3029930.54462
  23809279.008    -2065573.457 5  -1484140.46221
  23137364.4694   -6837493.49146  -5209959.78461
 91  5  2 20 40 30.0000000  0  6G18G 2G11G19G16G 6
  23209425.7814   13448169.97646  10479079.36561
  21632158.695   -10490848.981 7  -8174673.90723
  23339633.234    -2326100.261 6  -1812537.36421
  21428350.7344    3909445.41947   3046319.86162
  23812072.438    -2050915.223 5  -1472718.49121
  23132521.063    -6862933.142 6  -5229782.87221
 91  5  2 20 40 45.0000000  0  6G18G 2G11G19G16G 6
  23219930.9924   13503366.70646  10522089.71261
  21628383.500   -10510680.576 7  -8190127.07623
  23342848.2424   -2309217.12746  -1799381.68361
  21432364.203     3930534.848 7   3062753.17123
  23814878.8444   -2036132.40145  -1461199.44561
  23127683.430    -6888358.568 6  -5249594.86821
 91  5  2 20 41  0.0000000  0  6G18G 2G11G19G16G 6
  23230444.625    13558620.707 6  10565144.67921
  21624626.953   -10530430.134 7  -8205516.32523
  23346087.867    -2292182.291 6  -1786107.79921
  21436390.7424    3951681.39847   3079230.99263
  23817722.609    -2021224.620 5  -1449583.00821
  23122850.375    -6913769.224 6  -5269395.35721
 91  5  2 20 41 15.0000000  0  6G18G 2G11G19G16G 6
  23240970.8914   13613931.41246  10608243.83761
  21620883.984   -10550097.929 7  -8220841.85723
  23349359.180    -2274996.299 6  -1772716.13221
  21440423.5474    3972884.83147   3095753.13863
  23820580.078    -2006192.410 5  -1437869.61621
  23118014.9064   -6939165.31146  -5289184.48461
 91  5  2 20 41 30.0000000  0  6G18G 2G11G19G16G 6
  23251507.1094   13669299.48746  10651387.69961
  21617157.281   -10569682.705 7  -8236102.70623
  23352659.0394   -2257657.87446  -1759205.67861
  21444470.8524    3994146.38847   3112320.57463
  23823461.7034   -1991034.73245  -1426058.46861
  23113184.0314   -6964545.70446  -5308961.38461
 91  5  2 20 41 45.0000000  0  6G18G 2G11G19G16G 6
  23262055.5394   13724724.33446  10694575.79561
  21613445.508   -10589184.769 7  -8251299.10123
  23355985.750    -2240167.542 6  -1745576.85921
  21448526.430     4015465.688 7   3128933.00222
  23826368.5314   -1975751.96845  -1414149.85161
  23108359.195    -6989910.785 6  -5328726.36721
 91  5  2 20 42  0.0000000  0  6G18G 2G11G19G16G 6
  23272611.0864   13780201.57246  10737804.71761
  21609748.742   -10608608.351 7  -8266434.34323
  23359343.6254   -2222529.71746  -1731833.11261
  21452593.953     4036838.577 7   3145587.18922
  23829297.633    -1960348.827 5  -1402147.42621
  23103534.852    -7015264.604 6  -5348482.56021
 91  5  2 20 42 15.0000000  0  6G18G 2G11G19G16G 6
  23283176.977    13835732.529 6  10781075.48921
  21606068.078   -10627952.011 7  -8281507.30623
  23362727.7584   -2204742.99146  -1717973.33561
  21456669.625     4058266.630 7   3162284.36022
  23832257.398    -1944823.898 5  -1390050.10321
  23098713.6414   -7040605.87446  -5368228.98561
 91  5  2 20 42 30.0000000  0  6G18G 2G11G19G16G 6
  23293753.8284   13891316.98546  10824387.95761
  21602403.094   -10647215.682 7  -8296517.94123
  23366140.3204   -2186807.35546  -1703997.52561
  21460760.2344    4079750.01147   3179024.64462
  23835232.6484   -1929177.32345  -1377857.99561
  23093892.992    -7065934.501 6  -5387965.55621
 91  5  2 20 42 45.0000000  0  6G18G 2G11G19G16G 6
  23304340.5084   13946944.73646  10867734.16161
  21598750.289   -10666409.116 7  -8311473.84523
  23369578.578    -2168732.723 6  -1689913.40921
  21464857.867     4101278.909 7   3195800.39522
  23838235.680    -1913419.124 5  -1365578.89521
  23089073.0634   -7091260.16546  -5407699.81961
 91  5  2 20 43  0.0000000  0  6G18G 2G11G19G16G 6
  23314935.0864   14002610.06846  10911109.64161
  21595110.273   -10685537.629 7  -8326379.16423
  23373045.609    -2150524.676 6  -1675725.33721
  21468960.4304    4122847.87547   3212607.37662
  23841254.750    -1897554.840 5  -1353217.14521
  23084252.586    -7116588.330 6  -5427436.03221
 91  5  2 20 43 15.0000000  0  6G18G 2G11G19G16G 6
  23325536.6414   14058328.56346  10954526.55461
  21591484.813   -10704585.555 7  -8341221.68423
  23376538.4614   -2132167.41346  -1661420.98061
  21473074.9224    4144472.69847   3229457.87862
  23844295.422    -1881569.246 5  -1340760.86121
  23079437.273    -7141903.231 6  -5447161.90021
 91  5  2 20 43 30.0000000  0  6G18G 2G11G19G16G 6
  23336149.734    14114100.757 6  10997985.30921
  21587876.273   -10723552.059 7  -8356000.76323
  23380059.9614   -2113660.31246  -1646999.87061
  21477200.727     4166154.292 7   3246352.61322
  23847356.7274   -1865461.41245  -1328209.33461
  23074622.688    -7167204.061 6  -5466876.80921
 91  5  2 20 43 45.0010000  0  6G18G 2G11G19G16G 6
  23346772.7784   14169932.26346  11041490.28261
  21584281.880   -10742436.149 7  -8370715.61923
  23383611.263    -2095000.049 6  -1632459.41121
  21481337.138     4187896.442 7   3263294.53522
  23850448.8024   -1849228.40945  -1315560.27261
  23069809.489    -7192490.128 6  -5486580.22221
 91  5  2 20 44  0.0010000  0  6G18G 2G11G19G16G 6
  23357407.146    14225813.840 6  11085034.25921
  21580704.458   -10761237.292 7  -8385365.84323
  23387190.7784   -2076191.09546  -1617803.10361
  21485486.255     4209694.185 7   3280279.77822
  23853559.3564   -1832874.40145  -1302816.91861
  23064999.2634   -7217760.06846  -5506271.06161
 91  5  2 20 44 15.0010000  0  6G18G 2G11G19G16G 6
  23368050.271    14281747.710 6  11128618.98421
  21577142.856   -10779957.652 7  -8399953.12023
  23390798.0674   -2057233.30146  -1603030.80761
  21489645.396     4231548.169 7   3297308.84022
  23856697.7004   -1816399.46745  -1289979.35561
  23060192.8884   -7243016.49546  -5525951.36661
 91  5  2 20 44 30.0010000  0  6G18G 2G11G19G16G 6
  23378704.169    14337735.054 6  11172245.38621
  21573594.974   -10798595.550 7  -8414476.13823
  23394432.888    -2038125.184 6  -1588141.37721
  21493815.497     4253460.183 7   3314383.12122
  23859850.692    -1799801.882 5  -1277046.18921
  23055392.513    -7268257.756 6  -5545619.86021
 91  5  2 20 44 45.0010000  0  6G18G 2G11G19G16G 6
  23389371.4584   14393777.47546  11215914.70161
  21570064.950   -10817149.136 7  -8428933.45923
  23398097.7714   -2018865.06246  -1573133.50261
  21497996.6924    4275431.89247   3331503.92462
  23863032.7634   -1783080.38545  -1264016.49461
  23050591.474    -7293482.150 6  -5565275.21521
 91  5  2 20 45  0.0010000  0  6G18G 2G11G19G16G 6
  23400046.653    14449881.730 6  11259632.20421
  21566550.911   -10835611.475 7  -8443319.68223
  23401795.7864   -1999446.01546  -1558001.78061
  21502189.153     4297470.381 7   3348676.75922
  23866246.0754   -1766228.09945  -1250884.86561
  23045793.021    -7318682.611 6  -5584911.91321
 91  5  2 20 45 15.0010000  0  6G18G 2G11G19G16G 6
  23410733.622    14506042.105 6  11303393.42821
  21563054.716   -10853988.454 7  -8457639.38723
  23405517.6534   -1979873.93346  -1542750.81261
  21506395.1614    4319569.97347   3365897.21262
  23869476.3334   -1749251.14945  -1237656.10361
  23041004.099    -7343864.833 6  -5604534.40821
 91  5  2 20 45 30.0010000  0  6G18G 2G11G19G16G 6
  23421430.528    14562258.071 6  11347197.96421
  21559573.794   -10872279.949 7  -8471892.48423
  23409270.6464   -1960148.91446  -1527380.68361
  21510613.8174    4341730.83747   3383165.40762
  23872727.255    -1732149.717 5  -1224330.34121
  23036214.403    -7369028.752 6  -5624142.63821
 91  5  2 20 45 45.0010000  0  6G18G 2G11G19G16G 6
  23432139.036    14618534.774 6  11391049.83221
  21556109.013   -10890480.323 7  -8486074.56923
  23413056.513    -1940265.435 6  -1511887.07921
  21514841.2864    4363958.57347   3400485.70962
  23876007.591    -1714918.317 5  -1210903.30121
  23031431.083    -7394168.826 6  -5643732.28321
 91  5  2 20 46  0.0010000  0  6G18G 2G11G19G16G 6
  23442860.575    14674872.111 6  11434948.95521
  21552664.833   -10908589.587 7  -8500185.66623
  23416869.091    -1920223.575 6  -1496270.06521
  21519084.825     4386253.101 7   3417858.05422
  23879308.0364   -1697557.28545  -1197375.24961
  23026648.130    -7419284.997 6  -5663303.31221
 91  5  2 20 46 15.0010000  0  6G18G 2G11G19G16G 6
  23453592.849    14731269.288 6  11478894.69721
  21549234.364   -10926608.511 7  -8514226.36623
  23420712.185    -1900024.267 6  -1480530.36021
  21523339.849     4408613.813 7   3435281.97322
  23882638.3884   -1680067.59845  -1183746.95361
  23021878.903    -7444377.936 6  -5682856.22721
 91  5  2 20 46 30.0010000  0  6G18G 2G11G19G16G 6
  23464336.067    14787720.997 6  11522882.93021
  21545822.255   -10944541.802 7  -8528200.33923
  23424586.7714   -1879672.38446  -1464671.76061
  21527606.872     4431036.096 7   3452753.86322
  23885991.2394   -1662453.97345  -1170022.07261
  23017104.372    -7469452.373 6  -5702394.72421
 91  5  2 20 46 45.0010000  0  6G18G 2G11G19G16G 6
  23475089.380    14844226.692 6  11566913.23821
  21542426.708   -10962389.824 7  -8542107.87723
  23428487.4274   -1859168.45546  -1448694.68661
  21531886.052     4453519.560 7   3470273.42922
  23889367.396    -1644717.005 5  -1156201.07721
  23012335.200    -7494508.722 6  -5721919.13621
 91  5  2 20 47  0.0010000  0  6G18G 2G11G19G16G 6
  23485851.997    14900787.903 6  11610986.79521
  21539045.442   -10980151.049 7  -8555947.77223
  23432418.0444   -1838510.78446  -1432597.80961
  21536180.114     4476065.960 7   3487842.04022
  23892763.1304   -1626855.67545  -1142283.19161
  23007572.419    -7519545.193 6  -5741428.05621
 91  5  2 20 47 15.0010000  0  6G18G 2G11G19G16G 6
  23496625.161    14957396.471 6  11655097.26621
  21535681.778   -10997833.039 7  -8569725.92523
  23436378.2004   -1817707.25346  -1416387.26561
  21540477.114     4498667.568 7   3505453.66522
  23896184.677    -1608877.641 5  -1128274.35821
  23002812.388    -7544569.530 6  -5760927.52621
 91  5  2 20 47 30.0010000  0  6G18G 2G11G19G16G 6
  23507407.0834   15014056.86346  11699248.10261
  21532333.427   -11015431.196 7  -8583438.76023
  23440365.2634   -1796753.40746  -1400059.59761
  21544788.231     4521329.013 7   3523111.91922
  23899631.044    -1590778.513 5  -1114171.16721
  22998053.091    -7569577.092 6  -5780413.90921
 91  5  2 20 47 45.0010000  0  6G18G 2G11G19G16G 6
  23518199.661    15070765.686 6  11743436.68521
  21528999.864   -11032948.644 7  -8597088.70123
  23444380.4664   -1775652.48146  -1383617.32961
  21549112.474     4544047.435 7   3540814.57322
  23903097.2864   -1572561.21945  -1099975.88661
  22993294.646    -7594570.982 6  -5799889.65021
 91  5  2 20 48  0.0010000  0  6G18G 2G11G19G16G 6
  23528998.286    15127521.291 6  11787661.71421
  21525681.653   -11050386.940 7  -8610676.97023
  23448424.1224   -1754406.21046  -1367061.79761
  21553445.231     4566821.253 7   3558560.39122
  23906581.302    -1554227.773 5  -1085690.13021
  22988539.817    -7619552.690 6  -5819355.90621
 91  5  2 20 48 15.0010000  0  6G18G 2G11G19G16G 6
  23539807.2164   15184320.85946  11831920.99561
  21522377.114   -11067748.491 7  -8624205.43423
  23452495.091    -1733017.086 6  -1350394.96021
  21557789.247     4589647.936 7   3576347.40322
  23910092.106    -1535780.930 5  -1071315.97621
  22983788.872    -7644524.579 6  -5838814.49621
 91  5  2 20 48 30.0010000  0  6G18G 2G11G19G16G 6
  23550624.5284   15241167.28546  11876216.79061
  21519089.044   -11085030.126 7  -8637671.63023
  23456591.4194   -1711482.22146  -1333614.55861
  21562147.591     4612530.681 7   3594178.09922
  23913627.599    -1517217.887 5  -1056851.30121
  22979039.4034   -7669483.62446  -5858263.08261
 91  5  2 20 48 45.0010000  0  6G18G 2G11G19G16G 6
  23561450.6774   15298059.76646  11920548.46861
  21515815.013   -11102232.426 7  -8651076.00323
  23460715.9114   -1689802.19946  -1316721.03861
  21566510.716     4635469.117 7   3612052.19122
  23917181.114    -1498539.335 5  -1042296.59621
  22974292.302    -7694430.180 6  -5877701.93721
 91  5  2 20 49  0.0010000  0  6G18G 2G11G19G16G 6
  23572285.7634   15354996.74546  11964914.83261
  21512555.903   -11119356.361 7  -8664419.31023
  23464869.349    -1667978.129 6  -1299715.28621
  21570883.286     4658462.168 7   3629968.83822
  23920751.4584   -1479746.29145  -1027652.70161
  22969545.5604   -7719365.39846  -5897131.96461
 91  5  2 20 49 15.0010000  0  6G18G 2G11G19G16G 6
  23583128.5834   15411973.79046  12009312.40461
  21509312.896   -11136406.379 7  -8677705.02623
  23469051.0754   -1646014.55346  -1282600.82461
  21575268.974     4681505.682 7   3647924.80922
  23924352.200    -1460843.351 5  -1012923.16621
  22964802.7004   -7744293.39346  -5916556.34761
 91  5  2 20 49 30.0010000  0  6G18G 2G11G19G16G 6
  23593979.3414   15468997.56146  12053746.39361
  21506081.989   -11153375.556 7  -8690927.74523
  23473256.685    -1623904.660 6  -1265372.34821
  21579669.263     4704606.429 7   3665925.37322
  23927974.8024   -1441824.15845   -998103.04261
  22960063.646    -7769207.332 6  -5935969.78621
 91  5  2 20 49 45.0010000  0  6G18G 2G11G19G16G 6
  23604839.560    15526063.197 6  12098212.99221
  21502868.169   -11170268.355 7  -8704090.94923
  23477492.669    -1601653.282 6  -1248033.63021
  21584070.919     4727759.876 7   3683967.00122
  23931616.1924   -1422693.33745   -983195.94361
  22955325.208    -7794111.864 6  -5955375.89421
 91  5  2 20 50  0.0010000  0  6G18G 2G11G19G16G 6
  23615707.028    15583177.199 6  12142717.30121
  21499669.575   -11187078.219 7  -8717189.53123
  23481753.4664   -1579253.70846  -1230579.42461
  21588487.825     4750973.015 7   3702055.14322
  23935282.075    -1403444.533 5   -968196.88221
  22950587.372    -7819000.120 6  -5974769.32621
 91  5  2 20 50 15.0010000  0  6G18G 2G11G19G16G 6
  23626584.5284   15640335.01145  12187255.71761
  21496485.919   -11203809.160 7  -8730226.61023
  23486044.567    -1556710.219 6  -1213013.08021
  21592916.231     4774241.513 7   3720186.42422
  23938963.9584   -1384081.79345   -953109.06861
  22945852.630    -7843876.237 6  -5994153.29421
 91  5  2 20 50 30.0010000  0  6G18G 2G11G19G16G 6
  23637471.0754   15697539.80945  12231830.77461
  21493318.208   -11220457.989 7  -8743199.70623
  23490361.7944   -1534019.87246  -1195332.29861
  21597356.396     4797568.796 7   3738363.51022
  23942673.0444   -1364602.30445   -937930.27461
  22941123.388    -7868736.965 6  -6013525.27221
 91  5  2 20 50 45.0010000  0  6G18G 2G11G19G16G 6
  23648364.005    15754785.852 5  12276437.94321
  21490164.075   -11237030.108 7  -8756113.03323
  23494707.403    -1511188.094 6  -1177541.31421
  21601804.950     4820949.539 7   3756582.25622
  23946398.278    -1345011.709 5   -922664.88821
  22936394.325    -7893587.581 6  -6032889.36921
 91  5  2 20 51  0.0010000  0  6G18G 2G11G19G16G 6
  23659265.817    15812074.034 5  12321077.96121
  21487024.864   -11253524.410 7  -8768965.71823
  23499077.6304   -1488213.91946  -1159639.37361
  21606264.888     4844384.875 7   3774843.54422
  23950145.294    -1325308.983 5   -907312.13921
  22931665.411    -7918427.029 6  -6052244.75621
 91  5  2 20 51 15.0010000  0  6G18G 2G11G19G16G 6
  23670173.849    15869406.631 5  12365752.58521
  21483901.817   -11269938.244 7  -8781755.70423
  23503476.091    -1465094.850 6  -1141624.52921
  21610736.2314    4867877.64247   3793149.58362
  23953916.4584   -1305491.46645   -891869.94161
  22926944.435    -7943252.480 6  -6071589.24521
 91  5  2 20 51 30.0010000  0  6G18G 2G11G19G16G 6
  23681093.7864   15926786.88445  12410464.34561
  21480793.716   -11286268.167 7  -8794480.30023
  23507905.2714   -1441827.57846  -1123494.19761
  21615221.317     4891431.292 6   3811503.06322
  23957716.356    -1285556.263 5   -876336.06121
  22922221.927    -7968060.570 6  -6090920.20221
 91  5  2 20 51 45.0010000  0  6G18G 2G11G19G16G 6
  23692021.458    15984209.299 5  12455208.95521
  21477701.786   -11302519.573 7  -8807143.71823
  23512360.263    -1418417.644 6  -1105252.71021
  21619710.294     4915040.404 7   3829899.75922
  23961523.075    -1265509.044 5   -860714.87921
  22917503.583    -7992856.668 6  -6110241.81421
 91  5  2 20 52  0.0010000  0  6G18G 2G11G19G16G 6
  23702958.0604   16041676.63745  12499988.59061
  21474625.0134  -11318689.08347  -8819743.32263
  23516844.130    -1394861.975 6
  21624213.146     4938708.197 7
  23965360.513    -1245346.998 5   -845004.24421
  22912787.911    -8017637.382 6  -6129551.44021
 91  5  2 20 52 15.0010000  0  6G18G 2G11G19G16G 6
  23713901.7244   16099187.88745  12544802.41861
  21471562.747   -11334777.569 7  -8832279.79223
  23521354.0754   -1371161.42646
  21628727.974     4962434.058 7
  23969221.161    -1225071.160 5   -829204.91621
  22908076.052    -8042403.507 6  -6148849.69621
 91  5  2 20 52 30.0010000  0  6G18G 2G11G19G16G 6
  23724853.1384   16156741.91145  12589649.57961
  21468517.216   -11350786.132 7  -8844753.98223
  23525889.8724   -1347317.31846  -1049849.89961
  21633253.997     4986217.097 7   3885362.07122
  23973105.7474   -1204682.41545   -813317.61561
  22903365.989    -8067156.048 6  -6168137.37121
 91  5  2 20 52 45.0010000  0  6G18G 2G11G19G16G 6
  23735813.0994   16214335.23745  12634527.36161
  21465484.927   -11366717.518 7  -8857168.03423
  23530454.5134   -1323332.64046  -1031160.54561
  21637790.263     5010054.365 7   3903936.55222
  23977001.6614   -1184183.79845   -797344.69561
  22898655.599    -8091897.809 6  -6187416.64121
 91  5  2 20 53  0.0010000  0  6G18G 2G11G19G16G 6
  23746779.6614   16271969.81445  12679437.29161
  21462468.724   -11382569.913 7  -8869520.53923
  23535044.2394   -1299205.54646  -1012360.22661
  21642338.614     5033947.886 7   3922554.86422
  23980926.2634   -1163573.90145   -781285.08061
  22893950.239    -8116626.776 6  -6206685.95121
 91  5  2 20 53 15.0010000  0  6G18G 2G11G19G16G 6
  23757756.1614   16329640.55245  12724375.39461
  21459467.036   -11398347.880 7  -8881815.04323
  23539660.333    -1274940.737 6   -993452.59721
  21646894.442     5057893.055 7   3941213.42422
  23984866.7084   -1142857.37745   -765142.37161
  22889246.513    -8141347.555 6  -6225948.86621
 91  5  2 20 53 30.0010000  0  6G18G 2G11G19G16G 6
  23768735.981    16387347.480 5  12769341.69921
  21456477.755   -11414051.498 7  -8894051.61123
  23544307.458    -1250538.454 6   -974437.85821
  21651461.216     5081889.953 7   3959912.29322
  23988826.349    -1122034.456 5   -748916.76021
  22884544.575    -8166060.059 6  -6245205.34121
 91  5  2 20 53 45.0010000  0  6G18G 2G11G19G16G 6
  23779724.575    16445090.867 5  12814336.41421
  21453503.450   -11429680.103 7  -8906229.72623
  23548976.7554   -1225998.28346   -955315.66261
  21656035.966     5105939.151 7   3978651.91522
  23992812.356    -1101105.093 5   -732608.18321
  22879842.622    -8190763.742 6  -6264454.94621
 91  5  2 20 54  0.0010000  0  6G18G 2G11G19G16G 6
  23790720.161    16502871.525 5  12859360.16221
  21450545.091   -11445232.542 7  -8918348.49323
  23553671.8964   -1201319.25246   -936085.25861
  21660624.599     5130041.994 6   3997433.33522
  23996816.0754   -1080068.36545   -716215.95161
  22875144.825    -8215457.397 6  -6283696.73821
 91  5  2 20 54 15.0010000  0  6G18G 2G11G19G16G 6
  23801723.216    16560690.858 5  12904414.04921
  21447599.153   -11460707.134 7  -8930406.60023
  23558397.200    -1176499.639 6   -916745.31421
  21665220.122     5154200.236 6   4016257.92722
  24000838.989    -1058922.674 5   -699738.83321
  22870448.122    -8240139.196 6  -6302929.28621
 91  5  2 20 54 30.0010000  0  6G18G 2G11G19G16G 6
  23812733.880    16618549.655 5  12949498.69121
  21444669.661   -11476103.002 7  -8942403.36523
  23563144.419    -1151538.745 6   -897295.28521
  21669829.966     5178414.856 6   4035126.44822
  24004887.1854   -1037667.12445   -683176.10261
  22865753.106    -8264808.163 6  -6322151.83421
 91  5  2 20 54 45.0010000  0  6G18G 2G11G19G16G 6
  23823751.146    16676445.161 5  12994611.93921
  21441754.747   -11491422.393 7  -8954340.53823
  23567923.1144   -1126439.04146   -877737.08961
  21674445.349     5202683.572 6   4054037.12222
  24008951.3024   -1016304.36345   -666529.83461
  22861060.856    -8289466.561 6  -6341366.15421
 91  5  2 20 55  0.0010000  0  6G18G 2G11G19G16G 6
  23834774.5364   16734378.88145  13039754.95561
  21438853.622   -11506663.664 7  -8966216.83023
  23572724.3414   -1101199.21846   -858069.70661
  21679076.356     5227008.037 6   4072991.23122
  24013035.325     -994833.111 5   -649799.01321
  22856370.286    -8314112.871 6  -6360571.04921
 91  5  2 20 55 15.0010000  0  6G18G 2G11G19G16G 6
  23845807.6774   16792348.97446  13084926.31761
  21435967.692   -11521828.439 7  -8978033.52823
  23577553.528    -1075821.009 6   -838294.50221
  21683716.216     5251386.759 6   4091987.62422
  24017143.177     -973255.232 5   -632985.12421
  22851682.864    -8338748.512 6  -6379767.62621
 91  5  2 20 55 30.0010000  0  6G18G 2G11G19G16G 6
  23856846.661    16850360.663 6  13130130.08821
  21433098.724   -11536911.191 7  -8989786.30723
  23582411.5364   -1050298.98546   -818407.21361
  21688364.896     5275825.292 6   4111030.62222
  24021267.5364    -951565.23545   -616083.87661
  22846995.841    -8363367.880 6  -6398951.52021
 91  5  2 20 55 45.0010000  0  6G18G 2G11G19G16G 6
  23867893.794    16908408.455 6  13175361.99321
  21430241.997   -11551917.093 7  -9001479.20023
  23587292.6854   -1024638.58546   -798412.10561
  21693026.3104    5300318.41746   4130116.16362
  24025412.6144    -929768.70945   -599099.62061
  22842314.755    -8387976.191 6  -6418126.81121
 91  5  2 20 56  0.0010000  0  6G18G 2G11G19G16G 6
  23878945.9424   16966493.59946  13220623.00861
  21427402.294   -11566844.883 7  -9013111.23023
  23592202.216     -998838.661 6   -778308.28521
  21697698.169     5324867.540 6   4149245.34122
  24029582.224     -907864.817 5   -582031.68821
  22837633.833    -8412572.102 6  -6437292.43521
 91  5  2 20 56 15.0010000  0  6G18G 2G11G19G16G 6
  23890005.677    17024611.403 6  13265909.46421
  21424575.661   -11581698.721 7  -9024685.63223
  23597138.583     -972903.590 6   -758099.16321
  21702380.028     5349468.496 6   4168414.90622
  24033772.403     -885857.861 5   -564883.42421
  22832954.3724   -8437159.87946  -6456451.71261
 91  5  2 20 56 30.0010000  0  6G18G 2G11G19G16G 6
  23901071.435    17082760.774 6  13311220.52121
  21421762.685   -11596479.416 7  -9036203.04023
  23602099.333     -946834.203 6   -737785.37121
  21707071.0134    5374120.78046   4187624.46362
  24037978.3804    -863748.62545   -547655.49461
  22828277.872    -8461739.999 6  -6475605.03621
 91  5  2 20 56 45.0010000  0  6G18G 2G11G19G16G 6
  23912142.7314   17140943.09946  13356557.23961
  21418963.778   -11611185.406 7  -9047662.23523
  23607087.177     -920629.093 6   -717365.82021
  21711770.692     5398826.010 6   4206875.27722
  24042208.5604    -841535.87545   -530346.88661
  22823602.810    -8486310.777 6  -6494751.08221
 91  5  2 20 57  0.0010000  0  6G18G 2G11G19G16G 6
  23923222.7164   17199160.71146  13401921.47761
  21416180.302   -11625814.322 7  -9059061.37623
  23612098.099     -894286.022 6   -696838.76821
  21716483.739     5423586.522 6   4226169.16222
  24046449.8564    -819217.28345   -512955.82161
  22818926.896    -8510869.783 6  -6513887.94621
 91  5  2 20 57 15.0010000  0  6G18G 2G11G19G16G 6
  23934307.0214   17257413.71146  13447313.26561
  21413410.458   -11640365.538 7  -9070399.97223
  23617137.364     -867804.586 6   -676203.89321
  21721206.067     5448402.904 6   4245506.58722
  24050720.661     -796792.776 5   -495482.21921
  22814257.6224   -8535416.49446  -6533015.22861
 91  5  2 20 57 30.0010000  0  6G18G 2G11G19G16G 6
  23945399.575    17315703.276 6  13492733.55421
  21410658.419   -11654837.874 7  -9081677.09823
  23622204.075     -841183.765 6   -655460.41621
  21725940.013     5473276.425 6   4264888.53722
  24055009.5214    -774261.50445   -477925.42361
  22809589.599    -8559949.654 6  -6552131.95521
 91  5  2 20 57 45.0010000  0  6G18G 2G11G19G16G 6
  23956497.552    17374027.536 6  13538180.87721
  21407917.825   -11669233.000 7  -9092894.06623
  23627294.911     -814425.435 6   -634609.77921
  21730683.435     5498205.498 6   4284313.77522
  24059317.552     -751625.372 5   -460286.90721
  22804922.5604   -8584470.87346  -6571239.37361
 91  5  2 20 58  0.0010000  0  6G18G 2G11G19G16G 6
  23967603.0914   17432387.65346  13583656.14861
  21405193.927   -11683549.068 7  -9104049.42823
  23632414.880     -787527.817 6   -613650.61821
  21735440.177     5523192.090 6   4303783.82622
  24063643.0914    -728882.38445   -442565.12661
  22800260.208    -8608978.006 6  -6590335.81621
 91  5  2 20 58 15.0010000  0  6G18G 2G11G19G16G 6
  23978716.7944   17490786.23946  13629161.38761
  21402486.161   -11697783.529 7  -9115141.20223
  23637560.239     -760488.614 6   -592581.12021
  21740204.185     5548238.835 7   4323300.75422
  24067993.0604    -706030.44345   -424758.46861
  22795597.427    -8633468.588 6  -6609419.36021
 91  5  2 20 58 30.0010000  0  6G18G 2G11G19G16G 6
  23989839.3804   17549223.46646  13674696.73261
  21399791.411   -11711935.624 7  -9126168.79623
  23642731.489     -733307.414 6   -571400.98621
  21744982.958     5573346.299 6   4342864.99522
  24072361.9354    -683069.34645   -406866.75161
  22790942.192    -8657941.987 6  -6628489.52221
 91  5  2 20 58 45.0010000  0  6G18G 2G11G19G16G 6
  24000965.903    17607698.473 5  13720261.52521
  21397114.536   -11726006.186 7  -9137132.85423
  23647932.646     -705985.079 6   -550110.86121
  21749770.325     5598514.133 6   4362476.28322
  24076748.4034    -659999.68845   -388890.43661
  22786288.1064   -8682398.78246  -6647546.73561
 91  5  2 20 59  0.0010000  0  6G18G 2G11G19G16G 6
  24012099.083    17666214.233 5  13765858.07021
  21394453.669   -11739992.057 7  -9148030.91823
  23653158.1534    -678518.49346   -528708.33661
  21754573.013     5623745.452 6   4382137.03122
  24081164.7784    -636818.63145   -370827.31261
  22781636.966    -8706835.654 6  -6666588.43921
 91  5  2 20 59 15.0010000  0  6G18G 2G11G19G16G 6
  24023243.1694   17724766.87145  13811483.34661
  21391807.130   -11753896.581 7  -9158865.59423
  23658413.8644    -650911.46246   -507196.38161
  21759383.544     5649036.930 6   4401844.66022
  24085595.122     -613530.246 5   -352680.55921
  22776989.841    -8731256.038 6  -6685617.27821
 91  5  2 20 59 30.0010000  0  6G18G 2G11G19G16G 6
  24034391.3414   17783354.06745  13857135.55261
  21389175.489   -11767721.908 7  -9169638.55923
  23663690.778     -623166.249 6   -485576.75721
  21764213.403     5674386.324 6   4421597.41822
  24090044.419     -590136.543 5   -334451.75521
  22772346.255    -8755662.113 6  -6704634.98221
 91  5  2 20 59 45.0010000  0  6G18G 2G11G19G16G 6
  24045547.7084   17841980.90845  13902818.65161
  21386561.294   -11781462.935 7  -9180345.83623
  23668999.7394    -595277.81346   -463845.53361
  21769043.747     5699798.813 6   4441399.34022
  24094514.3564    -566632.87345   -316137.24061
  22767705.075    -8780048.505 6  -6723637.33821
 91  5  2 21  0  0.0010000  0  6G18G 2G11G19G16G 6
  24056711.4974   17900644.95345  13948530.74661
  21383961.997   -11795121.861 7  -9190989.13923
  23674332.200     -567248.407 6   -442004.44421
  21773891.771     5725272.454 6   4461248.91722
  24099011.372     -543021.339 5   -297738.70021
  22763068.208    -8804417.363 6  -6742626.04121
 91  5  2 21  0 15.0010000  0  6G18G 2G11G19G16G 6
  24067881.2944   17959341.89045  13994268.46161
  21381377.653   -11808702.729 7  -9201571.61723
  23679691.2784    -539082.33046   -420056.86361
  21778751.677     5750803.412 6   4481143.14922
  24103527.013     -519306.559 5   -279259.69421
  22758434.122    -8828772.659 6  -6761604.17421
 91  5  2 21  0 30.0010000  0  6G18G 2G11G19G16G 6
  24079055.974    18018068.229 5  14040029.10121
  21378808.489   -11822208.602 7  -9212095.66523
  23685078.036     -510782.805 6   -398005.30821
  21783619.388     5776388.459 7   4501079.53322
  24108056.2944    -495491.64145   -260702.65061
  22753800.841    -8853117.296 6  -6780574.00021
 91  5  2 21  0 45.0010000  0  6G18G 2G11G19G16G 6
  24090238.7244   18076828.57445  14085816.24061
  21376253.161   -11835634.831 7  -9222557.64023
  23690490.2004    -482345.55446   -375846.41861
  21788498.099     5802032.300 7   4521061.73022
  24112608.122     -471572.321 5   -242064.27621
  22749170.1304   -8877446.78546  -6799532.01661
 91  5  2 21  1  0.0010000  0  6G18G 2G11G19G16G 6
  24101426.364    18135619.611 5  14131627.27721
  21373711.513   -11848984.683 7  -9232960.10623
  23695926.802     -453773.970 6   -353582.86621
  21793391.856     5827731.799 6   4541087.29222
  24117178.4354    -447552.13145   -223347.27261
  22744542.731    -8901764.213 6  -6818480.64421
 91  5  2 21  1 15.0010000  0  6G18G 2G11G19G16G 6
  24112619.935    18194444.045 5  14177464.33021
  21371186.700   -11862254.887 7  -9243300.50923
  23701390.153     -425064.841 6   -331212.13321
  21798290.122     5853490.300 6   4561158.83522
  24121767.896     -423428.051 5   -204549.33421
  22739918.817    -8926066.075 6  -6837417.13721
 91  5  2 21  1 30.0010000  0  6G18G 2G11G19G16G 6
  24123822.396    18253297.955 5  14223324.36221
  21368676.106   -11875448.928 7  -9253581.56323
  23706878.294     -396221.912 6   -308737.13921
  21803202.458     5879304.221 7   4581273.56322
  24126378.872     -399203.607 5   -185673.17921
  22735296.536    -8950355.927 6  -6856344.28021
 91  5  2 21  1 45.0010000  0  6G18G 2G11G19G16G 6
  24135027.1304   18312183.18945  14269208.79461
  21366180.419   -11888564.719 7  -9263801.64323
  23712392.200     -367243.374 6   -286156.47121
  21808126.208     5905175.751 6   4601433.17722
  24131011.5524    -374877.09645   -166717.48761
  22730677.950    -8974631.720 6  -6875260.46321
 91  5  2 21  2  0.0010000  0  6G18G 2G11G19G16G 6
  24146237.021    18371097.871 5  14315116.18521
  21363699.106   -11901604.250 7  -9273962.30123
  23717931.349     -338131.257 6   -263471.72721
  21813064.575     5931103.206 6   4621636.37222
  24135656.630     -350450.780 5   -147684.04821
  22726059.169    -8998895.075 6  -6894166.95621
 91  5  2 21  2 15.0010000  0  6G18G 2G11G19G16G 6
  24157452.5674   18430039.16245  14361044.30961
  21361231.521   -11914569.882 7  -9284065.37623
  23723496.981     -308888.196 6   -240684.94321
  21818004.911     5957084.058 6   4641881.17022
  24140321.6064    -325927.16245   -128574.75761
  22721444.974    -9023148.348 6  -6913065.58921
 91  5  2 21  2 30.0010000  0  6G18G 2G11G19G16G 6
  24168673.3494   18489009.94345  14406995.41661
  21358778.575   -11927458.573 7  -9294108.49623
  23729085.8494    -279511.26046   -217793.83361
  21822959.169     5983121.528 6   4662170.08522
  24145013.1694    -301303.57545   -109387.59261
  22716832.302    -9047388.471 6  -6931953.97321
 91  5  2 21  2 45.0010000  0  6G18G 2G11G19G16G 6
  24179902.325    18548006.347 5  14452966.47221
  21356340.403   -11940273.883 7  -9304094.43223
  23734701.4744    -250004.26246   -194801.36861
  21827925.278     6009212.127 6   4682500.40622
  24149715.2714    -276583.96245    -90125.61461
  22712220.466    -9071618.973 6  -6950834.85721
 91  5  2 21  3  0.0010000  0  6G18G 2G11G19G16G 6
  24191134.896    18607031.364 5  14498959.83821
  21353915.747   -11953012.562 7  -9314020.66023
  23740341.7084    -220364.25046   -171705.26161
  21832900.067     6035359.040 6   4702874.61422
  24154438.8414    -251765.18245    -70786.32961
  22707613.310    -9095836.620 6  -6969705.73121
 91  5  2 21  3 15.0010000  0  6G18G 2G11G19G16G 6
  24202373.333    18666086.313 5  14544976.51921
  21351506.810   -11965673.119 7  -9323886.01423
  23746008.966     -190589.813 6   -148504.42221
  21837886.099     6061564.001 6   4723294.04822
  24159179.028     -226846.021 5    -51368.83221
  22703007.067    -9120039.768 6  -6988565.31421
 91  5  2 21  3 30.0010000  0  6G18G 2G11G19G16G 6
  24213615.263    18725171.478 5  14591016.73721
  21349113.044   -11978255.036 7  -9333690.09123
  23751699.0524    -160680.53046   -125198.51661
  21842883.786     6087827.621 6   4743759.18522
  24163939.7314    -201826.03045    -31872.75761
  22698403.872    -9144227.666 6  -7007413.00621
 91  5  2 21  3 45.0010000  0  6G18G 2G11G19G16G 6
  24224865.169    18784286.995 5  14637080.61221
  21346733.911   -11990757.501 7  -9343432.25423
  23757417.888     -130635.992 6   -101787.20221
  21847893.872     6114150.621 6   4764270.59722
  24168722.497     -176705.135 5    -12298.09221
  22693803.591    -9168399.545 6  -7026248.21721
 91  5  2 21  4  0.0010000  0  6G18G 2G11G19G16G 6
  24236120.5674   18843434.55645  14683169.44361
  21344369.833   -12003179.139 7  -9353111.43723
  23763160.2714    -100454.74946    -78269.36061
  21852916.474     6140534.658 6   4784829.56922
  24173522.458     -151481.913 5      7356.33521
  22689208.731    -9192553.735 6  -7045069.64621
 91  5  2 21  4 15.0010000  0  6G18G 2G11G19G16G 6
  24247382.521    18902612.667 5  14729282.08021
  21342021.442   -12015521.143 7  -9362728.55923
  23768928.8564     -70138.30046    -54646.16661
  21857946.575     6166978.570 6   4805435.20122
  24178341.224     -126157.792 5     27089.36621
  22684614.513    -9216691.520 6  -7063878.29121
 91  5  2 21  4 30.0010000  0  6G18G 2G11G19G16G 6
  24258648.0054   18961817.46345  14775415.52661
  21339687.341   -12027786.726 7  -9372286.14823
  23774723.3494     -39690.12246    -30920.32561
  21862990.013     6193479.101 6   4826084.94422
  24183176.3644    -100736.34645     46898.23661
  22680024.114    -9240816.033 6  -7082676.59421
 91  5  2 21  4 45.0010000  0  6G18G 2G11G19G16G 6
  24269920.4114   19021049.28845  14821570.00261
  21337367.911   -12039975.636 7  -9381783.98623
  23780543.208       -9110.251 6     -7091.87321
  21868043.278     6220036.536 6   4846779.02922
  24188033.9354     -75217.36245     66783.12461
  22675435.771    -9264926.936 6  -7101464.28421
 91  5  2 21  5  0.0010000  0  6G18G 2G11G19G16G 6
  24281196.591    19080311.228 5  14867747.96821
  21335063.005   -12052084.598 7  -9391219.52323
  23786386.856       21604.693 6     16841.83621
  21873108.786     6246654.481 6   4867520.26122
  24192907.021      -49597.925 5     86746.28521
  22670851.177    -9289020.708 6  -7120238.63321
 91  5  2 21  5 15.0010000  0  6G18G 2G11G19G16G 6
  24292480.122    19139602.661 5  14913948.90921
  21332774.052   -12064113.750 7  -9400592.87723
  23792258.5444      52454.17646     40880.38161
  21878185.106     6273332.580 6   4888308.37222
  24197803.2244     -23878.61545    106787.25061
  22666268.442    -9313097.576 6  -7138999.80521
 91  5  2 21  5 30.0010000  0  6G18G 2G11G19G16G 6
  24303767.0674   19198921.81345  14960171.45061
  21330499.716   -12076064.602 7  -9409905.21323
  23798153.356       83436.517 6     65022.44421
  21883273.044     6300069.312 6   4909142.17522
  24202715.974        1938.687 5    126904.58621
  22661690.106    -9337158.954 6  -7157748.91321
 91  5  2 21  5 45.0010000  0  6G18G 2G11G19G16G 6
  24315061.388    19258270.133 5  15006416.69921
  21328241.396   -12087935.568 8  -9419155.30223
  23804074.114      114553.113 6     89269.12821
  21888371.731     6326866.680 6   4930023.21922
  24207649.302       27855.690 5    147099.59521
  22657115.130    -9361202.984 6  -7176484.50521
 91  5  2 21  6  0.0010000  0  6G18G 2G11G19G16G 6
  24326361.263    19317649.160 5  15052685.89421
  21325997.942   -12099725.005 7  -9428341.86223
  23810021.302      145805.458 6    113621.59021
  21893483.974     6353726.339 6   4950952.80822
  24212598.521       53873.468 5    167373.15421
  22652542.989    -9385227.913 6  -7195205.20921
 91  5  2 21  6 15.0010000  0  6G18G 2G11G19G16G 6
  24337667.1854   19377056.27345  15098976.96961
  21323768.646   -12111435.148 7  -9437466.63523
  23815993.208      177191.144 6    138077.94821
  21898606.317     6380646.136 6   4971929.25422
  24217568.552       79989.893 5    187723.55521
  22647973.864    -9409235.918 6  -7213912.73621
 91  5  2 21  6 30.0010000  0  6G18G 2G11G19G16G 6
  24348978.247    19436495.218 5  15145292.86221
  21321556.138   -12123062.296 7  -9446526.73823
  23821991.708      208713.661 6    162640.92921
  21903744.036     6407629.792 6   4992955.45622
  24222552.9584     106208.49045    208153.59861
  22643409.458    -9433223.147 6  -7232604.06121
 91  5  2 21  6 45.0010000  0  6G18G 2G11G19G16G 6
  24360295.2714   19495962.72745  15191630.99861
  21319359.536   -12134609.195 7  -9455524.30723
  23828016.966      240369.972 6    187308.15921
  21908887.903     6434674.682 6   5014029.38122
  24227564.372      132525.947 5    228660.66921
  22638849.333    -9457192.418 6  -7251281.39321
 91  5  2 21  7  0.0010000  0  6G18G 2G11G19G16G 6
  24371616.224    19555458.678 5  15237991.28821
  21317177.427   -12146075.540 7  -9464459.10823
  23834066.552      272160.142 6    212079.71021
  21914046.302     6461781.039 6   5035151.19922
  24232593.419      158941.747 5    249244.36521
  22634291.638    -9481143.355 6  -7269944.44021
 91  5  2 21  7 15.0010000  0  6G18G 2G11G19G16G 6
  24382943.302    19614984.149 5  15284374.58921
  21315011.146   -12157460.250 7  -9473330.29623
  23840141.724      304085.003 6    236956.20021
  21919215.810     6488949.945 6   5056321.76422
  24237637.685      185457.185 5    269905.71321
  22629736.989    -9505074.810 6  -7288592.30921
 91  5  2 21  7 30.0010000  0  6G18G 2G11G19G16G 6
  24394275.8334   19674539.45545  15330781.13461
  21312860.1224  -12168762.88947  -9482137.53863
  23846242.700      336145.055 6    261938.04021
  21924397.911     6516182.086 6   5077541.59322
  24242702.185      212072.895 5    290645.16321
  22625187.302    -9528985.963 6  -7307224.35421
 91  5  2 21  7 45.0010000  0  6G18G 2G11G19G16G 6
  24405613.614    19734120.060 5  15377207.37721
  21310723.794   -12179987.532 7  -9490884.00023
  23852368.669      368335.896 6    287021.79121
  21929591.192     6543473.438 6   5098807.56022
  24247785.2634     238784.07545    311459.01961
  22620640.505    -9552881.035 6  -7325843.86921
 91  5  2 21  8  0.0010000  0  6G18G 2G11G19G16G 6
  24416956.6694   19793724.93045  15423652.55261
  21308602.0674  -12191135.03647  -9499570.35763
  23858518.896      400656.493 6    312206.65421
  21934795.044     6570823.262 6   5120119.09022
  24252885.919      265589.539 5    332346.34721
  22616094.638    -9576760.637 6  -7344451.32921
 91  5  2 21  8 15.0010000  0  6G18G 2G11G19G16G 6
  24428304.091    19853353.685 5  15470116.32421
  21306496.2864  -12202205.62648  -9508196.78063
  23864693.028      433106.343 6    337492.24221
  21940011.5994    6598231.50746   5141476.14162
  24258004.3724     292489.16345    353307.03361
  22611554.396    -9600624.887 6  -7363046.83221
 91  5  2 21  8 30.0010000  0  6G18G 2G11G19G16G 6
  24439657.661    19913013.088 5  15516603.98121
  21304404.896   -12213192.044 7  -9516757.61323
  23870894.708      465692.425 6    362883.97421
  21945239.021     6625705.200 6   5162884.18222
  24263145.6144     319489.63345    374346.32461
  22607017.544    -9624466.522 6  -7381624.70821
 91  5  2 21  8 45.0010000  0  6G18G 2G11G19G16G 6
  24451016.1774   19972705.22545  15563117.14361
  21302330.8884  -12224092.05847  -9525251.12263
  23877122.919      498416.894 6    388383.54121
  21950479.763     6653246.885 6   5184345.22122
  24268300.7164     346592.98145    395465.77661
  22602484.302    -9648283.184 6  -7400183.13421
 91  5  2 21  9  0.0010000  0  6G18G 2G11G19G16G 6
  24462380.1464   20032428.25045  15609654.38661
  21300272.747   -12234907.261 7  -9533678.53723
  23883374.286      531277.847 6    413989.46221
  21955734.927     6680854.960 6   5205857.99222
  24273476.630      373797.469 5    416664.05321
  22597957.0284   -9672076.34446  -7418723.24361
 91  5  2 21  9 15.0010000  0  6G18G 2G11G19G16G 6
  24473751.591    20092185.563 5  15656218.33121
  21298231.3334  -12245634.17547  -9542037.16163
  23889656.114      564278.736 6    439704.42021
  21960999.864     6708533.135 6   5227425.38322
  24278671.403      401106.380 5    437943.67821
  22593434.106    -9695842.181 6  -7437242.05921
 91  5  2 21  9 30.0010000  0  6G18G 2G11G19G16G 6
  24485131.911    20151977.905 5  15702809.57121
  21296207.099   -12256271.610 7  -9550326.05723
  23895960.3964     597420.26846    465528.97261
  21966281.497     6736282.517 6   5249048.25222
  24283889.9274     428520.20445    459305.05061
  22588917.716    -9719579.791 6  -7455738.88121
 91  5  2 21  9 45.0010000  0  6G18G 2G11G19G16G 6
  24496516.3964   20211810.34045  15749432.03661
  21294201.1774  -12266814.53248  -9558541.31263
  23902296.927      630707.455 6    491467.02721
  21971576.435     6764108.173 6   5270730.56422
  24289130.4744     456044.18445    480752.25661
  22584407.396    -9743283.783 6  -7474209.50321
 91  5  2 21 10  0.0010000  0  6G18G 2G11G19G16G 6
  24507909.052    20271681.680 5  15796084.83121
  21292213.4034  -12277263.94248  -9566683.70063
  23908657.419      664138.953 6    517517.51321
  21976885.544     6792009.090 6   5292471.52022
  24294388.263      483676.705 5    502284.03521
  22579903.278    -9766955.057 6  -7492654.63221
 91  5  2 21 10 15.0010000  0  6G18G 2G11G19G16G 6
  24519311.2864   20331589.06345  15842765.71161
  21290241.810   -12287622.127 8  -9574754.99723
  23915046.911      697712.213 6    543678.47821
  21982210.021     6819982.974 6   5314269.33822
  24299669.474      511415.371 5    523898.54221
  22575402.771    -9790595.978 6  -7511076.11321
 91  5  2 21 10 30.0010000  0  6G18G 2G11G19G16G 6
  24530716.833    20391531.753 5  15889474.11921
  21288288.099   -12297889.603 8  -9582755.61623
  23921463.1854     731426.71246    569949.49561
  21987547.755     6848029.816 6   5336124.00022
  24304963.7394     539259.34845    545595.08861
  22570910.771    -9814206.751 6  -7529474.09821
 91  5  2 21 10 45.0010000  0  6G18G 2G11G19G16G 6
  24542128.8884   20451508.58045  15936209.08861
  21286350.833   -12308067.408 7  -9590686.36323
  23927904.2084     765281.09146    596329.50861
  21992896.747     6876148.498 6   5358034.63822
  24310282.302      567207.336 5    567372.66421
  22566423.067    -9837788.345 6  -7547849.34921
 91  5  2 21 11  0.0010000  0  6G18G 2G11G19G16G 6
  24553550.3724   20511516.62145  15982968.38461
  21284430.661   -12318158.580 7  -9598549.60123
  23934371.9584     799272.32646    622816.16761
  21998262.239     6904336.171 6   5379999.03622
  24315619.021      595256.176 5    589228.84321
  22561940.856    -9861343.504 6  -7566203.99821
 91  5  2 21 11 15.0010000  0  6G18G 2G11G19G16G 6
  24564974.5134   20571552.46845  16029749.35061
  21282525.8804  -12328165.92447  -9606347.52263
  23940866.114      833397.114 6    649406.89921
  22003638.099     6932589.843 6
  24320978.239      623402.614 5
  22557462.4274   -9884875.15046  -7584540.32161
 91  5  2 21 11 30.0010000  0  6G18G 2G11G19G16G 6
  24576404.0214   20631615.30345  16076551.35261
  21280638.325   -12338090.116 7  -9614080.64723
  23947385.8964     867654.57246    676101.00361
  22009026.919     6960908.992 6
  24326350.403      651645.714 5
  22552990.036    -9908383.855 6  -7602858.77221
 91  5  2 21 11 45.0010000  0  6G18G 2G11G19G16G 6
  24587839.9814   20691705.90545  16123374.98361
  21278765.5674  -12347930.26247  -9621748.28163
  23953929.9504     902045.66146    702899.22761
  22014428.341     6989294.816 6
  24331744.216      679986.261 5
  22548520.200    -9931868.347 6  -7621158.35821
 91  5  2 21 12  0.0010000  0  6G18G 2G11G19G16G 6
  24599277.794    20751820.921 5  16170217.63221
  21276908.2944  -12357689.24447  -9629352.67363
  23960498.903      936567.005 6    729798.94621
  22019844.403     7017744.380 6
  24337160.630      708421.183 5
  22544054.825    -9955331.693 6  -7639441.46321
 91  5  2 21 12 15.0010000  0  6G18G 2G11G19G16G 6
  24610724.614    20811965.366 5  16217083.19721
  21275068.364   -12367361.660 7  -9636889.60723
  23967094.731      971223.748 6    756804.18221
  22025268.646     7046262.911 6
  24342588.833      736955.136 5
  22539595.075    -9978768.358 6  -7657703.78321
 91  5  2 21 12 30.0010000  0  6G18G 2G11G19G16G 6
  24622178.0134   20872142.57045  16263974.31361
  21273244.466   -12376944.290 8  -9644356.58023
  23973715.692     1006019.057 6    783917.39521
  22030708.825     7074854.081 7
  24348033.481      765591.388 5
  22535141.638   -10002174.834 6  -7675942.57221
 91  5  2 21 12 45.0010000  0  6G18G 2G11G19G16G 6
  24633631.0284   20932349.28645  16310888.42361
  21271437.528   -12386439.980 8  -9651755.80423
  23980363.7004    1040949.75846    811136.10761
  22036163.849     7103515.004 6
  24353507.435      794326.754 5
  22530691.849   -10025553.877 6  -7694159.98522
 91  5  2 21 13  0.0010000  0  6G18G 2G11G19G16G 6
  24645092.833    20992588.775 5  16357828.05321
  21269647.247   -12395845.279 8  -9659084.59823
  23987035.661     1076019.074 6    838462.82621
  22041631.661     7132249.134 6   5557593.39322
  24358989.856      823164.108 5    766818.90021
  22526248.513   -10048901.947 6  -7712353.27021
 91  5  2 21 13 15.0010000  0  6G18G 2G11G19G16G 6
  24656564.169    21052862.473 5  16404794.34221
  21267875.052   -12405158.568 8  -9666341.69523
  23993735.4274    1111228.50946    865898.72161
  22047114.388     7161058.120 6   5580041.93222
  24364498.9974     852105.13645    789370.30261
  22521812.810   -10072217.315 6  -7730521.06521
 91  5  2 21 13 30.0010000  0  6G18G 2G11G19G16G 6
  24668042.755    21113170.931 5  16451787.71321
  21266120.2474  -12414378.96748  -9673526.41063
  24000462.622     1146578.650 6    893444.25821
  22052613.388     7189943.074 6   5602549.66922
  24370025.036      881150.372 5    812002.89321
  22517383.052   -10095499.011 6  -7748662.62921
 91  5  2 21 13 45.0010000  0  6G18G 2G11G19G16G 6
  24679525.4584   21173510.71845  16498805.50961
  21264382.442   -12423509.759 8  -9680641.29923
  24007215.7944    1182066.05946    921096.75061
  22058121.349     7218900.849 6   5625114.14922
  24375571.208      910296.146 5    834713.85621
  22512957.599   -10118749.990 6  -7766780.24921
 91  5  2 21 14  0.0010000  0  6G18G 2G11G19G16G 6
  24691013.091    21233881.456 5  16545847.42921
  21262662.5994  -12432550.80448  -9687686.25563
  24013996.724     1217690.631 6    948856.13721
  22063643.513     7247931.303 6   5647735.26222
  24381140.3174     939542.70445    857503.35861
  22508539.216   -10141970.155 6  -7784873.86521
 91  5  2 21 14 15.0010000  0  6G18G 2G11G19G16G 6
  24702506.3564   21294280.44145  16592911.33461
  21260958.825   -12441504.895 8  -9694663.46323
  24020799.192     1253449.300 6    976720.01921
  22069183.5914    7277031.80146   5670410.94662
  24386719.4424     968886.74045    880368.74361
  22504126.036   -10165162.098 6  -7802945.48421
 91  5  2 21 14 30.0010000  0  6G18G 2G11G19G16G 6
  24714005.794    21354712.084 5  16640000.70821
  21259272.0444  -12450367.48048  -9701569.36263
  24027630.669     1289346.440 6   1004691.79321
  22074736.896     7306207.103 6   5693144.92522
  24392324.583      998332.680 5    903313.58221
  22499719.989   -10188321.147 6  -7820991.47021
 91  5  2 21 14 45.0010000  0  6G18G 2G11G19G16G 6
  24725511.2554   21415167.94245  16687108.94261
  21257600.778   -12459146.729 8  -9708410.32223
  24034485.950     1325373.807 6   1032765.04721
  22080299.458     7335449.303 6   5715931.03022
  24397947.052     1027871.963 5    926331.16521
  22495315.981   -10211455.232 6  -7839018.01121
 91  5  2 21 15  0.0010000  0  6G18G 2G11G19G16G 6
  24737020.5994   21475655.51845  16734241.90361
  21255948.3564  -12467834.88548  -9715180.30463
  24041368.0674    1361538.77446   1060945.53261
  22085878.599     7364766.157 6   5738775.31122
  24403581.5674    1057512.06645    949427.30361
  22490920.560   -10234556.594 6  -7857019.05121
 91  5  2 21 15 15.0010000  0  5G 2G11G19G16G 6
  21254311.8494  -12476432.98048  -9721880.10863
  24048277.646     1397839.961 6   1089232.15321
  22091471.700     7394156.547 6   5761676.89822
  24409242.653     1087251.596 5    972600.91621
  22486529.716   -10257626.251 6  -7874995.38121
 91  5  2 21 15 30.0010000  0  5G 2G11G19G16G 6
  21252692.1694  -12484946.02448  -9728513.63963
  24055208.130     1434272.266 6   1117620.94621
  22097076.786     7423615.701 6   5784632.05722
  24414926.4744    1117085.31445    995847.90761
  22482144.271   -10280668.966 6  -7892950.72821
 91  5  2 21 15 45.0010000  0  5G 2G11G19G16G 6
  21251089.2944  -12493367.37248  -9735075.71663
  24062167.6854    1470842.23146   1146116.99461
  22102697.880     7453150.361 6   5807646.05322
  24420616.450     1147019.714 5   1019173.38221
  22477767.341   -10303677.916 6  -7910879.76021
 91  5  2 21 16  0.0010000  0  5G 2G11G19G16G 6
  21249503.880   -12501699.530 8  -9741568.29623
  24069154.216     1507547.123 6   1174718.18221
  22108331.528     7482758.213 6   5830717.08022
  24426335.130     1177052.205 5   1042575.28021
  22473394.013   -10326655.292 6  -7928784.19022
 91  5  2 21 16 15.0010000  0  5G 2G11G19G16G 6
  21247934.6144  -12509944.91348  -9747993.25863
  24076163.185     1544384.077 6   1203422.29321
  22113979.271     7512436.590 6   5853843.06822
  24432067.4974    1207179.54445   1066051.10061
  22469027.981   -10349603.700 6  -7946666.04321
 91  5  2 21 16 30.0010000  0  5G 2G11G19G16G 6
  21246382.7864  -12518102.94648  -9754350.15763
  24083197.700     1581353.189 6   1232229.37421
  22119643.5444    7542186.03346   5877024.42962
  24437818.903     1237402.285 5   1089601.24121
  22464666.419   -10372522.518 6  -7964524.84521
 91  5  2 21 16 45.0010000  0  5G 2G11G19G16G 6
  21244845.7864  -12526180.43848  -9760644.29763
  24090258.599     1618447.803 6   1261134.23921
  22125313.9744    7572000.05846   5900256.11262
  24443583.458     1267713.299 5   1113220.11821
  22460310.200   -10395418.156 6  -7982365.58322
 91  5  2 21 17  0.0010000  0  5G 2G11G19G16G 6
  21243325.1304  -12534171.19948  -9766870.85263
  24097341.802     1655673.755 6   1290141.46321
  22131001.185     7601885.029 6   5923543.07922
  24449375.0914    1298118.37045   1136912.33461
  22455958.810   -10418284.403 6  -8000183.41522
 91  5  2 21 17 15.0010000  0  5G 2G11G19G16G 6
  21241819.8804  -12542082.16948  -9773035.23663
  24104447.192     1693023.916 6   1319245.46121
  22136700.083     7631834.145 6   5946880.03222
  24455174.638     1328610.714 5   1160672.55821
  22451610.981   -10441127.927 6  -8017983.54522
 91  5  2 21 17 30.0010000  0  5G 2G11G19G16G 6
  21240327.1774  -12549919.34248  -9779142.10863
  24111578.294     1730492.205 6   1348441.49921
  22142410.638     7661841.347 6   5970262.24422
  24460995.4814    1359183.97145   1184495.83961
  22447267.372   -10463954.566 6  -8035770.51721
 91  5  2 21 17 45.0010000  0  5G 2G11G19G16G 6
  21238850.6064  -12557682.38648  -9785191.23363
  24118732.583     1768078.661 6   1377729.62421
  22148130.403     7691907.091 6   5993690.07222
  24466827.1384    1389837.79545   1208381.88761
  22442925.903   -10486763.866 6  -8053543.98122
 91  5  2 21 18  0.0010000  0  5G 2G11G19G16G 6
  21237388.1384  -12565371.95748  -9791183.09663
  24125905.8024    1805782.39146   1407109.13361
  22153862.989     7722030.914 6   6017163.15122
  24472673.6064    1420571.44345   1232330.12661
  22438589.489   -10509556.284 6  -8071304.29322
 91  5  2 21 18 15.0010000  0  5G 2G11G19G16G 6
  21235937.5914  -12572987.28448  -9797117.10963
  24133103.786     1843603.943 6   1436580.43621
  22159607.4504    7752213.55546   6040682.08062
  24478539.216     1451385.601 5   1256341.13921
  22434255.435   -10532331.099 6  -8089050.88022
 91  5  2 21 18 30.0010000  0  5G 2G11G19G16G 6
  21234504.122   -12580521.580 8  -9802987.98423
  24140322.419     1881549.780 6   1466148.59321
  22165363.247     7782461.935 6   6064252.22722
  24484419.255     1482286.780 5   1280419.93021
  22429926.286   -10555081.264 7  -8106778.26722
 91  5  2 21 18 45.0010000  0  5G 2G11G19G16G 6
  21233085.9274  -12587975.56948  -9808796.27463
  24147566.521     1919618.885 6   1495812.80821
  22171132.802     7812775.125 6   6087872.87022
  24490315.5364    1513273.43545   1304565.32561
  22425601.646   -10577807.590 7  -8124487.07722
 91  5  2 21 19  0.0010000  0  5G 2G11G19G16G 6
  21231682.5364  -12595348.62048  -9814541.49963
  24154836.2164    1957811.86446   1525573.54161
  22176913.146     7843153.946 6   6111544.65522
  24496229.153     1544346.242 5   1328777.85521
  22421282.380   -10600509.031 7  -8142176.49622
 91  5  2 21 19 15.0010000  0  5G 2G11G19G16G 6
  21230294.4584  -12602643.10748  -9820225.51263
  24162126.8334    1996126.07946   1555428.74461
  22182705.1534    7873596.38946   6135266.00762
  24502155.0834    1575502.79345   1353055.62361
  22416965.333   -10623187.801 7  -8159848.25121
 91  5  2 21 19 30.0010000  0  5G 2G11G19G16G 6
  21228921.0604  -12609861.32448  -9825850.08563
  24169439.7394    2034558.85646   1585376.33761
  22188509.9744    7904100.11246   6159035.10862
  24508100.153     1606740.388 5   1377396.55721
  22412652.731   -10645846.113 6  -8177504.06622
 91  5  2 21 19 45.0010000  0  5G 2G11G19G16G 6
  21227562.5834  -12617004.25548  -9831416.00063
  24176776.4974    2073108.84546   1615415.25361
  22194328.114     7934664.068 6   6182851.15422
  24514060.6694    1638057.70145   1401799.60461
  22408346.021   -10668484.978 6  -8195144.72522
 91  5  2 21 20  0.0010000  0  5G 2G11G19G16G 6
  21226215.8254  -12624077.39048  -9836927.52363
  24184135.4274    2111770.44446   1645541.14361
  22200152.896     7965282.857 6   6206709.93122
  24520034.185     1669448.946 5   1426260.23621
  22404040.513   -10691109.596 6  -8212774.28222
 91  5  2 21 20 15.0010000  0  5G 2G11G19G16G 6
  21224883.1924  -12631079.28248  -9842383.53363
  24191512.825     2150545.020 6   1675755.07421
  22205990.755     7995958.010 6   6230612.62422
  24526021.6464    1700915.16145   1450779.34161
  22399738.6614  -10713718.21846  -8230391.37862
 91  5  2 21 20 30.0010000  0  5G 2G11G19G16G 6
  21223564.2394  -12638009.31648  -9847783.55263
  24198910.864     2189432.887 6   1706057.26721
  22211838.958     8026690.431 6   6254559.94022
  24532027.099     1732456.944 5   1475357.27921
  22395439.435   -10736310.086 6  -8247995.41822
 91  5  2 21 20 45.0010000  0  5G 2G11G19G16G 6
  21222260.2314  -12644863.81648  -9853124.71363
  24206335.6854    2228437.50646   1736450.44861
  22217698.216     8057483.998 6   6278554.90622
  24538042.310     1764078.030 5   1499997.03921
  22391145.044   -10758881.408 6  -8265583.44422
 91  5  2 21 21  0.0010000  0  5G 2G11G19G16G 6
  21220970.7394  -12651642.70648  -9858406.95463
  24213779.3964    2267558.46546   1766934.28661
  22223570.474     8088338.436 6   6302597.30522
  24544074.685     1795777.411 5   1524697.80021
  22386852.896   -10781432.190 7  -8283155.46822
 91  5  2 21 21 15.0010000  0  5G 2G11G19G16G 6
  21219695.7634  -12658343.69448  -9863628.49263
  24221245.3724    2306797.95946   1797510.48061
  22229453.458     8119256.187 6   6326689.04122
  24550119.9974    1827557.26345   1549461.27561
  22382565.950   -10803959.833 6  -8300709.46322
 91  5  2 21 21 30.0010000  0  5G 2G11G19G16G 6
  21218434.7714  -12664963.81848  -9868787.01863
  24228735.3644    2346158.68146   1828181.13361
  22235349.575     8150240.540 6   6350832.67921
  24556186.7244    1859420.43844   1574289.66261
  22378285.442   -10826461.318 7  -8318243.07222
 91  5  2 21 21 45.0010000  0  5G 2G11G19G16G 6
  21217191.2554  -12671505.40248  -9873884.34963
  24236249.481     2385638.154 6   1858944.33021
  22241257.286     8181289.212 6   6375026.42622
  24562265.021     1891364.341 4   1599180.93721
  22374005.661   -10848938.592 6  -8335757.81422
 91  5  2 21 22  0.0010000  0  4G 2G11G19G 6
  21215961.4974  -12677966.34248  -9878918.83563
  24243784.575     2425238.229 6   1889801.50521
  22247178.9584    8212404.28846   6399271.91262
  22369734.0834  -10871389.55046  -8353252.06062
 91  5  2 21 22 15.0010000  0  4G 2G11G19G 6
  21214746.3024  -12684348.77348  -9883892.15063
  24251342.0754    2464956.37346   1920750.67061
  22253111.224     8243583.628 6   6423567.47622
  22365467.185   -10893816.263 6  -8370727.40422
 91  5  2 21 22 30.0010000  0  4G 2G11G19G 6
  21213548.5604  -12690648.24148  -9888800.81763
  24258924.0524    2504796.96546   1951795.24861
  22259058.606     8274831.776 6   6447916.65622
  22361204.388   -10916213.947 6  -8388180.12522
 91  5  2 21 22 45.0010000  0  4G 2G11G19G 6
  21212365.2244  -12696864.56648  -9893644.69863
  24266528.2084    2544759.88946   1982935.14861
  22265018.2244    8306148.99346   6472319.65462
  22356949.4354  -10938582.34347  -8405610.03862
 91  5  2 21 23  0.0010000  0  4G 2G11G19G 6
  21211198.5054  -12702996.36548  -9898422.71563
  24274157.239     2584846.311 6   2014171.29321
  22270992.5994    8337536.84146   6496777.68162
  22352697.974   -10960919.785 7  -8423015.82122
 91  5  2 21 23 15.0010000  0  4G 2G11G19G 6
  21210047.5914  -12709045.01848  -9903135.94263
  24281809.685     2625054.530 6   2045502.35021
  22276978.0674    8368993.93546   6521289.67362
  22348453.716   -10983227.598 7  -8440398.51822
 91  5  2 21 23 30.0010000  0  4G 2G11G19G 6
  21208912.0994  -12715012.96248  -9907786.27963
  24289482.0524    2665382.10946   2076926.40361
  22282975.888     8400518.164 6   6545853.98422
  22344212.521   -11005507.913 7  -8457759.78322
 91  5  2 21 23 45.0010000  0  4G 2G11G19G 6
  21207791.0754  -12720898.53848  -9912372.43463
  24297179.0754    2705830.18946   2108444.34161
  22288988.3334    8432111.11146   6570471.83962
  22339977.466   -11027759.081 7  -8475098.34222
 91  5  2 21 24  0.0010000  0  4G 2G11G19G 6
  21206685.7784  -12726704.66148  -9916896.68363
  24304899.4424    2746395.62446   2140053.74861
  22295012.6774    8463769.83146   6595140.94462
  22335749.622   -11049983.893 7  -8492416.36422
 91  5  2 21 24 15.0010000  0  4G 2G11G19G 6
  21205597.2004  -12732428.57948  -9921356.86763
  24312641.4664    2787081.16046   2171756.72861
  22301049.5834    8495497.39146   6619863.69262
  22331524.9034  -11072179.10247  -8509711.32662
 91  5  2 21 24 30.0010000  0  4G 2G11G19G 6
  21204522.8644  -12738075.12648  -9925756.76563
  24320404.708     2827881.710 6   2203549.32521
  22307102.4974    8527288.99346   6644636.33862
  22327305.622   -11094349.430 6  -8526986.89722
 91  5  2 21 24 45.0010000  0  4G 2G11G19G 6
  21203463.1534  -12743643.95848  -9930096.10663
  24328191.4114    2868797.18646   2235431.47661
  22313161.6384    8559144.98646   6669459.16362
  22323091.6614  -11116494.64847  -8544242.89662
 91  5  2 21 25  0.0010000  0  4G 2G11G19G 6
  21202418.0444  -12749133.39148  -9934373.57663
  24335999.6464    2909828.94346   2267404.23061
  22319235.716     8591066.786 6   6694333.27222
  22318884.341   -11138613.010 7  -8561477.97222
 91  5  2 21 25 15.0010000  0  4G 2G11G19G 6
  21201389.2244  -12754541.80448  -9938587.91363
  24343829.442     2950978.366 6   2299468.66321
  22325323.669     8623056.508 6   6719260.30622
  22314679.849   -11160702.577 7  -8578690.60522
 91  5  2 21 25 30.0010000  0  4G 2G11G19G 6
  21200375.0674  -12759873.32448  -9942742.33763
  24351680.450     2992241.106 6   2331621.42721
  22331423.2944    8655110.04746   6744237.05562
  22310481.466   -11182767.218 7  -8595883.81922
 91  5  2 21 25 45.0010000  0  4G 2G11G19G 6
  21199375.0364  -12765126.76248  -9946835.91363
  24359555.9814    3033618.29146   2363863.35661
  22337535.5444    8687228.75646   6769264.59162
  22306287.771   -11204805.452 7  -8613056.45322
 91  5  2 21 26  0.0010000  0  4G 2G11G19G 6
  21198389.9504  -12770304.47848  -9950870.48963
  24367450.8564    3075107.38846   2396192.48061
  22343661.7314    8719410.49546   6794341.23862
  22302098.2084  -11226819.48447  -8630210.24462
 91  5  2 21 26 15.0010000  0  4G 2G11G19G 6
  21197418.1064  -12775409.93548  -9954848.76163
  24375366.1534    3116704.53946   2428605.81261
  22349794.1694    8751651.68546   6819464.21762
  22297912.8414  -11248812.75646  -8647347.84062
 91  5  2 21 26 30.0010000  0  4G 2G11G19G 6
  21196461.2944  -12780443.84348  -9958771.27763
  24383302.208     3158408.768 6   2461102.57221
  22355940.0914    8783951.71046   6844633.03762
  22293729.9664  -11270785.61046  -8664469.53362
 91  5  2 21 26 45.0010000  0  4G 2G11G19G 6
  21195515.8414  -12785410.50548  -9962641.39563
  24391258.4354    3200215.55846   2493679.25061
  22362098.567     8816306.429 6   6869844.48122
  22289553.2084  -11292742.36946  -8681578.68262
 91  5  2 21 27  0.0010000  0  4G 2G11G19G 6
  21194583.1614  -12790310.75348  -9966459.76063
  24399233.3564    3242123.61046   2526334.84061
  22368267.122     8848714.814 6   6895097.74422
  22285377.6924  -11314683.67047  -8698675.79062
 91  5  2 21 27 15.0010000  0  4G 2G11G19G 6
  21193664.9274  -12795136.33748  -9970219.95063
  24407228.7164    3284140.97746   2559075.61961
  22374443.6304    8881185.32046   6920399.41062
  22281207.0524  -11336601.09647  -8715754.29262
 91  5  2 21 27 30.0010000  0  4G 2G11G19G 6
  21192760.7004  -12799885.99548  -9973920.97763
  24415244.099     3326268.816 6   2591902.46621
  22380635.2164    8913719.42546   6945750.63262
  22277042.1614  -11358493.14447  -8732813.02262
 91  5  2 21 27 45.0010000  0  4G 2G11G19G 6
  21191870.4894  -12804561.47848  -9977564.20463
  24423283.9814    3368505.11546   2624813.83361
  22386838.021     8946315.355 6   6971150.03022
  22272880.856   -11380361.347 7  -8749853.16722
 91  5  2 21 28  0.0010000  0  4G 2G11G19G 6
  21190995.8884  -12809156.89648  -9981145.04063
  24431342.247     3410855.368 6   2657813.99621
  22393053.5914    8978979.05946   6996602.23462
  22268724.763   -11402199.768 7  -8766870.10722
 91  5  2 21 28 15.0010000  0  4G 2G11G19G 6
  21190136.3414  -12813675.88348  -9984666.32363
  24439421.6384    3453315.87646   2690900.07261
  22399281.7864    9011707.15746   7022104.62062
  22264573.231   -11424011.701 7  -8783866.40722
 91  5  2 21 28 30.0010000  0  4G 2G11G19G 6
  21189291.0284  -12818119.15448  -9988128.60463
  24447523.880     3495885.549 6   2724071.21821
  22405521.6384    9044498.97846   7047656.65562
  22260428.5284  -11445797.83047  -8800842.60262
 91  5  2 21 28 45.0010000  0  4G 2G11G19G 6
  21188458.2244  -12822488.87848  -9991533.57763
  24455645.356     3538561.966 6   2757325.54221
  22411773.731     9077352.296 6   7073256.61822
  22256287.0834  -11467560.04547  -8817800.16262
 91  5  2 21 29  0.0010000  0  4G 2G11G19G 6
  21187641.3724  -12826788.41148  -9994883.85563
  24463783.1854    3581341.40146   2790660.13961
  22418039.4894    9110263.77346   7098901.89462
  22252149.2474  -11489301.73247  -8834741.73162
 91  5  2 21 29 15.0010000  0  4G 2G11G19G 6
  21186836.6304  -12831019.96148  -9998181.15763
  24471944.2634    3624221.51346   2824073.16961
  22424309.9034    9143231.29646   7124590.84662
  22248016.161   -11511024.737 7  -8851668.74022
 91  5  2 21 29 30.0010000  0  4G 2G11G19G 6
  21186043.5604  -12835183.69148 -10001425.61363
  24480123.146     3667201.828 6   2857564.27821
  22430594.0444    9176254.85146   7150323.45662
  22243886.2394  -11532729.08847  -8868581.20962
 91  5  2 21 29 45.0010000  0  4G 2G11G19G 6
  21185264.6924  -12839279.01248 -10004616.76463
  24488322.0054    3710282.89146   2891133.89561
  22436888.896     9209335.162 6   7176100.29922
  22239759.153   -11554413.966 7  -8885478.50722
 91  5  2 21 30  0.0010000  0  4G 2G11G19G 6
  21184498.2944  -12843306.10248 -10007754.74663
  24496539.8644    3753464.18146   2924781.62561
  22443196.942     9242472.047 6   7201921.22522
  22235636.7784  -11576079.23247  -8902360.52462
 91  5  2 21 30 15.0010000  0  4G 2G11G19G 6
  21183744.9034  -12847264.08348 -10010838.87663
  24504773.0914    3796746.00546   2958507.68561
  22449510.356     9275666.346 6   7227786.88622
  22231517.3334  -11597724.09847  -8919226.64562
 91  5  2 21 30 30.0010000  0  4G 2G11G19G 6
  21183004.6064  -12851151.09848 -10013867.71663
  24513029.091     3840130.152 6   2992313.48721
  22455839.0994    9308920.06146   7253698.84162
  22227404.2164  -11619346.45347  -8936075.22762
 91  5  2 21 30 45.0010000  0  4G 2G11G19G 6
  21182278.7244  -12854965.57248 -10016840.02563
  24521305.9354    3883617.99846   3026200.07561
  22462178.6774    9342235.03246   7279658.52962
  22223292.6064  -11640944.41147  -8952904.79262
 91  5  2 21 31  0.0010000  0  4G 2G11G19G 6
  21181567.0444  -12858705.92048 -10019754.57663
  24529603.067     3927210.872 6   3060168.48721
  22468530.911     9375612.751 6   7305667.11422
  22219188.8644  -11662516.26347  -8969714.01762
 91  5  2 21 31 15.0010000  0  4G 2G11G19G 6
  21180870.0444  -12862370.79548 -10022610.32063
  24537917.341     3970909.743 6   3094219.51821
  22474894.4744    9409054.62146   7331725.68962
  22215087.3334  -11684060.52847  -8986501.75062
 91  5  2 21 31 30.0010000  0  4G 2G11G19G 6
  21180187.2714  -12865957.73448 -10025405.33063
  24546253.9354    4014716.98746   3128354.99361
  22481271.294     9442563.504 6   7357836.48122
  22210993.5054  -11705574.47147  -9003265.85662
 91  5  2 21 31 45.0010000  0  4G 2G11G19G 6
  21179518.7784  -12869468.65748 -10028141.10963
  24554609.2944    4058630.26546   3162573.10761
  22487660.263     9476137.481 6   7383998.00222
  22206906.3644  -11727059.80847  -9020007.66962
 91  5  2 21 32  0.0010000  0  4G 2G11G19G 6
  21178864.7784  -12872905.20348 -10030818.93163
  24562987.099     4102647.582 6   3196872.27021
  22494061.349     9509774.737 6   7410208.83222
  22202821.341   -11748518.089 7  -9036728.39822
 91  5  2 21 32 15.0010000  0  4G 2G11G19G 6
  21178225.8494  -12876264.12248 -10033436.26763
  24571382.419     4146771.964 6   3231254.85621
  22500475.0754    9543478.64046   7436471.58662
  22198744.3644  -11769945.85947  -9053425.35162
 91  5  2 21 32 30.0010000  0  4G 2G11G19G 6
  21177600.4424  -12879548.14748 -10035995.24363
  24579802.185     4191000.527 6   3265718.61521
  22506901.1304    9577246.66846   7462784.30062
  22194673.0674  -11791345.51347  -9070100.40662
 91  5  2 21 32 45.0010000  0  4G 2G11G19G 6
  21176989.3104  -12882759.56848 -10038497.64463
  24588234.130     4235330.927 6   3300261.73921
  22513339.6224    9611076.72546   7489145.35162
  22190605.5524  -11812719.05947  -9086755.11062
 91  5  2 21 33  0.0010000  0  4G 2G11G19G 6
  21176391.3644  -12885904.93048 -10040948.56863
  24596687.9034    4279756.14146   3334878.74561
  22519787.0834    9644962.19646   7515549.57762
  22186541.7634  -11834072.94347  -9103394.49962
 91  5  2 21 33 15.0010000  0  4G 2G11G19G 6
  21175806.4894  -12888981.69348 -10043346.04063
  24605160.7164    4324278.34146   3369571.33661
  22526246.4894    9678905.65146   7541998.98462
  22182482.1924  -11855404.65847  -9120016.60662
 91  5  2 21 33 30.0010000  0  4G 2G11G19G 6
  21175233.4974  -12891991.66948 -10045691.47063
  24613651.591     4368895.567 6   3404337.96421
  22532715.8414    9712905.35046   7568492.22862
  22178427.1694  -11876715.57447  -9136622.51062
 91  5  2 21 33 45.0010000  0  4G 2G11G19G 6
  21174672.5214  -12894934.87748 -10047984.87363
  24622158.2004    4413607.59746   3439178.47361
  22539197.1384    9746961.30846   7595029.30962
  22174374.3024  -11898005.61047  -9153212.13962
 91  5  2 21 34  0.0010000  0  4G 2G11G19G 6
  21174125.7314  -12897810.43248 -10050225.55763
  24630685.7864    4458415.13346   3474093.40261
  22545687.4744    9781074.68246   7621611.12162
  22170327.6924  -11919273.56747  -9169784.57162
 91  5  2 21 34 15.0010000  0  4G 2G11G19G 6
  21173591.2244  -12900622.55048 -10052416.81463
  24639230.591     4503313.570 6   3509079.16221
  22552190.0914    9815241.34846   7648234.45462
  22166283.7084  -11940523.50647  -9186342.95962
 91  5  2 21 34 30.0010000  0  4G 2G11G19G 6
  21173068.0284  -12903368.76148 -10054556.70963
  24647791.9664    4548305.06446   3544137.43161
  22558701.3414    9849463.78846   7674901.25462
  22162244.9664  -11961752.82447  -9202885.28062
 91  5  2 21 34 45.0010000  0  4G 2G11G19G 6
  21172558.0604  -12906046.08448 -10056642.92663
  24656371.396     4593392.447 6   3579270.41121
  22565226.1774    9883744.95046   7701613.81562
  22158209.7244  -11982958.27747  -9219408.99962
 91  5  2 21 35  0.0010000  0  4G 2G11G19G 6
  21172062.7714  -12908654.48448 -10058675.44263
  24664969.114     4638575.449 5   3614477.88821
  22571760.3724    9918085.01746   7728372.27662
  22154180.005   -12004139.700 7  -9235913.98722
 91  5  2 21 35 15.0010000  0  4G 2G11G19G 6
  21171580.5604  -12911194.01448 -10060654.29563
  24673585.4194    4683853.73546   3649759.63161
  22578305.9504    9952484.00446   7755176.65662
  22150152.6694  -12025296.94547  -9252400.14962
 91  5  2 21 35 30.0010000  0  4G 2G11G19G 6
  21171109.2864  -12913664.42848 -10062579.28763
  24682220.396     4729227.243 6   3685115.58921
  22584866.6144    9986942.14146   7782027.11662
  22146131.5444  -12046429.64947  -9268867.18762
 91  5  2 21 35 45.0010000  0  4G 2G11G19G 6
  21170651.1614  -12916073.23548 -10064456.27663
  24690872.880     4774688.247 6   3720539.71321
  22591430.4034   10021452.14546   7808918.00262
  22142114.0524  -12067544.94347  -9285320.65562
 91  5  2 21 36  0.0010000  0  4G 2G11G19G 6
  21170204.4504  -12918417.78748 -10066283.19963
  24699539.708     4820239.056 6   3756033.82221
  22598008.044    10056016.653 6   7835851.36322
  22138099.6924  -12088640.02947  -9301758.37862
 91  5  2 21 36 15.0010000  0  4G 2G11G19G 6
  21169769.7784  -12920702.26248 -10068063.30563
  24708225.724     4865875.369 5   3791594.53521
  22604594.8254   10090631.63046   7862824.03762
  22134088.7944  -12109718.88547  -9318183.45162
 91  5  2 21 36 30.0010000  0  4G 2G11G19G 6
  21169346.8414  -12922929.37348 -10069798.71263
  24716925.8024    4911593.96345   3827219.38361
  22611191.5834   10125294.53846   7889834.06362
  22130079.2244  -12130784.10047  -9334597.89562
 91  5  2 21 36 45.0010000  0  4G 2G11G19G 6
  21168933.5754  -12925099.16948 -10071489.46263
  24725639.966     4957394.578 5   3862908.12821
  22617797.2244   10160005.30746   7916881.38662
  22126073.122   -12151835.369 7  -9351001.46422
 91  5  2 21 37  0.0010000  0  4G 2G11G19G 6
  21168531.5604  -12927210.22248 -10073134.43363
  24734368.9814    5003278.41445   3898661.72961
  22624413.7944   10194765.31746   7943967.07562
  22122071.747   -12172871.265 7  -9367393.05722
 91  5  2 21 37 15.0010000  0  4G 2G11G19G 6
  21168143.2394  -12929254.15148 -10074727.10363
  24743119.8494    5049253.65946   3934486.54761
  22631036.4114   10229583.07446   7971097.76562
  22118071.9504  -12193882.99647  -9383765.83362
 91  5  2 21 37 30.0010000  0  4G 2G11G19G 6
  21167768.0364  -12931227.30748 -10076264.62563
  24751887.9584    5095323.49646   3970385.09061
  22637671.5054   10264462.31846   7998276.36462
  22114078.4194  -12214866.79047  -9400116.83362
 91  5  2 21 37 45.0010000  0  4G 2G11G19G 6
  21167405.0444  -12933131.06048 -10077748.06863
  24760671.2084    5141486.40646   4006356.13861
  22644324.2944   10299401.63846   8025501.76562
  22110091.700   -12235823.874 7  -9416447.01322
 91  5  2 21 38  0.0010000  0  4G 2G11G19G 6
  21167056.3964  -12934962.19848 -10079174.92363
  24769473.099     5187745.176 6   4042401.88821
  22650983.7004   10334404.26146   8052776.49762
  22106107.3884  -12256750.87847  -9432753.75862
 91  5  2 21 38 15.0010000  0  4G 2G11G19G 6
  21166721.3724  -12936720.91548 -10080545.35463
  24778295.1694    5234099.73846   4078522.28661
  22657656.1464   10369470.43146   8080100.74462
  22102132.317   -12277647.446 7  -9449036.78322
 91  5  2 21 38 30.0010000  0  4G 2G11G19G 6
  21166399.5604  -12938411.60148 -10081862.76963
  24787132.364     5280545.262 6   4114713.54621
  22664343.6224   10404595.62746   8107470.98962
  22098160.7714  -12298517.88247  -9465299.44862
 91  5  2 21 38 45.0010000  0  4G 2G11G19G 6
  21166091.0054  -12940035.88548 -10083128.44463
  24795990.1384    5327079.87846   4150974.24861
  22671035.6064   10439778.43246   8134886.12862
  22094193.9424  -12319363.71247  -9481542.94662
 91  5  2 21 39  0.0010000  0  4G 2G11G19G 6
  21165794.9354  -12941590.38648 -10084339.74263
  24804860.9744    5373706.61146   4187306.73961
  22677741.6464   10475022.11946   8162348.71062
  22090232.1924  -12340181.24247  -9497764.38862
 91  5  2 21 39 15.0010000  0  4G 2G11G19G 6
  21165513.1924  -12943072.66148 -10085494.75763
  24813749.942     5420427.715 5   4223712.75821
  22684461.3494   10510329.34746   8189860.80462
  22086276.841   -12360967.818 7  -9513961.70422
 91  5  2 21 39 30.0010000  0  4G 2G11G19G 6
  21165243.5674  -12944485.01248 -10086595.28663
  24822660.005     5467240.599 6   4260190.30321
  22691193.6144   10545697.83346   8217420.62362
  22082326.3024  -12381725.59147  -9530136.57962
 91  5  2 21 39 45.0010000  0  4G 2G11G19G 6
  21164988.6854  -12945826.92348 -10087640.92663
  24831587.9814    5514145.51946   4296739.54861
  22697933.3104   10581128.32446   8245028.76162
  22078383.6304  -12402453.71347  -9546288.35362
 91  5  2 21 40  0.0010000  0  4G 2G11G19G 6
  21164748.0364  -12947096.43448 -10088630.15463
  24840529.310     5561144.227 5   4333361.87821
  22704686.8024   10616622.72746   8272686.69762
  22074444.356   -12423150.103 7  -9562415.39622
 91  5  2 21 40 15.0010000  0  4G 2G11G19G 6
  21164518.5284  -12948297.37148 -10089565.94363
  24849490.021     5608232.432 6   4370053.92821
  22711453.2244   10652177.11346   8300391.37262
  22070510.825   -12443818.457 7  -9578520.59222
 91  5  2 21 40 30.0010000  0  4G 2G11G19G 6
  21164303.0444  -12949428.26348 -10090447.15463
  24858468.3254    5655411.26546   4406816.58661
  22718231.325    10687793.034 6   8328143.99622
  22066584.474   -12464456.987 7  -9594602.55222
 91  5  2 21 40 45.0010000  0  4G 2G11G19G 6
  21164101.6614  -12950488.04548 -10091272.95563
  24867463.536     5702681.582 5   4443650.56521
  22725020.810    10723471.624 6   8355945.45122
  22062661.692   -12485064.532 7  -9610660.36822
 91  5  2 21 41  0.0010000  0  4G 2G11G19G 6
  21163912.3104  -12951485.35148 -10092050.07363
  24876475.5994    5750034.53345   4480548.91461
  22731821.4664   10759204.33846   8383789.08762
  22058745.325   -12505649.447 7  -9626700.54522
 91  5  2 21 41 15.0010000  0  4G 2G11G19G 6
  21163732.7394  -12952419.88748 -10092778.27963
  24885500.9194    5797470.15945   4517511.70761
  22738631.7084   10794991.48446   8411675.13962
  22054831.8334  -12526211.11347  -9642722.61162
 91  5  2 21 41 30.0010000  0  4G 2G11G19G 6
  21163571.5284  -12953276.40648 -10093445.69763
  24894546.747     5845003.481 5   4554550.61721
  22745457.333    10830848.649 6   8439615.74222
  22050927.0604  -12546734.03147  -9658714.48762
 91  5  2 21 41 45.0010000  0  4G 2G11G19G 6
  21163423.7554  -12954056.89748 -10094053.86563
  24903609.5054    5892632.27845   4591663.92361
  22752290.5284   10866773.89146   8467609.39762
  22047027.8644  -12567220.04647  -9674677.60462
 91  5  2 21 42  0.0010000  0  4G 2G11G19G 6
  21163289.3964  -12954760.80348 -10094602.36063
  24912691.216     5940356.721 5   4628851.75721
  22759139.4424   10902767.68646   8495656.47962
  22043136.4034  -12587668.46447  -9690611.43263
 91  5  2 21 42 15.0010000  0  4G 2G11G19G 6
  21163168.6924  -12955398.78848 -10095099.49163
  24921790.8964    5988165.82745   4666105.55361
  22765999.825    10938819.471 6   8523748.74322
  22039251.6064  -12608089.67847  -9706524.05562
 91  5  2 21 42 30.0010000  0  4G 2G11G19G 6
  21163058.1854  -12955976.86048 -10095549.93463
  24930902.935     6036053.334 5   4703420.43621
  22772871.2634   10974923.51346   8551881.71562
  22035369.9034  -12628489.38047  -9722419.91863
 91  5  2 21 42 45.0010000  0  4G 2G11G19G 6
  21162960.0834  -12956491.77448 -10095951.16363
  24940030.5054    6084022.14445   4740798.66661
  22779752.294    11011082.873 6   8580057.79722
  22031492.4274  -12648864.25847  -9738296.43662
 91  5  2 21 43  0.0010000  0  4G 2G11G19G 6
  21162878.2864  -12956927.83348 -10096290.94363
  24949176.513     6132087.915 5   4778252.47321
  22786646.2634   11047313.43446   8608289.36862
  22027622.9194  -12669198.18447  -9754141.04762
 91  5  2 21 43 15.0010000  0  3G 2G19G 6
  21162807.6774  -12957297.97648 -10096579.35963
  22793551.9424   11083602.22046   8636566.30562
  22023759.4584  -12689504.06147  -9769963.79762
 91  5  2 21 43 30.0010000  0  3G 2G19G 6
  21162746.4744  -12957601.40148 -10096815.79963
  22800469.1144   11119950.16946   8664889.35062
  22019901.3644  -12709780.76347  -9785763.82162
 91  5  2 21 43 45.0010000  0  3G 2G19G 6
  21162704.9894  -12957834.05348 -10096997.07863
  22807398.3644   11156361.38246   8693261.68361
  22016047.8104  -12730024.07347  -9801537.81762
 91  5  2 21 44  0.0010000  0  3G 2G19G 6
  21162672.6304  -12957996.17848
  22814338.786    11192835.857 6   8721683.31522
  22012202.1924  -12750233.83547  -9817285.67162
 91  5  2 21 44 15.0010000  0  3G 2G19G 6
  21162657.0604  -12958089.84048
  22821290.3964   11229371.44946   8750152.56662
  22008362.7164  -12770412.10247  -9833008.99762
 91  5  2 21 44 30.0010000  0  3G 2G19G 6
  21162651.7314  -12958115.06048
  22828254.0214   11265968.32946   8778669.57762
  22004528.8104  -12790558.40547  -9848707.40663
 91  5  2 21 44 45.0010000  0  3G 2G19G 6
  21162659.7004  -12958077.39548
  22835230.3644   11302620.69046   8807229.81862
  22000699.6614  -12810678.28447  -9864385.22763
 91  5  2 21 45  0.0010000  0  3G 2G19G 6
  21162675.1694  -12957977.38748
  22842213.356    11339328.281 6   8835833.09022
  21996876.1614  -12830771.97547  -9880042.64262
 91  5  2 21 45 15.0010000  0  3G 2G19G 6
  21162705.841   -12957821.491 8
  22849209.427    11376084.774 6   8864474.47022
  21993055.6854  -12850845.68447  -9895684.49562
 91  5  2 21 45 30.0010000  0  3G 2G19G 6
  21162743.6144  -12957610.88848
  22856214.005    11412889.050 6   8893153.08222
  21989239.4664  -12870900.40547  -9911311.54362
 91  5  2 21 45 45.0010000  0  3G 2G19G 6
  21162797.3804  -12957346.70348 -10096617.30163
  22863224.927    11449739.942 6   8921868.02022
  21985425.9114  -12890937.09247  -9926924.53762
 91  5  2 21 46  0.0010000  0  3G 2G19G 6
  21162855.4744  -12957030.44548 -10096370.86663
  22870246.997    11486636.012 6   8950618.15522
  21981616.7784  -12910956.82647  -9942524.32462
 91  5  2 21 46 15.0010000  0  3G 2G19G 6
  21162925.0284  -12956668.86648 -10096089.11463
  22877275.1384   11523570.48746   8979398.22762
  21977810.0214  -12930966.31547  -9958116.12962
 91  5  2 21 46 30.0010000  0  3G 2G19G 6
  21163001.7714  -12956262.84948 -10095772.73263
  22884310.661    11560542.674 6   9008207.67521
  21974003.2394  -12950966.05847  -9973700.33563
 91  5  2 21 46 45.0010000  0  3G 2G19G 6
  21163089.5134  -12955811.30348 -10095420.88063
  22891353.474    11597553.617 6   9037047.31722
  21970199.3334  -12970954.88147  -9989276.03963
 91  5  2 21 47  0.0010000  0  3G 2G19G 6
  21163181.9584  -12955317.33048 -10095035.96563
  22898403.044    11634600.493 6   9065914.97022
  21966397.9814  -12990935.63947 -10004845.44963
 91  5  2 21 47 15.0010000  0  3G 2G19G 6
  21163286.7164  -12954775.58448 -10094613.82363
  22905461.810    11671688.581 6   9094814.72821
  21962597.6144  -13010902.69447 -10020404.18462
 91  5  2 21 47 30.0010000  0  3G 2G19G 6
  21163398.4894  -12954186.94248 -10094155.14263
  22912526.778    11708817.052 6   9123745.95921
  21958800.1224  -13030856.67347 -10035952.73462
 91  5  2 21 47 45.0010000  0  3G 2G19G 6
  21163517.9354  -12953546.63648 -10093656.20463
  22919601.114    11745990.742 6   9152712.42021
  21955008.1774  -13050792.59047 -10051487.21262
 91  5  2 21 48  0.0010000  0  3G 2G19G 6
  21163652.3494  -12952853.47648 -10093116.07563
  22926686.0364   11783210.97346   9181715.16261
  21951216.4504  -13070708.94147 -10067006.43963
 91  5  2 21 48 15.0010000  0  3G 2G19G 6
  21163794.9894  -12952105.61048 -10092533.31963
  22933774.731    11820479.602 6   9210755.60621
  21947430.4114  -13090603.68347 -10082508.82963
 91  5  2 21 48 30.0010000  0  3G 2G19G 6
  21163946.1144  -12951305.77348 -10091910.07163
  22940876.2944   11857794.01246   9239831.71961
  21943649.7554  -13110479.22947 -10097996.26563
 91  5  2 21 48 45.0010000  0  3G 2G19G 6
  21164108.1224  -12950452.59248 -10091245.25363
  22947985.4584   11895155.54746   9268944.57661
  21939870.8804  -13130334.11247 -10113467.59163
 91  5  2 21 49  0.0010000  0  3G 2G19G 6
  21164280.5754  -12949546.79448 -10090539.43663
  22955104.833    11932563.425 6   9298093.51921
  21936097.5284  -13150168.78447 -10128923.17263
 91  5  2 21 49 15.0010000  0  3G 2G19G 6
  21164463.6304  -12948587.05648 -10089791.58363
  22962232.067    11970019.303 6   9327279.86321
  21932325.9974  -13169981.65647 -10144361.77263
 91  5  2 21 49 30.0010000  0  3G 2G19G 6
  21164655.3884  -12947572.08448 -10089000.69663
  22969373.1304   12007524.37646   9356504.56861
  21928561.0914  -13189771.21847 -10159782.19462
 91  5  2 21 49 45.0010000  0  3G 2G19G 6
  21164861.2394  -12946499.75448 -10088165.11263
  22976515.552    12045080.730 6   9385769.21821
  21924798.8104  -13209535.11147 -10175182.62362
 91  5  2 21 50  0.0010000  0  3G 2G19G 6
  21165075.7084  -12945369.90748 -10087284.70463
  22983671.9894   12082689.02946   9415074.35461
  21921044.8564  -13229272.70847 -10190562.56262
 91  5  2 21 50 15.0010000  0  3G 2G19G 6
  21165302.7634  -12944180.29848 -10086357.73363
  22990839.161    12120351.371 6   9444421.58221
  21917293.4894  -13248981.73047 -10205920.23063
 91  5  2 21 50 30.0010000  0  3G 2G19G 6
  21165538.9974  -12942932.55048 -10085385.46063
  22998016.247    12158066.121 6   9473809.64321
  21913547.6614  -13268663.60147 -10221256.74363
 91  5  2 21 50 45.0010000  0  3G 2G19G 6
  21165786.9584  -12941626.19648 -10084367.52563
  23005203.5834   12195833.64246   9503238.85361
  21909808.4664  -13288317.58647 -10236571.53062
 91  5  2 21 51  0.0010000  0  3G 2G19G 6
  21166047.5674  -12940261.45048 -10083304.08063
  23012402.474    12233653.991 6   9532709.20421
  21906072.3564  -13307943.53747 -10251864.47262
 91  5  2 21 51 15.0010000  0  3G 2G19G 6
  21166318.1064  -12938840.70948 -10082197.00963
  23019607.4744   12271524.76146   9562218.84061
  21902343.0754  -13327543.76347 -10267137.36362
 91  5  2 21 51 30.0010000  0  3G 2G19G 6
  21166599.1854  -12937363.20248 -10081045.70463
  23026822.044    12309446.825 6   9591768.45521
  21898618.2864  -13347116.97947 -10282389.21762
 91  5  2 21 51 45.0010000  0  3G 2G19G 6
  21166892.5444  -12935825.44448 -10079847.44863
  23034051.419    12347423.716 6   9621360.79421
  21894898.4424  -13366659.66347 -10297617.27362
 91  5  2 21 52  0.0010000  0  3G 2G19G 6
  21167196.1384  -12934229.52048 -10078603.86963
  23041289.974    12385453.479 6   9650994.33121
  21891185.9584  -13386173.57847 -10312822.91662
 91  5  2 21 52 15.0010000  0  3G 2G19G 6
  21167509.8884  -12932574.92048 -10077314.56963
  23048535.294    12423536.556 6   9680669.40621
  21887478.6614  -13405657.90147 -10328005.50662
 91  5  2 21 52 30.0010000  0  3G 2G19G 6
  21167835.7474  -12930862.67248 -10075980.34963
  23055790.3804   12461671.89846   9710385.20161
  21883775.9504  -13425113.51347 -10343165.71762
 91  5  2 21 52 45.0010000  0  3G 2G19G 6
  21168173.2714  -12929091.22048 -10074599.99663
  23063058.896    12499861.274 6   9740143.10121
  21880079.638   -13444538.686 7 -10358302.20522
 91  5  2 21 53  0.0010000  0  3G 2G19G 6
  21168521.0444  -12927260.42348 -10073173.39663
  23070336.114    12538104.812 6   9769943.20221
  21876388.9194  -13463932.92347 -10373414.59063
 91  5  2 21 53 15.0010000  0  3G 2G19G 6
  21168881.0754  -12925369.67448 -10071700.08563
  23077624.606    12576403.076 6   9799785.95421
  21872704.3804  -13483295.54047 -10388502.33763
 91  5  2 21 53 30.0010000  0  3G 2G19G 6
  21169252.2244  -12923418.50548 -10070179.69164
  23084921.403    12614756.596 6   9829671.76621
  21869025.466   -13502625.686 7 -10403564.77523
 91  5  2 21 53 45.0010000  0  3G 2G19G 6
  21169635.9814  -12921408.30448 -10068613.29863
  23092230.4114   12653164.25046   9859599.74961
  21865353.4664  -13521924.43247 -10418602.75463
 91  5  2 21 54  0.0010000  0  3G 2G19G 6
  21170029.9974  -12919337.97248 -10067000.05363
  23099552.942    12691627.173 6   9889570.80621
  21861687.0754  -13541190.33047 -10433615.13762
 91  5  2 21 54 15.0010000  0  3G 2G19G 6
  21170435.0364  -12917206.69048 -10065339.31363
  23106880.130    12730146.103 6   9919585.50521
  21858026.9974  -13560422.43347 -10448601.18363
 91  5  2 21 54 30.0010000  0  3G 2G19G 6
  21170851.7164  -12915014.90648 -10063631.42763
  23114220.356    12768720.641 6   9949643.54321
  21854374.2004  -13579620.98047 -10463561.08463
 91  5  2 21 54 45.0010000  0  3G 2G19G 6
  21171280.1144  -12912762.78048 -10061876.52163
  23121573.0524   12807350.82246   9979744.92061
  21850727.6924  -13598785.81547 -10478494.71463
 91  5  2 21 55  0.0010000  0  3G 2G19G 6
  21171719.7244  -12910454.30248 -10060077.71063
  23128933.747    12846032.431 6  10009886.37821
  21847085.8724  -13617920.86447 -10493405.13163
 91  5  2 21 55 15.0010000  0  3G 2G19G 6
  21172170.5604  -12908087.77048 -10058233.65663
  23136304.6464   12884767.28846  10040069.33061
  21843451.3804  -13637023.94447 -10508290.64663
 91  5  2 21 55 30.0010000  0  3G 2G19G 6
  21172631.3334  -12905658.67448 -10056340.85163
  23143686.044    12923560.174 6  10070297.50421
  21839822.5214  -13656090.26947 -10523147.51863
 91  5  2 21 55 45.0010000  0  3G 2G19G 6
  21173105.2944  -12903169.52448 -10054401.25263
  23151078.8724   12962408.58746  10100568.93561
  21836201.7164  -13675122.17447 -10537977.56863
 91  5  2 21 56  0.0010000  0  3G 2G19G 6
  21173591.0214  -12900619.63648 -10052414.32463
  23158482.5674   13001313.16746  10130884.13461
  21832587.0284  -13694118.72747 -10552780.06563
 91  5  2 21 56 15.0010000  0  3G 2G19G 6
  21174086.4814  -12898011.88048 -10050382.30464
  23165894.255    13040271.078 6  10161240.89321
  21828978.3564  -13713082.45247 -10567556.98663
 91  5  2 21 56 30.0010000  0  3G 2G19G 6
  21174594.3414  -12895346.12848 -10048305.10063
  23173319.9274   13079282.51246  10191639.35461
  21825375.8884  -13732013.10447 -10582308.13163
 91  5  2 21 56 45.0010000  0  3G 2G19G 6
  21175113.4814  -12892617.55448 -10046178.93164
  23180754.560    13118352.353 6  10222083.34021
  21821780.2784  -13750905.50747 -10597029.47563
 91  5  2 21 57  0.0010000  0  3G 2G19G 6
  21175644.3334  -12889828.50748 -10044005.64663
  23188198.888    13157478.123 6  10252570.90821
  21818192.8494  -13769761.89147 -10611722.75563
 91  5  2 21 57 15.0010000  0  3G 2G19G 6
  21176185.8254  -12886981.13448 -10041786.90963
  23195655.4584   13196657.89046  10283100.53661
  21814609.6924  -13788584.01447 -10626389.33763
 91  5  2 21 57 30.0010000  0  3G 2G19G 6
  21176740.1304  -12884072.37948 -10039520.34864
  23203121.575    13235894.894 6  10313674.77921
  21811034.8724  -13807368.51447 -10641026.60163
 91  5  2 21 57 45.0010000  0  3G 2G19G 6
  21177305.2394  -12881102.95348 -10037206.49764
  23210598.5054   13275188.39846  10344293.04561
  21807467.3564  -13826115.93747 -10655634.97263
 91  5  2 21 58  0.0010000  0  3G 2G19G 6
  21177881.6534  -12878075.27948 -10034847.27763
  23218087.778    13314536.127 6  10374953.55921
  21803906.271   -13844828.378 7 -10670216.08323
 91  5  2 21 58 15.0010000  0  3G 2G19G 6
  21178469.6224  -12874986.59848 -10032440.51263
  23225583.5054   13353940.88446  10405658.50561
  21800353.5604  -13863502.70147 -10684767.49663
 91  5  2 21 58 30.0010000  0  3G 2G19G 6
  21179067.6224  -12871837.80248 -10029986.90663
  23233095.083    13393401.597 6  10436407.06221
  21796807.1694  -13882139.75547 -10699289.86763
 91  5  2 21 58 45.0010000  0  4G13G 2G19G 6
  24543212.0754         -0.10254
  21179678.4664  -12868630.12848 -10027487.41663
  23240613.638    13432917.035 6  10467198.25721
  21793267.4974  -13900740.55647 -10713783.99063
 91  5  2 21 59  0.0010000  0  4G13G 2G19G 6
  24532525.8964     -56171.43744
  21180299.6694  -12865363.21548 -10024941.76763
  23248144.005    13472487.662 6  10498032.47121
  21789735.2244  -13919304.48247 -10728249.37563
 91  5  2 21 59 15.0010000  0  4G13G 2G19G 6
  24521839.7314    -112323.10444
  21180933.5674  -12862037.11148 -10022349.99864
  23255683.325    13512113.544 6  10528909.72621
  21786208.5674  -13937831.09647 -10742685.69163
 91  5  2 21 59 30.0010000  0  4G13G 2G19G 6
  24511157.3494    -168455.23344
  21181577.4894  -12858652.84548 -10019712.90364
  23263235.692    13551793.711 6  10559829.29121
  21782690.3414  -13956321.03847 -10757093.43063
 91  5  2 21 59 45.0010000  0  4G13G 2G19G 6
  24500483.2164    -224563.11444
  21182233.0834  -12855205.99848 -10017027.04664
  23270796.8414   13591532.57846  10590794.58761
  21779179.9584  -13974769.83947 -10771469.11163
 91  5  2 22  0  0.0010000  0  4G13G 2G19G 6
  24489809.5914    -280647.22144
  21182899.8334  -12851697.59748 -10014293.22764
  23278370.247    13631329.089 6  10621804.80221
  21775677.5754  -13993178.32547 -10785813.37463
 91  5  2 22  0 15.0010000  0  4G13G 2G19G 6
  24479141.8804    -336705.02144
  21183580.9584  -12848125.62648 -10011509.87264
  23285953.630    13671185.424 6  10652861.64521
  21772181.771   -14011544.140 7 -10800124.38723
 91  5  2 22  0 30.0010000  0  4G13G 2G19G 6
  24468476.771     -392740.918 4
  21184271.7244  -12844494.81148 -10008680.66164
  23293553.028    13711096.922 6  10683961.46121
  21768694.3494  -14029871.77147 -10814405.65063
 91  5  2 22  0 45.0010000  0  4G13G 2G19G 6
  24457818.442     -448752.355 4        -0.34331
  21184973.3494  -12840802.78448 -10005803.75563
  23301154.153    13751065.748 6  10715105.95621
  21765214.5834  -14048158.66247 -10828655.16963
 91  5  2 22  1  0.0010000  0  4G13G 2G19G 6
  24447164.4194    -504740.88545    -43627.57961
  21185687.2084  -12837051.88648 -10002880.97763
  23308770.692    13791090.013 6  10746293.65521
  21761742.1924  -14066406.74747 -10842874.44463
 91  5  2 22  1 15.0010000  0  4G13G 2G19G 6
  24436514.8254    -560705.54445    -87236.22361
  21186412.3564  -12833241.61448  -9999911.92963
  23316397.669    13831170.131 6  10777524.85421
  21758276.9584  -14084615.25547 -10857062.88163
 91  5  2 22  1 30.0010000  0  4G13G 2G19G 6
  24425869.8564    -616642.42745   -130823.25961
  21187149.5054  -12829368.44048  -9996893.86763
  23324037.044    13871309.838 6  10808802.50121
  21754820.5754  -14102780.21847 -10871217.38963
 91  5  2 22  1 45.0010000  0  4G13G 2G19G 6
  24415229.458     -672556.257 5   -174392.28821
  21187897.5834  -12825437.52348  -9993830.81864
  23331684.997    13911503.723 6  10840122.36121
  21751371.5754  -14120906.71247 -10885341.91863
 91  5  2 22  2  0.0010000  0  4G13G 2G19G 6
  24404597.560     -728445.680 5   -217942.32721
  21188657.0134  -12821447.82948  -9990721.96364
  23339348.239    13951752.948 6  10871485.34321
  21747929.6224  -14138993.49147 -10899435.50263
 91  5  2 22  2 15.0010000  0  4G13G 2G19G 6
  24393966.263     -784307.791 5   -261471.05521
  21189428.1924  -12817397.13848  -9987565.57664
  23347014.3564   13992059.55346  10902893.04361
  21744495.5284  -14157038.02547 -10913496.17063
 91  5  2 22  2 30.0010000  0  4G13G 2G19G 6
  24383340.5754    -840144.72245   -304980.20761
  21190209.7004  -12813288.07848  -9984363.70764
  23354696.106    14032421.079 6  10934343.53221
  21741069.6144  -14175042.73447 -10927525.80563
 91  5  2 22  2 45.0010000  0  4G13G 2G19G 6
  24372717.9354    -895956.17145   -348469.44161
  21191002.9504  -12809120.66348  -9981116.36764
  23362386.1694   14072837.61046  10965836.89261
  21737651.1924  -14193007.26547 -10941524.13163
 91  5  2 22  3  0.0010000  0  4G13G 2G19G 6
  24362105.106     -951740.519 5   -391937.61321
  21191806.9034  -12804893.83448  -9977822.73764
  23370088.981    14113310.213 6  10997373.93321
  21734240.0834  -14210930.32647 -10955490.14663
 91  5  2 22  3 15.0010000  0  4G13G 2G19G 6
  24351493.653    -1007500.688 5   -435386.95321
  21192621.7634  -12800611.01948  -9974485.47664
  23377800.153    14153835.581 6  11028952.10021
  21730836.583   -14228815.077 7 -10969426.29823
 91  5  2 22  3 30.0010000  0  4G13G 2G19G 6
  24340884.864    -1063230.080 5   -478812.31121
  21193449.1384  -12796266.02948  -9971099.76563
  23385526.872    14194419.550 6  11060575.92721
  21727441.0674  -14246655.15347 -10983327.64563
 91  5  2 22  3 45.0010000  0  4G13G 2G19G 6
  24330287.6064   -1118931.56345   -522215.90261
  21194286.8414  -12791862.08848  -9967668.11764
  23393256.966    14235059.208 6  11092243.14221
  21724055.1534  -14264453.42147 -10997196.41663
 91  5  2 22  4  0.0010000  0  4G13G 2G19G 6
  24319691.1534   -1174604.70244   -565597.38161
  21195135.9424  -12787399.47548  -9964190.75564
  23401001.528    14275754.484 6  11123953.69321
  21720675.9744  -14282209.71847 -11011032.48363
 91  5  2 22  4 15.0010000  0  4G13G 2G19G 6
  24309102.817    -1230245.412 4   -608953.65521
  21195997.7244  -12782874.39848  -9960664.72164
  23408755.466    14316508.911 6  11155710.33821
  21717306.8964  -14299920.31247 -11024832.94063
 91  5  2 22  4 30.0010000  0  4G13G 2G19G 6
  24298521.599    -1285853.827 4   -652284.73021
  21196870.0524  -12778287.27148  -9957090.33463
  23416526.989    14357322.071 5  11187512.74621
  21713944.1854  -14317585.30847 -11038597.86763
 91  5  2 22  4 45.0010000  0  4G13G 2G19G 6
  24287943.7244   -1341431.17444   -695591.59161
  21197754.7394  -12773640.12148  -9953469.18064
  23424299.6384   14398192.20946  11219359.55261
  21710591.6924  -14335206.31047 -11052328.51063
 91  5  2 22  5  0.0010000  0  4G13G 2G19G 6
  24277374.4894   -1396976.62244   -738873.56761
  21198650.8804  -12768932.54848  -9949800.93764
  23432088.247    14439119.801 5  11251251.12921
  21707247.349   -14352782.489 7 -11066024.22423
 91  5  2 22  5 15.0010000  0  4G13G 2G19G 6
  24266811.575    -1452489.638 4   -782130.32821
  21199558.6774  -12764164.44748  -9946085.53764
  23439886.896    14480104.887 5  11283187.50321
  21703911.106   -14370313.618 7 -11079684.82823
 91  5  2 22  5 30.0010000  0  4G13G 2G19G 6
  24256254.3174   -1507971.89044   -825363.07061
  21200476.7554  -12759337.75948  -9942324.48263
  23447698.9974   14521145.53645  11315167.17361
  21700583.8724  -14387801.30847 -11093311.58863
 91  5  2 22  5 45.0010000  0  4G13G 2G19G 6
  24245704.1224   -1563416.48744   -868566.51061
  21201408.0214  -12754446.22948  -9938512.90063
  23455519.146    14562248.022 5  11347195.03121
  21697264.505   -14405239.052 7 -11106899.42923
 91  5  2 22  6  0.0010000  0  4G13G 2G19G 6
  24235159.1534   -1618824.70445   -911741.58461
  21202350.6304  -12749491.64048  -9934652.17963
  23463351.833    14603410.696 5  11379269.78421
  21693955.4424  -14422628.49347 -11120449.63363
 91  5  2 22  6 15.0010000  0  4G13G 2G19G 6
  24224622.8104   -1674193.09145   -954885.63961
  21203305.8174  -12744470.92248  -9930739.92963
  23471196.9584   14644636.68145  11411393.87661
  21690656.6064  -14439966.31547 -11133959.61963
 91  5  2 22  6 30.0010000  0  4G13G 2G19G 6
  24214093.9814   -1729523.04745   -997999.71261
  21204273.2784  -12739385.82348  -9926777.51163
  23479057.794    14685924.282 5  11443565.97621
  21687366.4504  -14457253.82247 -11147430.39363
 91  5  2 22  6 45.0010000  0  4G13G 2G19G 6
  24203573.763    -1784807.987 5  -1041078.74021
  21205254.2244  -12734230.24648  -9922760.17663
  23486923.880    14727279.333 5  11475790.64021
  21684088.302   -14474484.658 7 -11160857.00423
 91  5  2 22  7  0.0010000  0  4G13G 2G19G 6
  24193060.2084   -1840049.67745  -1084124.04661
  21206247.9194  -12729006.57348  -9918689.77963
  23494805.6614   14768699.61745  11508066.12161
  21680819.294   -14491660.993 7 -11174241.14723
 91  5  2 22  7 15.0010000  0  4G13G 2G19G 6
  24182555.036    -1895250.764 5  -1127137.71821
  21207255.4584  -12723718.02548  -9914568.83163
  23502699.122    14810181.973 5  11540389.98321
  21677560.778   -14508785.794 7 -11187585.13823
 91  5  2 22  7 30.0010000  0  5G13G 2G15G19G 6
  24172059.794    -1950409.666 5  -1170118.53221
  21208273.6304  -12718363.55148  -9910396.51063
  24735647.0524     -18134.23945
  23510607.481    14851727.553 5  11572763.11321
  21674310.7554  -14525857.50147 -11200887.75563
 91  5  2 22  7 45.0010000  0  5G13G 2G15G19G 6
  24161572.825    -2005523.658 5  -1213064.32821
  21209305.3494  -12712940.57848  -9906170.81363
  24732216.3644     -36163.15745
  23518522.9194   14893338.89245  11605187.47161
  21671074.3564  -14542873.46647 -11214146.94463
 91  5  2 22  8  0.0010000  0  5G13G 2G15G19G 6
  24151092.2554   -2060595.33545  -1255977.17161
  21210350.6614  -12707452.38448  -9901894.29963
  24728801.372      -54089.856 5
  23526456.083    14935012.851 5  11637660.62621
  21667845.8494  -14559836.45647 -11227364.85063
 91  5  2 22  8 15.0010000  0  5G13G 2G15G19G 6
  24140621.1384   -2115626.86345  -1298858.74961
  21211406.0914  -12701901.58448  -9897568.99663
  24725408.771      -71916.305 5
  23534395.927    14976746.856 5  11670180.57621
  21664628.4114  -14576748.99247 -11240543.44263
 91  5  2 22  8 30.0010000  0  5G13G 2G15G19G 6
  24130155.966    -2170618.613 5  -1341709.30021
  21212474.3024  -12696288.89948  -9893195.47063
  24722046.153      -89642.895 5        -0.14331
  23542349.505    15018540.045 5  11702746.63921
  21661418.7784  -14593611.46147 -11253683.02263
 91  5  2 22  8 45.0010000  0  5G13G 2G15G19G 6
  24119697.4194   -2225569.01945  -1384527.60961
  21213554.6694  -12690613.21748  -9888772.85863
  24718685.8644    -107268.37445    -13734.21261
  23550312.567    15060393.442 5  11735359.61721
  21658219.0604  -14610422.64147 -11266782.63263
 91  5  2 22  9  0.0010000  0  5G13G 2G15G19G 6
  24109249.302    -2280477.509 5  -1427313.31121
  21214646.2164  -12684874.38948  -9884301.03963
  24715344.1064    -124791.81345    -27388.77461
  23558291.239    15102307.450 5  11768019.83621
  21655030.8024  -14627181.86647 -11279841.76263
 91  5  2 22  9 15.0010000  0  5G13G 2G15G19G 6
  24098807.8964   -2335344.66045  -1470066.77461
  21215750.7244  -12679073.72648  -9879781.03863
  24712035.247     -142214.268 5    -40964.65021
  23566276.3174   15144280.69946  11800726.20861
  21651850.4894  -14643890.18647 -11292861.22463
 91  5  2 22  9 30.0010000  0  5G13G 2G15G19G 6
  24088375.106    -2390168.589 5  -1512786.58321
  21216866.2164  -12673209.61248  -9875211.59764
  24708742.310     -159533.835 5    -54460.36621
  23574276.9584   15186314.67346  11833479.89561
  21648681.7944  -14660545.85147 -11305839.66263
 91  5  2 22  9 45.0010000  0  5G13G 2G15G19G 6
  24077949.536    -2444952.096 5  -1555474.86821
  21217993.6384  -12667285.07348  -9870595.06863
  24705461.6534    -176753.08545    -67877.91961
  23582286.5524   15228406.53646  11866278.69661
  21645522.2474  -14677151.60247 -11318779.20363
 91  5  2 22 10  0.0010000  0  5G13G 2G15G19G 6
  24067533.3334   -2499689.94045  -1598127.55861
  21219133.5994  -12661295.28648  -9865927.70063
  24702204.231     -193867.014 5    -81213.36321
  23590307.208    15270561.122 6  11899126.36621
  21642370.9744  -14693702.37947 -11331675.90263
 91  5  2 22 10 15.0010000  0  5G13G 2G15G19G 6
  24057124.4894   -2554385.97545  -1640747.69761
  21220284.5604  -12655244.78748  -9861213.02363
  24698967.5834    -210879.64545    -94469.90561
  23598339.435    15312773.877 6  11932019.36621
  21639232.5524  -14710202.44647 -11344533.09063
 91  5  2 22 10 30.0010000  0  5G13G 2G15G19G 6
  24046725.9194   -2609040.48645  -1683335.48661
  21221447.4194  -12649134.60148  -9856451.83263
  24695749.8024    -227791.36545   -107647.83061
  23606384.872    15355043.883 6  11964956.97321
  21636101.9894  -14726652.26547 -11357351.12863
 91  5  2 22 10 45.0010000  0  5G13G 2G15G19G 6
  24036333.7784   -2663652.05945  -1725889.76761
  21222622.2944  -12642963.64948  -9851643.29663
  24692554.528     -244600.834 5   -120746.03021
  23614437.919    15397372.212 6  11997940.03821
  21632980.3414  -14743050.67347 -11370129.10563
 91  5  2 22 11  0.0010000  0  5G13G 2G15G19G 6
  24025948.638    -2718218.522 5  -1768408.97521
  21223807.6534  -12636730.31048  -9846786.14763
  24689375.497     -261306.183 5   -133763.14021
  23622505.3174   15439760.52646  12030969.83561
  21629870.6534  -14759395.70847 -11382865.48863
 91  5  2 22 11 15.0010000  0  5G13G 2G15G19G 6
  24015572.146    -2772743.527 5  -1810895.82321
  21225005.1464  -12630438.47648  -9841883.41463
  24686215.6384    -277910.93045   -146701.84561
  23630580.239    15482204.873 6  12064043.30221
  21626769.6614  -14775691.07147 -11395563.17063
 91  5  2 22 11 30.0010000  0  5G13G 2G15G19G 6
  24005205.278    -2827226.415 5  -1853349.84321
  21226214.0914  -12624088.04448  -9836935.02364
  24683071.3174    -294414.54345   -159561.73361
  23638670.7244   15524705.43046  12097160.55961
  21623677.9274  -14791936.25347 -11408221.74663
 91  5  2 22 11 45.0010000  0  5G13G 2G15G19G 6
  23994845.9504   -2881663.65445  -1895768.35061
  21227433.5604  -12617676.00148  -9831938.62863
  24679943.0674    -310813.58645   -172340.13761
  23646767.5914   15567265.11646  12130323.89761
  21620597.6304  -14808128.02447 -11420838.70263
 91  5  2 22 12  0.0020000  0  5G13G 2G15G19G 6
  23984495.182    -2936058.929 5  -1938154.11021
  21228665.8544  -12611202.50748  -9826894.34564
  24676858.221     -327109.357 5   -185038.07221
  23654880.2834   15609886.23946  12163535.10061
  21617526.1044  -14824267.74447 -11433415.10163
 91  5  2 22 12 15.0020000  0  5G13G 2G15G19G 6
  23974153.3774   -2990407.12645  -1980503.21861
  21229908.7994  -12604670.72848  -9821804.64664
  24673766.3384    -343301.80045
  23662998.4244   15652560.91846  12196788.03561
  21614464.0644  -14840355.30647
 91  5  2 22 12 30.0020000  0  5G13G 2G15G19G 6
  23963818.432    -3044711.635 5  -2022818.27521
  21231162.9944  -12598080.57448  -9816669.45964
  24670707.3384    -359391.99045
  23671131.4794   15695291.65846  12230084.65361
  21611413.0574  -14856391.71347
 91  5  2 22 12 45.0020000  0  5G13G 2G15G19G 6
  23953494.588    -3098967.912 5  -2065095.75621
  21232428.6044  -12591427.81948  -9811485.49663
  24667664.0724    -375375.23645
  23679274.5494   15738082.56646  12263428.15561
  21608371.7444  -14872372.74047
 91  5  2 22 13  0.0020000  0  5G13G 2G15G19G 6
  23943179.361    -3153178.396 5  -2107337.55621
  21233707.1584  -12584715.41248  -9806255.05364
  24664647.5024    -391254.22545
  23687431.2134   15780930.67945  12296816.23761
  21605340.7914  -14888301.04447
 91  5  2 22 13 15.0020000  0  5G13G 2G15G19G 6
  23932871.3464   -3207343.04245  -2149543.63261
  21234995.3544  -12577943.88148  -9800978.53264
  24661645.877     -407028.981 5   -247312.80521
  23695591.4864   15823835.48545  12330248.49561
  21602320.4864  -14904176.76447 -11495681.83663
 91  5  2 22 13 30.0020000  0  5G13G 2G15G19G 6
  23922572.9794   -3261463.04245  -2191714.89861
  21236294.2524  -12571115.11848  -9795657.41963
  24658657.7444    -422700.74545   -259524.51161
  23703769.4634   15866795.34145  12363723.64461
  21599309.2054  -14920001.26947 -11508012.60563
 91  5  2 22 13 45.0020000  0  5G13G 2G15G19G 6
  23912281.1664   -3315537.23645  -2233850.50461
  21237605.0184  -12564228.17748  -9790290.97664
  24655691.2294    -438268.43945   -271655.13461
  23711953.5334   15909811.18545  12397242.41961
  21596307.3614  -14935773.44747 -11520302.60563
 91  5  2 22 14  0.0020000  0  5G13G 2G15G19G 6
  23902002.432    -3369562.259 5  -2275947.77221
  21238927.7444  -12557280.17348  -9784876.94864
  24652752.9244    -453728.73845   -283702.09461
  23720151.2364   15952885.88045  12430807.05561
  21593315.8384  -14951490.05347 -11532549.30363
 91  5  2 22 14 15.0020000  0  5G13G 2G15G19G 6
  23891727.6894   -3423543.41645  -2318010.88361
  21240259.5334  -12550276.89848  -9779419.85264
  24649830.0964    -469087.24945   -295669.72461
  23728357.549    15996013.580 5  12464412.99321
  21590335.2054  -14967156.70847 -11544757.07863
 91  5  2 22 14 30.0020000  0  5G13G 2G15G19G 6
  23881465.3464   -3477474.94245  -2360035.29761
  21241604.0884  -12543213.09748  -9773915.59264
  24646933.150     -484338.274 5   -307553.60921
  23736578.2364   16039199.65345  12498064.41561
  21587365.0104  -14982767.87047 -11556921.61463
 91  5  2 22 14 45.0020000  0  5G13G 2G15G19G 6
  23871211.025    -3531359.416 5  -2402023.06121
  21242958.9394  -12536091.74948  -9768366.49164
  24644046.549     -499484.092 5   -319355.49621
  23744804.1434   16082441.21245  12531759.07661
  21584404.2834  -14998326.21647 -11569044.99363
 91  5  2 22 15  0.0020000  0  5G13G 2G15G19G 6
  23860966.4634   -3585193.03245  -2443971.20061
  21244325.4164  -12528909.45948  -9762769.90564
  24641182.736     -514521.096 5   -331072.58521
  23753042.9084   16125741.52445  12565499.50761
  21581453.9164  -15013827.97847 -11581124.27863
 91  5  2 22 15 15.0020000  0  5G13G 2G15G19G 6
  23850732.6114   -3638975.63145  -2485879.59161
  21245703.8224  -12521666.39748  -9757125.96364
  24638346.0964    -529449.29845   -342704.92361
  23761293.9474   16169100.24445  12599285.46561
  21578514.4634  -15029273.35047 -11593159.63163
 91  5  2 22 15 30.0020000  0  5G13G 2G15G19G 6
  23840506.0884   -3692706.42445  -2527747.60661
  21247093.8384  -12514362.49648  -9751434.61664
  24635526.439     -544268.300 5   -354252.13721
  23769559.3384   16212517.43045  12633116.97161
  21575587.0494  -15044661.74047 -11605150.57763
 91  5  2 22 15 45.0020000  0  5G13G 2G15G19G 6
  23830292.994    -3746385.991 5  -2569575.71521
  21248495.7294  -12506998.90048  -9745696.75164
  24632724.736     -558978.699 5   -365714.75721
  23777828.1114   16255991.99945  12666993.19061
  21572668.4164  -15059993.97947 -11617097.76063
 91  5  2 22 16  0.0020000  0  5G13G 2G15G19G 6
  23820087.619    -3800010.247 5  -2611360.71321
  21249908.5964  -12499571.60948  -9739909.25264
  24629951.221     -573576.441 5   -377089.57521
  23786117.1824   16299527.88945  12700917.18961
  21569762.4394  -15075265.88347 -11628997.95063
 91  5  2 22 16 15.0020000  0  5G13G 2G15G19G 6
  23809891.8464   -3853581.18045  -2653104.19861
  21251333.2754  -12492083.07248  -9734074.03464
  24627192.627     -588063.368 5   -388378.04521
  23794410.6434   16343122.87845  12734887.24961
  21566868.0254  -15090479.61947 -11640852.79863
 91  5  2 22 16 30.0020000  0  5G13G 2G15G19G 6
  23799710.822    -3907098.214 5  -2694805.63821
  21252770.7834  -12484533.20448  -9728191.02164
  24624453.0494    -602439.19045   -399579.94861
  23802719.572    16386776.979 5  12768903.36221
  21563983.7684  -15105634.83947 -11652662.05463
 91  5  2 22 16 45.0020000  0  5G13G 2G15G19G 6
  23789538.330    -3960558.595 5  -2736462.96721
  21254219.2444  -12476919.91648  -9722258.59064
  24621741.9794    -616701.27845   -410693.23861
  23811035.979    16430492.474 5  12802967.30921
  21561110.3934  -15120729.04447 -11664423.76663
 91  5  2 22 17  0.0020000  0  5G13G 2G15G19G 6
  23779375.0494   -4013961.11445  -2778075.16761
  21255679.9394  -12469242.37548  -9716276.09164
  24619051.861     -630848.633 5   -421717.11621
  23819370.4944   16474270.11745  12837079.69261
  21558250.3384  -15135761.20347 -11676137.13763
 91  5  2 22 17 15.0020000  0  5G13G 2G15G19G 6
  23769224.182    -4067308.246 5  -2819644.26821
  21257151.7294  -12461503.70248  -9710245.96064
  24616387.744     -644883.988 5   -432653.71521
  23827707.494    16518106.668 5  12871237.97121
  21555401.0804  -15150734.10447 -11687804.32463
 91  5  2 22 17 30.0020000  0  5G13G 2G15G19G 6
  23759084.1194   -4120593.79945  -2861165.34861
  21258637.5024  -12453697.92548  -9704163.53564
  24613733.275     -658800.971 5   -443498.07921
  23836062.986    16562008.013 5  12905446.73521
  21552564.8854  -15165641.53047 -11699420.49663
 91  5  2 22 17 45.0020000  0  5G13G 2G15G19G 6
  23748954.354    -4173819.220 5  -2902639.58721
  21260136.2604  -12445827.06948  -9698030.39864
  24611105.049     -672601.103 5   -454251.40421
  23844429.346    16605972.502 5  12939704.70121
  21549739.4474  -15180485.15447 -11710986.95563
 91  5  2 22 18  0.0020000  0  5G13G 2G15G19G 6
  23738837.7754   -4226985.98145  -2944068.10661
  21261645.6274  -12437892.97648  -9691847.99764
  24608503.783     -686285.997 5   -464914.91721
  23852807.916    16649998.035 5  12974010.23221
  21546926.1974  -15195266.47747 -11722504.86663
 91  5  2 22 18 15.0020000  0  5G13G 2G15G19G 6
  23728731.8934   -4280090.56145  -2985448.18561
  21263167.7054  -12429892.48248  -9685613.84464
  24605918.877     -699852.115 5   -475485.88621
  23861196.713    16694087.705 5  13008365.74521
  21544127.0254  -15209982.10247 -11733971.58063
 91  5  2 22 18 30.0020000  0  5G13G 2G15G19G 6
  23718636.7994   -4333136.89745  -3026782.88961
  21264702.3544  -12421830.11248  -9679331.48364
  24603350.689     -713303.618 5   -485967.54621
  23869601.111    16738237.219 5  13042767.88121
  21541338.6824  -15224636.17947 -11745390.33663
 91  5  2 22 18 45.0020000  0  5G13G 2G15G19G 6
  23708554.189    -4386127.794 5  -3068074.38021
  21266247.9004  -12413709.26948  -9673003.55264
  24600818.5964    -726643.70545   -496362.37661
  23878009.768    16782443.010 5  13077213.87821
  21538560.7214  -15239232.16847 -11756763.82963
 91  5  2 22 19  0.0020000  0  5G13G 2G15G19G 6
  23698481.5334   -4439060.21645  -3109320.29361
  21267804.3934  -12405526.95248  -9666627.71964
  24598307.346     -739869.013 5   -506667.77521
  23886438.791    16826707.950 5  13111705.96521
  21535794.9004  -15253766.51147 -11768089.28563
 91  5  2 22 19 15.0020000  0  5G13G 2G15G19G 6
  23688418.0884   -4491938.43745  -3150524.00361
  21269371.9634  -12397288.16348  -9660207.88864
  24595807.307     -752984.048 5   -516887.23821
  23894868.408    16871027.093 5  13146240.29121
  21533040.1434  -15268243.83547 -11779370.30663
 91  5  2 22 19 30.0020000  0  5G13G 2G15G19G 6
  23678363.8694   -4544772.52945  -3191693.30661
  21270949.2134  -12389003.27548  -9653752.13164
  24593329.979     -765999.054 5   -527028.76021
  23903310.447    16915390.002 5  13180808.71221
  21530293.7524  -15282674.39347 -11790614.88963
 91  5  2 22 19 45.0020000  0  5G13G 2G15G19G 6
  23668318.299    -4597557.534 5  -3232824.36221
  21272535.4714  -12380667.69648  -9647256.87764
  24590876.5884    -778909.18945   -537088.56461
  23911760.658    16959801.462 5  13215414.96521
  21527557.0644  -15297053.49947 -11801819.38263
 91  5  2 22 20  0.0020000  0  5G13G 2G15G19G 6
  23658285.166    -4650285.154 5  -3273910.71721
  21274132.3384  -12372273.98748  -9640716.32564
  24588437.5334    -791706.44845   -547060.41761
  23920223.830    17004269.024 5  13250064.93221
  21524832.7294  -15311372.96147 -11812977.40563
 91  5  2 22 20 15.0020000  0  5G13G 2G15G19G 6
  23648263.8464   -4702951.14445  -3314949.03861
  21275741.1664  -12363818.35448  -9634127.52264
  24586025.611     -804386.678 5   -556941.06921
  23928696.400    17048796.346 5  13284761.47321
  21522120.5254  -15325628.69647 -11824085.76163
 91  5  2 22 20 30.0020000  0  5G13G 2G15G19G 6
  23638251.135    -4755559.799 5  -3355942.68421
  21277361.1274  -12355305.24548  -9627493.92964
  24583633.479     -816954.072 5   -566733.82121
  23937180.705    17093378.791 5  13319500.95621
  21519418.3694  -15339825.21947 -11835147.97763
 91  5  2 22 20 45.0020000  0  5G13G 2G15G19G 6
  23628250.7294   -4808111.90145  -3396892.27461
  21278992.7134  -12346736.04648  -9620816.63264
  24581261.2604    -829409.61445   -576439.40461
  23945673.307    17138015.339 5  13354282.60921
  21516727.4714  -15353963.44447 -11846164.77163
 91  5  2 22 21  0.0020000  0  5G13G 2G15G19G 6
  23618262.705    -4860604.207 5  -3437795.27221
  21280633.4474  -12338107.91348  -9614093.41564
  24578913.736     -841750.257 5   -586055.47121
  23954180.635    17182708.474 5  13389108.34421
  21514048.7914  -15368040.16847 -11857133.64663
 91  5  2 22 21 15.0020000  0  5G13G 2G15G19G 6
  23608285.510    -4913037.157 5  -3478652.00721
  21282286.1824  -12329421.73248  -9607324.96264
  24576584.432     -853976.342 5   -595582.26521
  23962693.7684   17227457.33345  13423977.51361
  21511383.0804  -15382056.16547 -11868055.19664
 91  5  2 22 21 30.0020000  0  5G13G 2G15G19G 6
  23598320.0414   -4965406.46145  -3519459.16661
  21283951.7364  -12320673.58448  -9600508.22464
  24574285.424     -866083.941 5   -605016.72121
  23971222.861    17272265.968 5  13458893.25221
  21508727.7294  -15396007.17947 -11878926.11063
 91  5  2 22 21 45.0020000  0  5G13G 2G15G19G 6
  23588366.604    -5017714.894 5  -3560218.87021
  21285627.2684  -12311866.82548  -9593645.81264
  24572000.1044    -878075.85845   -614361.03061
  23979757.5334   17317131.04545  13493852.95961
  21506084.1194  -15409896.18047 -11889748.70163
 91  5  2 22 22  0.0020000  0  5G13G 2G15G19G 6
  23578422.885    -5069960.142 5  -3600929.34821
  21287314.5644  -12302999.65548  -9586736.33064
  24569742.135     -889949.896 5   -623613.51221
  23988310.010    17362054.183 5  13528857.92521
  21503453.7214  -15423721.25847 -11900521.48763
 91  5  2 22 22 15.0020000  0  5G13G 2G15G19G 6
  23568493.783    -5122144.242 5  -3641592.21021
  21289013.1114  -12294074.45948  -9579781.63464
  24567505.018     -901708.162 5   -632775.75021
  23996866.877    17407033.190 5  13563906.42221
  21500835.1044  -15437484.22947 -11911245.87363
 91  5  2 22 22 30.0020000  0  5G13G 2G15G19G 6
  23558573.393    -5174266.637 5  -3682206.96721
  21290722.7524  -12285091.20748  -9572781.69564
  24565292.5184    -913350.18845   -641847.43061
  24005437.799    17452068.049 5  13598998.44721
  21498227.5804  -15451184.87247 -11921921.69263
 91  5  2 22 22 45.0020000  0  5G13G 2G15G19G 6
  23548668.9714   -5226327.16545  -3722773.52161
  21292443.1824  -12276050.05548  -9565736.64964
  24563098.1354    -924876.01445   -650828.56361
  24014016.799    17497158.509 5  13634133.78621
  21495631.7834  -15464823.04247 -11932548.83663
 91  5  2 22 23  0.0020000  0  5G13G 2G15G19G 6
  23538771.4794   -5278328.47945  -3763293.91961
  21294174.0644  -12266954.12048  -9558648.90864
  24560921.783     -936288.353 5   -659721.25221
  24022606.729    17542301.622 5  13669310.15821
  21493049.1664  -15478401.65447 -11943129.56964
 91  5  2 22 23 15.0020000  0  5G13G 2G15G19G 6
  23528886.346    -5330268.548 5  -3803766.60021
  21295915.9794  -12257801.98648  -9551517.38064
  24558780.3614    -947585.44045   -668524.14261
  24031207.135    17587498.799 5  13704528.65821
  21490476.2684  -15491918.80147 -11953662.40164
 91  5  2 22 23 30.0020000  0  5G13G 2G15G19G 6
  23519015.080    -5382147.246 5  -3844191.45221
  21297668.6114  -12248593.79648  -9544342.16664
  24556649.5644    -958767.07045   -677237.06361
  24039821.080    17632749.651 5  13739788.98321
  21487914.8074  -15505374.40747 -11964147.28164
 91  5  2 22 23 45.0020000  0  5G13G 2G15G19G 6
  23509153.479    -5433965.465 5  -3884569.21521
  21299431.1664  -12239330.65448  -9537124.13264
  24554542.369     -969834.308 5   -685860.85321
  24048439.463    17678052.863 5  13775090.10221
  21485366.4634  -15518769.66547 -11974585.13964
 91  5  2 22 24  0.0020000  0  5G13G 2G15G19G 6
  23499304.666    -5485722.893 5  -3924899.56321
  21301203.2994  -12230012.82848  -9529863.49164
  24552461.674     -980786.928 5   -694395.32921
  24057072.314    17723408.243 5  13810431.87921
  21482829.8854  -15532104.41747 -11984975.84963
 91  5  2 22 24 15.0020000  0  5G13G 2G15G19G 6
  23489467.494    -5537414.616 5  -3965178.74321
  21302988.8384  -12220636.16248  -9522556.99764
  24550399.330     -991620.434 5   -702836.99721
  24065714.2054   17768820.00645  13845817.58461
  21480303.6894  -15545373.89747 -11995315.70463
 91  5  2 22 24 30.0020000  0  5G13G 2G15G19G 6
  23479641.7134   -5589049.00345  -4005413.23161
  21304782.2684  -12211209.39048  -9515211.46564
  24548350.791    -1002343.178 5   -711192.37221
  24074364.252    17814279.432 5  13881240.43121
  21477789.3854  -15558586.71147 -12005611.39363
 91  5  2 22 24 45.0020000  0  5G13G 2G15G19G 6
  23469828.096    -5640623.366 5  -4045600.94021
  21306585.0414  -12201730.10848  -9507825.01364
  24546337.986    -1012952.188 5   -719459.10821
  24083025.197    17859789.206 5  13916702.51121
  21475287.2684  -15571740.05147 -12015860.74163
 91  5  2 22 25  0.0020000  0  5G13G 2G15G19G 6
  23460024.4164   -5692136.74045  -4085741.13961
  21308399.8774  -12192198.03048  -9500397.41964
  24544344.400    -1023447.061 5   -727636.91021
  24091693.689    17905349.604 5  13952204.03421
  21472795.2994  -15584833.26847 -12026063.24264
 91  5  2 22 25 15.0020000  0  5G13G 2G15G19G 6
  23450232.588    -5743588.721 5  -4125833.50921
  21310224.7684  -12182613.13548  -9492928.67564
  24542365.502    -1033827.716 5   -735725.70621
  24100373.799    17950960.369 5  13987744.80821
  21470314.6824  -15597866.16247 -12036218.73764
 91  5  2 22 25 30.0020000  0  5G13G 2G15G19G 6
  23440455.088    -5794982.196 6  -4165880.28021
  21312056.6824  -12172978.54848  -9485421.20164
  24540404.658    -1044096.835 5   -743727.60121
  24109066.049    17996618.314 5  14023322.34821
  21467846.4554  -15610841.64747 -12046329.50163
 91  5  2 22 25 45.0020000  0  5G13G 2G15G19G 6
  23430688.2294   -5846310.68546  -4205876.39961
  21313901.2444  -12163288.22448  -9477870.30764
  24538477.2834   -1054247.99445   -751637.56361
  24117759.166    18042329.560 5  14058941.41621
  21465388.9714  -15623753.43347 -12056390.63163
 91  5  2 22 26  0.0020000  0  5G13G 2G15G19G 6
  23420930.4794   -5897579.67646  -4245826.16361
  21315755.2294  -12153548.55948  -9470280.96564
  24536566.9164   -1064287.35545   -759460.40861
  24126469.1824   18088087.88645  14094597.16761
  21462941.8854  -15636607.29147 -12066406.61963
 91  5  2 22 26 15.0020000  0  5G13G 2G15G19G 6
  23411186.9714   -5948783.48146  -4285725.14761
  21317617.9244  -12143754.15448  -9462648.96364
  24534681.6354   -1074209.22445   -767191.69861
  24135185.2604   18133898.38945  14130293.57161
  21460508.9084  -15649397.94447 -12076373.35463
 91  5  2 22 26 30.0020000  0  5G13G 2G15G19G 6
  23401456.0574   -5999922.13646  -4325573.35761
  21319492.4634  -12133905.25748  -9454974.50264
  24532817.025    -1084013.280 5   -774831.18621
  24143912.611    18179760.865 5  14166030.48521
  21458086.9164  -15662125.22847 -12086290.70663
 91  5  2 22 26 45.0020000  0  5G13G 2G15G19G 6
  23391736.8224   -6051000.59046  -4365374.65761
  21321376.1504  -12124007.42748  -9447261.91164
  24530976.213    -1093704.991 5   -782383.13421
  24152649.8224   18225669.76945  14201803.56561
  21455675.1194  -15674794.19547 -12096162.62663
 91  5  2 22 27  0.0020000  0  5G13G 2G15G19G 6
  23382029.0184   -6102016.72246  -4405127.39661
  21323268.7754  -12114058.88148  -9439509.80064
  24529151.8694   -1103282.23945   -789845.89461
  24161397.510    18271626.832 5  14237614.17521
  21453276.4944  -15687402.93147 -12105987.60563
 91  5  2 22 27 15.0020000  0  5G13G 2G15G19G 6
  23372332.877    -6152965.887 6  -4444827.96121
  21325172.7524  -12104055.30748  -9431714.81564
  24527346.7134   -1112740.43245   -797215.88461
  24170148.6894   18317636.34845  14273465.65261
  21450889.5644  -15699946.99547 -12115762.19663
 91  5  2 22 27 30.0020000  0  5G13G 2G15G19G 6
  23362649.6894   -6203846.59846  -4484475.17361
  21327087.6274  -12093995.56148  -9423876.05764
  24525572.7294   -1122078.18145   -804492.02161
  24178916.0334   18363699.36045  14309358.82561
  21448514.5964  -15712424.86847 -12125485.21663
 91  5  2 22 27 45.0020000  0  5G13G 2G15G19G 6
  23352979.119    -6254662.755 6  -4524072.09121
  21329011.3384  -12083884.25348  -9415997.11964
  24523810.994    -1131299.743 5   -811677.62221
  24187688.447    18409811.313 5  14345290.11821
  21446152.6664  -15724840.69047 -12135159.88463
 91  5  2 22 28  0.0020000  0  5G13G 2G15G19G 6
  23343322.861    -6305411.372 6  -4563616.38221
  21330946.2524  -12073718.90448  -9408076.07164
  24522087.174    -1140402.364 5   -818770.56321
  24196475.2994   18455974.75145  14381261.53961
  21443801.8544  -15737191.59347 -12144783.95863
 91  5  2 22 28 15.0020000  0  5G13G 2G15G19G 6
  23333678.5494   -6356093.29746  -4603108.70161
  21332890.1434  -12063500.42048  -9400113.62664
  24520370.0574   -1149386.78545   -825771.38561
  24205269.338    18502188.402 5  14417272.10321
  21441463.7754  -15749478.51447 -12154358.17563
 91  5  2 22 28 30.0020000  0  5G13G 2G15G19G 6
  23324047.0104   -6406707.48846  -4642548.23661
  21334844.3224  -12053228.44548  -9392109.49364
  24518680.635    -1158252.202 5   -832679.49021
  24214077.0414   18548452.86545  14453322.24361
  21439138.8464  -15761700.82847 -12163882.05463
 91  5  2 22 28 45.0020000  0  5G13G 2G15G19G 6
  23314427.4554   -6457253.83946  -4681934.92061
  21336810.3694  -12042903.24348  -9384063.88264
  24517024.3544   -1166998.54645   -839494.78961
  24222887.5884   18594767.94245  14489411.81461
  21436824.1744  -15773858.41747 -12173355.49663
 91  5  2 22 29  0.0020000  0  5G13G 2G15G19G 6
  23304820.7914   -6507734.02046  -4721270.04861
  21338784.2294  -12032527.15048  -9375978.61864
  24515379.3774   -1175627.78445   -846218.83661
  24231708.9554   18641131.18945  14525538.94261
  21434523.2054  -15785952.93747 -12182779.80063
 91  5  2 22 29 15.0020000  0  5G13G 2G15G19G 6
  23295230.7524   -6558141.14746  -4760548.23761
  21340770.0964  -12022093.56448  -9367848.55664
  24513772.4714   -1184133.18245   -852846.38661
  24240542.0494   18687549.20445  14561708.72461
  21432234.1744  -15797977.65247 -12192149.70463
 91  5  2 22 29 30.0020000  0  5G13G 2G15G19G 6
  23285650.7524   -6608480.57746  -4799773.67461
  21342765.0024  -12011608.24448  -9359678.18164
  24512168.143    -1192520.204 5   -859381.68021
  24249387.8144   18734016.22345  14597916.71161
  21429959.2914  -15809938.06947 -12201469.50363
 91  5  2 22 29 45.0020000  0  5G13G 2G15G19G 6
  23276086.213    -6658749.009 6  -4838943.79921
  21344770.4164  -12001068.53848  -9351465.42764
  24510588.1274   -1200785.91245   -865822.46261
  24258236.346    18780534.748 5  14634164.82321
  21427696.2914  -15821831.53247 -12210737.13163
 91  5  2 22 30  0.0020000  0  5G13G 2G15G19G 6
  23266532.322    -6708946.739 6  -4878058.82521
  21346787.0964  -11990474.90848  -9343210.65564
  24509047.2834   -1208930.67445   -872168.99861
  24267099.0254   18827104.11545  14670452.54661
  21425444.7294  -15833658.29347 -12219952.78963
 91  5  2 22 30 15.0020000  0  5G13G 2G15G19G 6
  23256993.6354   -6759072.34346  -4917117.65061
  21348812.7054  -11979826.16548  -9334912.93564
  24507520.5334   -1216952.90045   -878420.05361
  24275969.6274   18873725.68445  14706780.95161
  21423208.6584  -15845416.65947 -12229115.14263
 91  5  2 22 30 30.0020000  0  5G13G 2G15G19G 6
  23247467.799    -6809128.221 6  -4956122.14621
  21350849.8384  -11969125.16448  -9326574.50264
  24506016.916    -1224855.063 5   -884577.56121
  24284852.432    18920396.638 5  14743147.84721
  21420981.8384  -15857109.01047 -12238226.06564
 91  5  2 22 30 45.0020000  0  5G13G 2G15G19G 6
  23237957.166    -6859111.155 6  -4995069.80121
  21352895.6354  -11958369.48548  -9318193.45864
  24504528.8464   -1232634.24645   -890639.24261
  24293743.8224   18967119.42745  14779555.12161
  21418771.7684  -15868732.64147 -12247283.43864
 91  5  2 22 31  0.0020000  0  5G13G 2G15G19G 6
  23228460.002    -6909021.283 6  -5033960.72621
  21354953.2994  -11947559.61548  -9309770.18864
  24503076.393    -1240290.815 5   -896605.37221
  24302645.3464   19013893.52645  14816002.38261
  21416571.4944  -15880287.90447 -12256287.53464
 91  5  2 22 31 15.0020000  0  5G13G 2G15G19G 6
  23218976.518    -6958855.461 6  -5072792.46021
  21357020.4864  -11936692.68348  -9301302.45564
  24501644.463    -1247821.940 5   -902473.75921
  24311553.541    19060721.588 5  14852491.67221
  21414387.7444  -15891771.75147 -12265235.98763
 91  5  2 22 31 30.0020000  0  5G13G 2G15G19G 6
  23209506.986    -7008615.391 6  -5111566.35921
  21359099.5334  -11925771.11648  -9292792.15064
  24500233.096    -1255229.665 5   -908245.99021
  24320479.4714   19107601.10845  14889021.06961
  21412214.2914  -15903186.19347 -12274130.35663
 91  5  2 22 31 45.0020000  0  5G13G 2G15G19G 6
  23200052.650    -7058299.368 6  -5150281.07021
  21361188.1194  -11914793.38048  -9284238.07364
  24498842.0414   -1262512.10645   -913920.60261
  24329406.502    19154533.612 5  14925591.75721
  21410056.3614  -15914529.21147 -12282969.07063
 91  5  2 22 32  0.0020000  0  5G13G 2G15G19G 6
  23190613.971    -7107904.225 6  -5188934.13021
  21363288.9324  -11903756.70848  -9275638.07364
  24497487.588    -1269666.009 5   -919495.05021
  24338349.8614   19201521.87445  14962205.88361
  21407911.6354  -15925797.83647 -12291749.81463
 91  5  2 22 32 15.0020000  0  5G13G 2G15G19G 6
  23181188.018    -7157430.680 6  -5227526.09921
  21365399.9474  -11892662.25548  -9266993.04864
  24496146.885    -1276692.339 5   -924970.08521
  24347301.549    19248564.804 5  14998862.60721
  21405781.4244  -15936993.02947 -12300473.34063
 91  5  2 22 32 30.0020000  0  5G13G 2G15G19G 6
  23171778.111    -7206879.725 6  -5266057.74921
  21367522.0964  -11881511.82348  -9258304.40564
  24494838.846    -1283592.555 5   -930346.85321
  24356264.9244   19295660.53745  15035560.48161
  21403664.4084  -15948116.34347 -12309140.85063
 91  5  2 22 32 45.0020000  0  5G13G 2G15G19G 6
  23162384.002    -7256246.929 6  -5304525.61821
  21369654.5414  -11870300.96048  -9249568.67264
  24493542.6744   -1290362.06945   -935621.76561
  24365235.916    19342813.413 5  15072302.87221
  21401563.6664  -15959162.88247 -12317748.54463
 91  5  2 22 33  0.0020000  0  5G13G 2G15G19G 6
  23153004.1044   -7305537.53746  -5342933.80761
  21371799.2604  -11859035.40748  -9240790.31764
  24492286.385    -1297006.256 5   -940799.04221
  24374218.5494   19390017.66345  15109085.32161
  21399474.0254  -15970138.13047 -12326300.68063
 91  5  2 22 33 15.0020000  0  5G13G 2G15G19G 6
  23143638.939    -7354750.259 6  -5381281.30621
  21373953.5884  -11847714.51448  -9231968.84264
  24491045.650    -1303524.352 5   -945878.05621
  24383210.2294   19437273.99245  15145908.32361
  21397399.6744  -15981041.28547 -12334796.64163
 91  5  2 22 33 30.0020000  0  5G13G 2G15G19G 6
  23134290.2214   -7403885.24846  -5419568.24061
  21376118.1274  -11836338.79048  -9223104.64664
  24489822.252    -1309916.529 5   -950858.94721
  24392214.822    19484581.930 5  15182771.55021
  21395338.9554  -15991872.40547 -12343236.46963
 91  5  2 22 33 45.0020000  0  5G13G 2G15G19G 6
  23124953.979    -7452943.489 6  -5457795.37521
  21378292.9324  -11824909.88448  -9214199.00364
  24488635.447    -1316184.144 5   -955742.76921
  24401227.0254   19531939.64145  15219673.55661
  21393289.7604  -16002632.83947 -12351621.21663
 91  5  2 22 34  0.0020000  0  5G13G 2G15G19G 6
  23115632.986    -7501922.270 6  -5495960.58521
  21380478.5724  -11813425.04348  -9205249.78564
  24487465.072    -1322324.233 5   -960527.23021
  24410249.611    19579349.700 5  15256616.34821
  21391257.6894  -16013319.61247 -12359948.56763
 91  5  2 22 34 15.0020000  0  5G13G 2G15G19G 6
  23106326.213    -7550824.112 6  -5534065.83421
  21382674.0494  -11801887.49448  -9196259.48964
  24486323.807    -1328339.703 5   -965214.58521
  24419280.885    19626809.166 5  15293597.63721
  21389236.2994  -16023935.55647 -12368220.72163
 91  5  2 22 34 30.0020000  0  5G13G 2G15G19G 6
  23097036.049    -7599648.930 6  -5572111.07521
  21384879.3614  -11790297.36648  -9187228.22464
  24485196.3854   -1334230.52945   -969804.80661
  24428321.455    19674317.696 5  15330617.16521
  21387229.6894  -16034480.60047 -12376437.62463
 91  5  2 22 34 45.0020000  0  5G13G 2G15G19G 6
  23087760.4714   -7648391.67446  -5610092.36961
  21387095.5804  -11778650.12748  -9178152.45664
  24484105.2604   -1339991.96645   -974294.20261
  24437372.2524   19721879.75345  15367678.42461
  21385238.0024  -16044949.86947 -12384595.49063
 91  5  2 22 35  0.0020000  0  5G13G 2G15G19G 6
  23078499.057    -7697055.725 6  -5648012.33921
  21389322.8464  -11766949.52748  -9169035.10564
  24483035.189    -1345627.130 5   -978685.21821
  24446433.158    19769491.488 5  15404778.35721
  21383259.3544  -16055346.92947 -12392697.08863
 91  5  2 22 35 15.0020000  0  5G13G 2G15G19G 6
  23069253.611    -7745642.320 6  -5685871.95521
  21391558.5104  -11755197.22748  -9159877.47364
  24481982.760    -1351137.860 5   -982979.24421
  24455503.010    19817150.910 5  15441915.48521
  21381294.1824  -16065673.35847 -12400743.65863
 91  5  2 22 35 30.0020000  0  5G13G 2G15G19G 6
  23060024.111    -7794147.488 6  -5723668.12621
  21393805.8384  -11743389.69648  -9150676.80564
  24480959.549    -1356520.461 5   -987173.46021
  24464580.674    19864861.898 5  15479092.76221
  21379344.1664  -16075925.07047 -12408731.99963
 91  5  2 22 35 45.0020000  0  5G13G 2G15G19G 6
  23050808.9794   -7842573.05746  -5761402.26761
  21396062.7444  -11731529.16048  -9141434.83064
  24479957.580    -1361776.910 5   -991269.37621
  24473668.986    19912621.978 5  15516308.30421
  21377406.0964  -16086104.13847 -12416663.73463
 91  5  2 22 36  0.0020000  0  5G13G 2G15G19G 6
  23041609.3224   -7890915.42246  -5799071.59061
  21398330.4554  -11719612.58348  -9132149.19464
  24478980.2134   -1366903.71145   -995264.24661
  24482767.4944   19960434.41444  15553564.61861
  21375484.0494  -16096206.91847 -12424536.02963
 91  5  2 22 36 15.0020000  0  5G13G 2G15G19G 6
  23032426.236    -7939174.280 6  -5836675.81321
  21400608.4164  -11707639.95748  -9122819.88064
  24478030.385    -1371900.450 5   -999157.78021
  24491874.900    20008299.219 4  15590861.75921
  21373576.6504  -16106233.07047 -12432348.61063
 91  5  2 22 36 30.0020000  0  5G13G 2G15G19G 6
  23023257.8074   -7987350.26646  -5874215.48161
  21402897.5184  -11695612.23348  -9113447.62964
  24477106.8544   -1376768.08945  -1002950.73361
  24500996.3304   20056215.14844  15628198.72861
  21371683.1824  -16116183.55647 -12440102.22963
 91  5  2 22 36 45.0020000  0  5G13G 2G15G19G 6
  23014106.5104   -8035444.56146  -5911691.49061
  21405196.6354  -11683531.29848  -9104033.91964
  24476199.830    -1381508.187 5  -1006644.29521
  24510123.236    20104180.326 5  15665574.07921
  21369802.3144  -16126059.87147 -12447798.05763
 91  5  2 22 37  0.0020000  0  5G13G 2G15G19G 6
  23004970.861    -8083459.258 6  -5949105.48221
  21407505.1354  -11671399.52148  -9094580.58964
  24475326.2364   -1386122.82845  -1010240.10261
  24519260.283    20152192.410 4  15702985.98121
  21367937.6894  -16135864.18047 -12455437.77763
 91  5  2 22 37 15.0020000  0  5G13G 2G15G19G 6
  22995848.5574   -8131390.12646  -5986454.14161
  21409823.8854  -11659213.10248  -9085084.68464
  24474468.9634   -1390608.03345  -1013735.05761
  24528405.8224   20200255.17544  15740437.36061
  21366086.4634  -16145592.20047 -12463018.04663
 91  5  2 22 37 30.0020000  0  5G13G 2G15G19G 6
  22986744.4714   -8179238.39446  -6023738.44761
  21412152.9944  -11646973.65448  -9075547.45264
  24473643.088    -1394965.291 5  -1017130.31621
  24537561.588    20248366.846 4  15777926.88921
  21364248.8384  -16155245.43647 -12470540.04363
 91  5  2 22 37 45.0020000  0  5G13G 2G15G19G 6
  22977655.7294   -8227002.33646  -6060957.04861
  21414492.3464  -11634679.62648  -9065967.69664
  24472836.783    -1399192.511 5  -1020424.22121
  24546725.5334   20296528.89744  15815455.65461
  21362426.7994  -16164822.17447 -12478002.43063
 91  5  2 22 38  0.0020000  0  5G13G 2G15G19G 6
  22968584.2214   -8274683.55946  -6098111.18061
  21416841.5964  -11622333.17848  -9056347.09064
  24472061.8854   -1403291.86145  -1023618.49261
  24555904.2444   20344739.05744  15853021.87961
  21360618.2134  -16174324.13747 -12485406.55363
 91  5  2 22 38 15.0020000  0  5G13G 2G15G19G 6
  22959523.5884   -8322282.30446  -6135201.04461
  21419200.5024  -11609935.15348  -9046686.29764
  24471295.057    -1407263.903 5  -1026713.56721
  24565080.611    20392996.457 4  15890624.93721
  21358825.0494  -16183751.84347 -12492752.81863
 91  5  2 22 38 30.0020000  0  5G13G 2G15G19G 6
  22950481.3224   -8369795.08946  -6172223.93761
  21421569.9554  -11597482.54548  -9036982.97464
  24470566.3074   -1411105.30345  -1029706.83661
  24574277.2214   20441304.15144  15928267.18861
  21357045.4714  -16193102.03547 -12500038.67763
 91  5  2 22 38 45.0020000  0  5G13G 2G15G19G 6
  22941457.3854   -8417221.97146  -6209179.88861
  21423950.5024  -11584975.64348  -9027237.33464
  24469868.9164   -1414816.16145  -1032598.38361
  24583475.7754   20489661.72344  15965948.28861
  21355281.0414  -16202374.46547 -12507263.94963
 91  5  2 22 39  0.0020000  0  5G13G 2G15G19G 6
  22932448.0024   -8464562.78546  -6246068.77061
  21426341.2364  -11572414.63248  -9017449.54464
  24469183.814    -1418396.505 5  -1035388.24321
  24592691.525    20538068.796 4  16003667.98021
  21353531.6894  -16211569.49147 -12514428.89663
 91  5  2 22 39 15.0020000  0  5G13G 2G15G19G 6
  22923454.643    -8511816.182 6  -6282889.53621
  21428742.0254  -11559798.51648  -9007618.81164
  24468529.6824   -1421845.07745  -1038075.40661
  24601910.4794   20586526.51444  16041427.12761
  21351796.0574  -16220685.63147 -12521532.37863
 91  5  2 22 39 30.0020000  0  5G13G 2G15G19G 6
  22914480.658    -8558980.916 6  -6319641.21521
  21431153.4394  -11547126.66848  -8997744.65164
  24467890.1274   -1425160.93345  -1040659.17261
  24611145.455    20635035.427 4  16079226.16621
  21350076.5334  -16229721.80647 -12528573.55463
 91  5  2 22 39 45.0020000  0  5G13G 2G15G19G 6
  22905522.5334   -8606055.28446  -6356322.46761
  21433575.5334  -11534397.70048  -8987825.97964
  24467286.721    -1428342.389 5  -1043138.20321
  24620380.9944   20683596.80744  16117066.09361
  21348372.5574  -16238676.56947 -12535551.28363
 91  5  2 22 40  0.0020000  0  5G13G 2G15G19G 6
  22896580.0724   -8653044.76446  -6392937.58761
  21436008.2684  -11521617.13848  -8977867.10763
  24466710.197    -1431395.177 5  -1045516.99221
  24629633.643    20732205.132 4  16154942.59721
  21346683.4324  -16247555.03747 -12542469.56963
 91  5  2 22 40 15.0020000  0  5G13G 2G15G19G 6
  22887655.2994   -8699946.63446  -6429484.43761
  21438450.4474  -11508782.77248  -8967866.30964
  24466155.854    -1434316.588 5  -1047793.38721
  24638890.1584   20780862.60444  16192857.38161
  21345008.1354  -16256354.72847 -12549326.46963
 91  5  2 22 40 30.0020000  0  5G13G 2G15G19G 6
  22878747.7054   -8746758.80446  -6465961.39261
  21440903.4794  -11495893.27148  -8957822.54964
  24465623.2054   -1437104.87845  -1049966.08161
  24648162.8544   20829570.56044  16230811.50261
  21343348.8934  -16265073.87247 -12556120.60663
 91  5  2 22 40 45.0020000  0  5G13G 2G15G19G 6
  22869857.346    -8793481.211 6  -6502368.39121
  21443366.5334  -11482949.05348  -8947736.15064
  24465115.713    -1439760.231 5  -1052035.16621
  24657438.9554   20878328.40244  16268804.49161
  21341706.1114  -16273712.67347 -12562852.14163
 91  5  2 22 41  0.0020000  0  5G13G 2G15G19G 6
  22860982.963    -8840112.201 6  -6538704.18021
  21445840.0804  -11469948.65048  -8937605.96964
  24464632.1584   -1442281.24645  -1053999.56761
  24666731.0804   20927137.58644  16306837.51161
  21340077.3854  -16282269.43147 -12569519.74863
 91  5  2 22 41 15.0020000  0  5G13G 2G15G19G 6
  22852126.8304   -8886654.42646  -6574970.78361
  21448324.2214  -11456895.05348  -8927434.34264
  24464183.8854   -1444670.60345  -1055861.37861
  24676025.518    20975995.076 4  16344908.16621
  21338463.9714  -16290746.91447 -12576125.57363
 91  5  2 22 41 30.0020000  0  5G13G 2G15G19G 6
  22843286.7134   -8933106.82246  -6611167.39161
  21450818.5184  -11443787.82948  -8917220.92464
  24463754.9944   -1446927.61745  -1057620.05261
  24685330.7134   21024901.25544  16383016.73961
  21336866.4164  -16299144.38947 -12582669.05563
 91  5  2 22 41 45.0020000  0  5G13G 2G15G19G 6
  22834464.8544   -8979468.93946  -6647293.65561
  21453323.0414  -11430626.94048  -8906965.68964
  24463352.5334   -1449052.06045  -1059275.43761
  24694645.0184   21073855.96944  16421163.15461
  21335282.6584  -16307461.40647 -12589149.84863
 91  5  2 22 42  0.0020000  0  5G13G 2G15G19G 6
  22825660.6504   -9025735.26746  -6683345.28061
  21455838.5964  -11417407.16048  -8896664.56264
  24462975.5104   -1451038.54546  -1060823.33061
  24703975.8544   21122864.40044  16459351.41161
  21333716.3774  -16315692.60447 -12595563.76363
 91  5  2 22 42 15.0020000  0  5G13G 2G15G19G 6
  22816874.1584   -9071903.75146  -6719320.67061
  21458365.5494  -11404126.60248  -8886316.07864
  24462621.3854   -1452885.01045  -1062262.12361
  24713309.111    21171928.427 4  16497582.99921
  21332167.0644  -16323835.79647 -12601909.10863
 91  5  2 22 42 30.0020000  0  5G13G 2G15G19G 6
  22808107.5494   -9117970.89846  -6755217.08561
  21460905.0724  -11390782.08948  -8875917.76064
  24462295.3144   -1454588.19245  -1063589.27061
  24722658.1744   21221051.06144  16535860.24161
  21330635.6584  -16331887.52047 -12608183.17463
 91  5  2 22 42 45.0020000  0  5G13G 2G15G19G 6
  22799361.1044   -9163938.46246  -6791035.91161
  21463455.2754  -11377376.14448  -8865471.57264
  24461993.6744   -1456150.32045  -1064806.51261
  24732015.385    21270229.685 4  16574181.12921
  21329120.3224  -16339849.94847 -12614387.65763
 91  5  2 22 43  0.0020000  0  5G13G 2G15G19G 6
  22790631.3934   -9209807.07446  -6826777.62261
  21466017.7524  -11363909.86048  -8854978.37364
  24461722.7914   -1457572.05845  -1065914.33561
  24741387.0254   21319463.27844  16612544.83461
  21327622.6194  -16347723.73147 -12620523.06763
 91  5  2 22 43 15.0020000  0  5G13G 2G15G19G 6
  22781922.494    -9255572.108 6  -6862438.63221
  21468592.6584  -11350378.82348  -8844434.70864
  24461484.572    -1458848.865 5  -1066909.24021
  24750766.6194   21368756.21544  16650954.77961
  21326141.9794  -16355504.32747 -12626585.86563
 91  5  2 22 43 30.0020000  0  5G13G 2G15G19G 6
  22773234.4164   -9301235.43646  -6898020.39061
  21471179.9084  -11336785.39448  -8833842.42864
  24461271.830    -1459982.686 5  -1067792.70921
  24760158.2684   21418106.19644  16689409.18661
  21324677.5104  -16363193.73047 -12632577.60663
 91  5  2 22 43 45.0020000  0  5G13G 2G15G19G 6
  22764562.4474   -9346797.86846  -6933523.52061
  21473778.7684  -11323130.62248  -8823202.34864
  24461073.549    -1460974.748 5  -1068565.73421
  24769559.5804   21467511.66344  16727906.82761
  21323232.2754  -16370792.93147 -12638499.05963
 91  5  2 22 44  0.0020000  0  5G13G 2G15G19G 6
  22755912.7294   -9392260.19546  -6968948.64861
  21476388.0964  -11309415.74448  -8812515.43164
  24460917.010    -1461826.224 5  -1069229.18821
  24778973.2054   21516971.47043  16766446.81161
  21321802.6274  -16378302.89947 -12644350.97963
 91  5  2 22 44 15.0020000  0  5G13G 2G15G19G 6
  22747278.9944   -9437627.61146  -7004299.82161
  21479007.7994  -11295646.44348  -8801786.10964
  24460786.080    -1462542.497 6  -1069787.32021
  24788387.2834   21566479.88143  16805024.66761
  21320390.5334  -16385728.90047 -12650137.46863
 91  5  2 22 44 30.0020000  0  5G13G 2G15G19G 6
  22738664.994    -9482895.339 6  -7039573.32421
  21481639.8074  -11281818.49548  -8791011.08964
  24460672.830    -1463118.812 6  -1070236.37321
  24797821.1974   21616041.36643  16843643.87361
  21318994.1114  -16393066.28447 -12655854.90463
 91  5  2 22 44 45.0020000  0  5G13G 2G15G19G 6
  22730068.799    -9528068.126 6  -7074772.84121
  21484282.1664  -11267936.63748  -8780194.06064
  24460585.369    -1463560.012 5  -1070580.15321
  24807261.619    21665651.013 3  16882300.61721
  21317612.8694  -16400319.56847 -12661506.80763
 91  5  2 22 45  0.0020000  0  5G13G 2G15G19G 6
  22721492.0884   -9573141.41146  -7109894.81961
  21486934.0494  -11253996.76748  -8769331.83064
  24460533.041    -1463861.798 5  -1070815.29821
  24816714.494    21715312.750 3  16920997.93721
  21316249.8774  -16407484.40547 -12667089.78963
 91  5  2 22 45 15.0020000  0  5G13G 2G15G19G 6
  22712933.1274   -9618119.71546  -7144942.79761
  21489596.2994  -11240003.60048  -8758428.06764
  24460498.291    -1464028.731 5
  24826171.744    21765021.501 3  16959731.88621
  21314903.5644  -16414565.32247 -12672607.38563
 91  5  2 22 45 30.0020000  0  5G13G 2G15G19G 6
  22704391.291    -9663001.570 6  -7179915.60821
  21492270.5494  -11225956.44948  -8747482.23964
  24460498.033    -1464059.903 5
  24835639.7834   21814777.99742  16998503.05161
  21313570.8614  -16421561.42347 -12678058.88863
 91  5  2 22 45 45.0020000  0  5G13G 2G15G19G 6
  22695870.643    -9707784.340 6  -7214811.22621
  21494953.6504  -11211852.90348  -8736492.46264
  24460510.229    -1463952.682 5
  24845119.1894   21864584.74442  17037313.36761
  21312257.2604  -16428469.96647 -12683442.16163
 91  5  2 22 46  0.0020000  0  5G13G 2G15G19G 6
  22687367.0024   -9752466.46646  -7249628.40061
  21497649.1044  -11197691.94248  -8725457.95064
  24460555.7684   -1463705.88345
  24854604.393    21914442.634 2  17076163.53521
  21310959.6044  -16435289.62547 -12688756.17663
 91  5  2 22 46 15.0020000  0  5G13G 2G15G19G 6
  22678884.6434   -9797047.85146  -7284367.09461
  21500354.2524  -11183473.75348  -8714378.84564
  24460644.111    -1463319.359 5
  24864105.6194   21964351.51742  17115053.43861
  21309677.5024  -16442020.15547 -12694000.74163
 91  5  2 22 46 30.0020000  0  5G13G 2G15G19G 6
  22670418.283    -9841529.650 6  -7319028.17821
  21503070.0884  -11169199.83648  -8703256.31964
  24460722.400    -1462794.319 5  -1069983.43621
  24873611.6504   22014310.08642  17153982.07061
  21308415.4004  -16448662.73447 -12699176.77063
 91  5  2 22 46 45.0020000  0  5G13G 2G15G19G 6
  22661973.736    -9885910.843 6  -7353610.87721
  21505797.4164  -11154869.50948  -8692089.82964
  24460864.3854   -1462130.10445  -1069465.83461
  24883127.682    22064318.566 3  17192949.57921
  21307167.1744  -16455216.63147 -12704283.69463
 91  5  2 22 47  0.0020000  0  5G13G 2G15G19G 6
  22653547.5964   -9930194.23046  -7388117.35961
  21508533.6664  -11140485.98248  -8680881.89164
  24461015.7524   -1461329.76145  -1068842.18161
  24892653.189    22114373.671 3  17231953.43421
  21305936.8464  -16461684.57247 -12709323.65063
 91  5  2 22 47 15.0020000  0  5G13G 2G15G19G 6
  22645138.150    -9974380.975 6  -7422548.53221
  21511281.3144  -11126050.79948  -8669633.69564
  24461188.7444   -1460394.73445  -1068113.57061
  24902184.150    22164473.647 3  17270992.23921
  21304721.0184  -16468068.02247 -12714297.75763
 91  5  2 22 47 30.0020000  0  5G13G 2G15G19G 6
  22636748.166   -10018469.443 6  -7456903.13221
  21514038.2754  -11111562.80848  -8658344.35864
  24461390.885    -1459323.597 5  -1067278.89821
  24911732.338    22214619.650 2  17310066.92021
  21303524.0104  -16474365.42847 -12719204.82063
 91  5  2 22 47 45.0020000  0  5G13G 2G15G19G 6
  22628376.838   -10062458.128 6  -7491179.97721
  21516806.1434  -11097020.88348  -8647012.99064
  24461626.221    -1458115.052 5  -1066337.14421
  24921279.814    22264812.881 3  17349178.37421
  21302341.3074  -16480575.39947 -12724043.76363
 91  5  2 22 48  0.0020000  0  5G13G 2G15G19G 6
  22620024.807   -10106351.691 6  -7525382.69821
  21519581.7994  -11082429.86748  -8635643.37264
  24461879.236    -1456773.888 5  -1065292.06621
  24930839.6504   22315048.24943  17388322.68961
  21301175.8614  -16486702.46847 -12728818.09863
 91  5  2 22 48 15.0020000  0  5G13G 2G15G19G 6
  22611691.361   -10150143.000 6  -7559505.75021
  21522369.5334  -11067783.02148  -8624230.24464
  24462163.6354   -1455293.11145  -1064138.18161
  24940407.275    22365332.441 3  17427505.05321
  21300025.9324  -16492739.80047 -12733522.50363
 91  5  2 22 48 30.0020000  0  5G13G 2G15G19G 6
  22603376.611   -10193833.204 6  -7593550.00421
  21525165.9864  -11053082.09748  -8612774.98664
  24462465.986    -1453674.237 5  -1062876.71821
  24949987.6504   22415663.63943  17466724.03961
  21298894.7524  -16498688.61347 -12738157.94563
 91  5  2 22 48 45.0020000  0  5G13G 2G15G19G 6
  22595082.619   -10237421.951 6  -7627515.21321
  21527974.4714  -11038327.27948  -8601277.73364
  24462807.8074   -1451917.35945  -1061507.72261
  24959573.799    22466041.648 3  17505979.49321
  21297778.7914  -16504548.88647 -12742724.38763
 91  5  2 22 49  0.0020000  0  5G13G 2G15G19G 6
  22586806.033   -10280911.322 6  -7661402.98121
  21530792.4794  -11023520.72948  -8589740.16264
  24463163.7444   -1450024.48446  -1060032.75061
  24969170.2994   22516464.22843  17545269.67261
  21296680.4324  -16510322.48347 -12747223.29163
 91  5  2 22 49 15.0020000  0  4G13G 2G15G 6
  22578549.463   -10324301.227 6  -7695213.25321
  21533619.2834  -11008662.67948  -8578162.46564
  24463551.4084   -1447995.83445  -1058451.97661
  21295598.5334  -16516009.44347 -12751654.68763
 91  5  2 22 49 30.0020000  0  4G13G 2G15G 6
  22570310.791   -10367591.562 6  -7728945.92721
  21536456.2214  -10993753.25248  -8566544.73864
  24463967.900    -1445831.161 6  -1056765.20621
  21294532.4944  -16521609.64447 -12756018.47463
 91  5  2 22 49 45.0020000  0  4G13G 2G15G 6
  22562093.135   -10410778.641 6  -7762598.15221
  21539304.8224  -10978789.29648  -8554884.51764
  24464400.830    -1443527.181 5  -1054969.87921
  21293483.4004  -16527119.57447 -12760311.92663
 91  5  2 22 50  0.0020000  0  4G13G 2G15G 6
  22553894.525   -10453866.613 6  -7796173.14121
  21542160.6664  -10963775.36348  -8543185.35464
  24464864.104    -1441088.308 5  -1053069.45021
  21292452.5884  -16532543.57147 -12764538.41463
 91  5  2 22 50 15.0020000  0  4G13G 2G15G 6
  22545714.033   -10496853.361 6  -7829669.26321
  21545028.1504  -10948709.75548  -8531445.92164
  24465350.455    -1438512.843 5  -1051062.57921
  21291437.0104  -16537879.71747 -12768696.44563
 91  5  2 22 50 30.0020000  0  4G13G 2G15G 6
  22537554.611   -10539734.655 6  -7863083.21421
  21547905.5644  -10933588.48848  -8519663.12064
  24465870.2684   -1435796.69645  -1048946.08861
  21290438.0724  -16543123.69647 -12772782.66163
 91  5  2 22 50 45.0020000  0  4G13G 2G15G 6
  22529412.986   -10582519.328 6  -7896421.86721
  21550792.4244  -10918420.92348  -8507844.23664
  24466410.5254   -1432948.88445  -1046727.00561
  21289456.3304  -16548284.56547 -12776804.11663
 91  5  2 22 51  0.0020000  0  4G13G 2G15G 6
  22521289.471   -10625203.973 6  -7929682.58821
  21553687.8074  -10903204.12048  -8495986.99264
  24466979.244    -1429966.356 5  -1044402.94521
  21288490.5644  -16553359.10447 -12780758.30363
 91  5  2 22 51 15.0020000  0  4G13G 2G15G 6
  22513185.861   -10667790.973 6  -7962867.21521
  21556591.5414  -10887940.55048  -8484093.30664
  24467570.307    -1426851.608 5  -1041975.86221
  21287541.3544  -16558349.63347 -12784647.02263
 91  5  2 22 51 30.0020000  0  4G13G 2G15G 6
  22505101.822   -10710274.276 6  -7995971.03321
  21559506.5104  -10872624.46648  -8472158.69764
  24468189.994    -1423598.733 5  -1039441.14921
  21286609.1194  -16563250.13747 -12788465.60063
 91  5  2 22 51 45.0020000  0  4G13G 2G15G 6
  22497036.189   -10752655.808 6  -8028995.55421
  21562430.6194  -10857258.41548  -8460185.15364
  24468836.8934   -1420209.82045  -1036800.43261
  21285693.4794  -16568062.68547 -12792215.63463
 91  5  2 22 52  0.0020000  0  4G13G 2G15G 6
  22488988.994   -10794936.054 6  -8061941.15821
  21565364.2054  -10841843.30848  -8448173.38564
  24469503.8544   -1416685.82045  -1034054.45361
  21284793.6974  -16572787.97247 -12795897.66963
 91  5  2 22 52 15.0020000  0  4G13G 2G15G 6
  22480963.9004  -10837116.00846  -8094808.59961
  21568306.6354  -10826380.35748  -8436124.33564
  24470206.7604   -1413027.84245  -1031204.07161
  21283911.1584  -16577427.06447 -12799512.54363
 91  5  2 22 52 30.0020000  0  4G13G 2G15G 6
  22472956.838   -10879194.484 6  -8127596.97821
  21571258.3544  -10810868.58548  -8424037.24664
  24470929.0414   -1409234.55145  -1028248.26561
  21283044.5184  -16581978.55447 -12803059.15863
 91  5  2 22 52 45.0020000  0  4G13G 2G15G 6
  22464969.0024  -10921171.06846  -8160305.95861
  21574219.2294  -10795308.04248  -8411912.15564
  24471669.830    -1405305.989 5  -1025187.03121
  21282195.8464  -16586442.34047 -12806537.43763
 91  5  2 22 53  0.0020000  0  4G13G 2G15G 6
  22457000.213   -10963047.813 6  -8192937.14321
  21577189.3384  -10779700.92948  -8399750.77464
  24472442.3854   -1401244.45845  -1022022.18661
  21281361.7134  -16590820.40447 -12809948.91763
 91  5  2 22 53 15.0020000  0  4G13G 2G15G 6
  22449049.283   -11004823.278 6  -8225489.40421
  21580168.1044  -10764046.28348  -8387552.35564
  24473243.2834   -1397048.76645  -1018752.82761
  21280546.2524  -16595111.60547 -12813292.70563
 91  5  2 22 53 30.0020000  0  4G13G 2G15G 6
  22441120.049   -11046494.073 6  -8257960.09921
  21583156.7834  -10748341.09348  -8375314.55664
  24474060.854    -1392715.650 5  -1015376.35121
  21279746.4084  -16599312.50347 -12816566.12963
 91  5  2 22 53 45.0020000  0  4G13G 2G15G 6
  22433210.072   -11088064.196 6  -8290352.35721
  21586153.8144  -10732589.72148  -8363040.76864
  24474924.8614   -1388249.40345  -1011896.16061
  21278964.0024  -16603427.22147 -12819772.40063
 91  5  2 22 54  0.0020000  0  4G13G 2G15G 6
  22425320.275   -11129530.130 6  -8322663.42921
  21589161.6824  -10716788.90148  -8350728.44664
  24475799.939    -1383646.549 5  -1008309.50621
  21278198.1824  -16607452.11447 -12822908.67963
 91  5  2 22 54 15.0020000  0  4G13G 2G15G 6
  22417448.885   -11170893.238 6  -8354894.37621
  21592177.4244  -10700940.58448  -8338379.11264
  24476706.197    -1378909.175 5  -1004618.00721
  21277448.0574  -16611389.00347 -12825976.38463
 91  5  2 22 54 30.0020000  0  4G13G 2G15G 6
  22409596.658   -11212152.296 6  -8387044.24221
  21595203.3074  -10685043.91348  -8325992.10264
  24477619.9554   -1374036.04945  -1000820.77261
  21276715.4474  -16615236.67847 -12828974.56963
 91  5  2 22 54 45.0020000  0  4G13G 2G15G 6
  22401766.135   -11253305.554 6  -8419111.67421
  21598237.3694  -10669097.15948  -8313566.06664
  24478570.3144   -1369025.38945   -996916.34261
  21276001.0724  -16618993.12647 -12831901.67163
 91  5  2 22 55  0.0020000  0  4G13G 2G15G 6
  22393955.807   -11294354.740 6  -8451098.00521
  21601281.0884  -10653102.38848  -8301102.61564
  24479551.8614   -1363879.24445   -992906.36161
  21275304.1114  -16622660.27847 -12834759.19563
 91  5  2 22 55 15.0020000  0  4G13G 2G15G 6
  22386162.174   -11335304.180 6  -8483006.61421
  21604332.0884  -10637064.70648  -8288605.73364
  24480573.9714   -1358602.34546   -988794.48761
  21274622.0334  -16626242.76447 -12837550.74263
 91  5  2 22 55 30.0020000  0  4G13G 2G15G 6
  22378388.736   -11376149.040 6  -8514833.73221
  21607393.8854  -10620979.37748  -8276071.71764
  24481588.971    -1353189.984 5   -984577.05121
  21273956.4634  -16629735.78747 -12840272.57663
 91  5  2 22 55 45.0020000  0  4G13G 2G15G 6
  22370636.885   -11416886.611 6  -8546577.24421
  21610464.1354  -10604844.08548  -8263498.77064
  24482647.6274   -1347639.68845   -980252.14961
  21273309.1744  -16633136.73147 -12842922.65963
 91  5  2 22 56  0.0020000  0  4G13G 2G15G 6
  22362904.314   -11457519.981 6  -8578239.56521
  21613542.3934  -10588661.99848  -8250889.35964
  24483735.369    -1341954.679 5   -975822.27021
  21272680.5334  -16636448.57347 -12845503.31263
 91  5  2 22 56 15.0020000  0  4G13G 2G15G 6
  22355191.236   -11498047.189 6  -8609819.16421
  21616632.3774  -10572431.68248  -8238242.36564
  24484834.7214   -1336133.26845   -971286.09161
  21272065.8694  -16639669.47347 -12848013.10563
 91  5  2 22 56 30.0020000  0  4G13G 2G15G 6
  22347500.3694  -11538468.27046  -8641316.06661
  21619729.0724  -10556153.62548  -8225558.16764
  24485975.0574   -1330175.95445   -966644.04061
  21271471.5334  -16642799.59247 -12850452.15763
 91  5  2 22 56 45.0020000  0  4G13G 2G15G 6
  22339828.072   -11578785.055 6  -8672731.70521
  21622836.2524  -10539829.99848  -8212838.47164
  24487121.8694   -1324084.57145   -961897.50161
  21270892.0644  -16645840.95347 -12852822.05663
 91  5  2 22 57  0.0020000  0  4G13G 2G15G 6
  22332175.791   -11618998.475 6  -8704066.78621
  21625950.5104  -10523461.68348  -8200083.94064
  24488320.955    -1317860.157 5   -957047.29521
  21270330.2134  -16648794.31147 -12855123.36963
 91  5  2 22 57 15.0020000  0  4G13G 2G15G 6
  22324544.3144  -11659101.84046  -8735316.11861
  21629074.8304  -10507042.71348  -8187289.94264
  24489531.736    -1311496.490 6   -952088.58421
  21269786.9474  -16651653.34747 -12857351.19063
 91  5  2 22 57 30.0020000  0  4G13G 2G15G 6
  22316933.4864  -11699099.71047  -8766483.24861
  21632208.1354  -10490577.72348  -8174460.09564
  24490762.2444   -1304998.26246   -947025.02861
  21269258.7994  -16654422.44547 -12859508.92363
 91  5  2 22 57 45.0020000  0  4G13G 2G15G 6
  22309343.455   -11738988.171 7  -8797565.11721
  21635351.1744  -10474063.47148  -8161591.85364
  24492018.7684   -1298362.07245   -941853.95561
  21268749.5494  -16657098.02647 -12861593.79163
 91  5  2 22 58  0.0020000  0  4G13G 2G15G 6
  22301773.080   -11778767.312 7  -8828561.80921
  21638502.4554  -10457500.34848  -8148685.53264
  24493308.908    -1291588.309 5   -936575.69021
  21268258.5724  -16659680.32647 -12863605.97063
 91  5  2 22 58 15.0020000  0  4G13G 2G15G 6
  22294223.8304  -11818438.72547  -8859474.55661
  21641663.5024  -10440890.02548  -8135742.42064
  24494631.689    -1284678.558 5   -931191.44921
  21267784.6974  -16662170.75047 -12865546.55863
 91  5  2 22 58 30.0020000  0  4G13G 2G15G 6
  22286696.127   -11858002.614 6  -8890303.51621
  21644833.1354  -10424233.13748  -8122763.03064
  24495963.8774   -1277633.15645   -925701.53561
  21267329.9084  -16664569.51547 -12867415.72263
 91  5  2 22 58 45.0020000  0  4G13G 2G15G 6
  22279186.346   -11897458.102 6  -8921048.00621
  21648011.8694  -10407529.08748  -8109746.89564
  24497342.1504   -1270451.38046   -920105.33061
  21266889.4944  -16666875.84247 -12869212.85363
 91  5  2 22 59  0.0020000  0  4G13G 2G15G 6
  22271699.783   -11936804.741 7  -8951707.68821
  21651199.5804  -10390777.85548  -8096693.99464
  24498723.9474   -1263133.20145   -914402.85761
  21266467.6894  -16669089.58147 -12870937.84563
 91  5  2 22 59 15.0020000  0  4G13G 2G15G 6
  22264231.885   -11976042.618 7  -8982282.61321
  21654395.1114  -10373979.84548  -8083604.64164
  24500144.744    -1255678.890 5   -908594.29021
  21266064.6434  -16671210.73847 -12872590.69263
 91  5  2 22 59 30.0020000  0  4G13G 2G15G 6
  22256786.1354  -12015174.06347  -9012774.61061
  21657600.4084  -10357137.62848  -8070480.84164
  24501585.4794   -1248091.06845   -902681.68761
  21265678.9004  -16673241.54047 -12874173.13163
 91  5  2 22 59 45.0020000  0  4G13G 2G15G 6
  22249360.7444  -12054194.49647  -9043180.10461
  21660815.2364  -10340247.00348  -8057319.32564
  24503060.5334   -1240365.37645   -896661.67361
  21265308.8694  -16675177.67547 -12875681.81063
 91  5  2 23  0  0.0020000  0  4G13G 2G15G 6
  22241956.6744  -12093103.11147  -9073498.46261
  21664038.869   -10323307.584 8  -8044119.78824
  24504552.0574   -1232501.47045   -890533.95061
  21264960.3304  -16677018.55247 -12877116.25663
 91  5  2 23  0 15.0020000  0  4G13G 2G15G 6
  22234573.1434  -12131900.46947  -9103730.13461
  21667271.2834  -10306320.20648  -8030882.87964
  24506077.5964   -1224500.04945   -884299.07061
  21264627.0024  -16678764.69847 -12878476.88563
 91  5  2 23  0 30.0020000  0  4G13G 2G15G 6
  22227212.439   -12170582.940 7  -9133872.27821
  21670513.2604  -10289281.70648  -8017606.13264
  24507638.135    -1216357.858 5   -877954.50021
  21264314.0724  -16680412.64147 -12879760.99263
 91  5  2 23  0 45.0020000  0  4G13G 2G15G 6
  22219873.6434  -12209147.68247  -9163922.68561
  21673765.5724  -10272189.11448  -8004287.22864
  24509205.955    -1208071.994 5   -871497.97121
  21264020.2754  -16681959.34347 -12880966.21763
 91  5  2 23  1  0.0020000  0  4G13G 2G15G 6
  22212556.8304  -12247597.74347  -9193883.73261
  21677027.0884  -10255045.98248  -7990928.95064
  24510802.6894   -1199645.55145   -864931.91661
  21263743.3614  -16683407.95947 -12882095.00363
 91  5  2 23  1 15.0020000  0  4G13G 2G15G 6
  22205262.385   -12285934.674 7  -9223756.62221
  21680299.0884  -10237854.33648  -7977532.86664
  24512441.9244   -1191080.47345   -858257.82361
  21263485.8544  -16684760.25747 -12883148.74063
 91  5  2 23  1 30.0020000  0  4G13G 2G15G 6
  22197988.8304  -12324155.86047  -9253539.32561
  21683579.7754  -10220611.86448  -7964097.18264
  24514093.2994   -1182374.49945   -851473.95761
  21263248.3544  -16686013.80547 -12884125.53363
 91  5  2 23  1 45.0020000  0  4G13G 2G15G 6
  22190738.1824  -12362256.04047  -9283227.74561
  21686871.0184  -10203313.53348  -7950617.97164
  24515782.3774   -1173522.51745   -844576.30961
  21263030.2214  -16687163.17247 -12885021.14163
 91  5  2 23  2  0.0020000  0  4G13G 2G15G 6
  22183509.8544  -12400239.45447  -9312825.16561
  21690173.8614  -10185963.83248  -7937098.73164
  24517488.2994   -1164529.30545   -837568.60261
  21262828.6584  -16688212.64247 -12885838.91463
 91  5  2 23  2 15.0020000  0  4G13G 2G15G 6
  22176304.0884  -12438109.11147  -9342333.95061
  21693484.3224  -10168566.14748  -7923542.09964
  24519231.0334   -1155398.03645   -830453.32761
  21262647.5184  -16689165.34947 -12886581.28263
 91  5  2 23  2 30.0020000  0  4G13G 2G15G 6
  22169119.830   -12475862.533 7  -9371752.15721
  21696804.9864  -10151118.26548  -7909946.35164
  24521003.143    -1146126.264 5   -823228.57121
  21262485.8614  -16690018.87747 -12887246.36963
 91  5  2 23  2 45.0020000  0  4G13G 2G15G 6
  22161958.8934  -12513496.75047  -9401077.48161
  21700136.6664  -10133617.38848  -7896309.30664
  24522777.4474   -1136711.20245   -815892.14461
  21262342.0964  -16690770.09947 -12887831.74063
 91  5  2 23  3  0.0020000  0  4G13G 2G15G 6
  22154820.166   -12551013.653 7  -9430311.39221
  21703476.6194  -10116065.91648  -7882632.83764
  24524594.0254   -1127155.32545   -808446.00561
  21262218.6274  -16691421.28447 -12888339.16363
 91  5  2 23  3 15.0020000  0  4G13G 2G15G 6
  22147702.213   -12588413.604 7  -9459454.16821
  21706824.9794  -10098464.36748  -7868917.34464
  24526446.1354   -1117458.70145   -800890.20061
  21262115.2834  -16691972.72047 -12888768.85263
 91  5  2 23  3 30.0020000  0  4G13G 2G15G 6
  22140607.9714  -12625695.70847  -9488505.12061
  21710183.8544  -10080812.23248  -7855162.43564
  24528323.6584   -1107620.94145   -793224.40461
  21262028.0024  -16692423.69247 -12889120.25863
 91  5  2 23  3 45.0020000  0  4G13G 2G15G 6
  22133535.2364  -12662861.85047  -9517465.71961
  21713552.4864  -10063111.78948  -7841369.88964
  24530219.9004   -1097644.35045   -785450.44261
  21261962.1894  -16692776.07547 -12889394.84263
 91  5  2 23  4  0.0020000  0  4G13G 2G15G 6
  22126484.6824  -12699911.52247  -9546335.55161
  21716930.4004  -10045363.04648  -7827539.71164
  24532143.9324   -1087528.96645   -777568.33561
  21261910.3074  -16693029.57447 -12889592.37563
 91  5  2 23  4 15.0020000  0  4G13G 2G15G 6
  22119457.0574  -12736839.42447  -9575110.50761
  21720316.4554  -10027560.56848  -7813667.65664
  24534092.5574   -1077269.10345   -769573.64461
  21261882.1434  -16693178.66547
 91  5  2 23  4 30.0020000  0  4G13G 2G15G 6
  22112453.0724  -12773648.62547  -9603792.96561
  21723714.6824  -10009707.90948  -7799756.50064
  24536071.0644   -1066868.23645   -761469.06761
  21261872.6824  -16693226.66047
 91  5  2 23  4 45.0020000  0  4G13G 2G15G 6
  22105469.9794  -12810340.24947  -9632383.80061
  21727121.9554   -9991806.33748  -7785807.22264
  24538084.1194   -1056328.03845   -753255.92561
  21261886.5964  -16693174.66047
 91  5  2 23  5  0.0020000  0  4G13G 2G15G 6
  22098510.1194  -12846914.72947  -9660883.36061
  21730536.8074   -9973856.78948  -7771820.56764
  24540111.096    -1045649.154 5   -744934.71321
  21261912.4634  -16693023.19847
 91  5  2 23  5 15.0020000  0  4G13G 2G15G 6
  22091573.0884  -12883375.34147  -9689294.19561
  21733961.6974   -9955863.01148  -7757799.44564
  24542167.0884   -1034835.13045   -736508.20561
  21261960.7914  -16692775.77547
 91  5  2 23  5 30.0020000  0  4G13G 2G15G 6
  22084656.6434  -12919715.17847  -9717610.91661
  21737394.9324   -9937818.42148  -7743738.72464
  24544262.307    -1023879.217 5   -727971.11021
  21262027.4324  -16692425.54247 -12889121.69263
 91  5  2 23  5 45.0020000  0  4G13G 2G15G 6
  22077764.0574  -12955935.41147  -9745834.43561
  21740838.3934   -9919723.99248  -7729639.17764
  24546375.2834   -1012782.65445   -719324.43561
  21262114.8384  -16691973.26447 -12888769.26763
 91  5  2 23  6  0.0020000  0  4G13G 2G15G 6
  22070893.8144  -12992037.49247  -9773965.88961
  21744290.3384   -9901581.72848  -7715502.35364
  24548510.3934   -1001547.19445   -710569.52461
  21262220.0644  -16691420.76947 -12888338.75263
 91  5  2 23  6 15.0020000  0  4G13G 2G15G 6
  22064045.6664  -13028026.25647  -9802009.04561
  21747750.9634   -9883396.72648  -7701332.22764
  24550666.229     -990177.907 5   -701710.32821
  21262341.7444  -16690772.97047 -12887833.97563
 91  5  2 23  6 30.0020000  0  4G13G 2G15G 6
  22057219.5254  -13063894.32447  -9829958.15361
  21751222.080    -9865161.804 8  -7687123.21424
  24552860.924     -978667.968 5   -692741.53621
  21262484.5884  -16690022.58947 -12887249.26063
 91  5  2 23  6 45.0020000  0  4G13G 2G15G 6
  22050417.6974  -13099649.08147  -9857818.96561
  21754699.0104   -9846884.42248  -7672881.10464
  24555071.643     -967024.763 5   -683668.89321
  21262644.6744  -16689176.71547 -12886590.14363
 91  5  2 23  7  0.0020000  0  4G13G 2G15G 6
  22043635.5574  -13135283.67847  -9885586.14461
  21758186.3544   -9828558.18648  -7658600.92564
  24557316.0644    -955241.42045   -674487.07361
  21262825.2754  -16688228.67247 -12885851.40263
 91  5  2 23  7 15.0020000  0  4G13G 2G15G 6
  22036877.3144  -13170801.41847  -9913262.26261
  21761682.5724   -9810186.80748  -7644285.56864
  24559587.7994    -943321.99045   -665199.19761
  21263024.6894  -16687181.92047 -12885035.75363
 91  5  2 23  7 30.0020000  0  4G13G 2G15G 6
  22030139.822   -13206201.542 7  -9940846.73921
  21765186.8774   -9791769.73448  -7629934.61164
  24561878.8464    -931265.73245   -655804.70761
  21263243.0414  -16686035.71247 -12884142.61263
 91  5  2 23  7 45.0020000  0  4G13G 2G15G 6
  22023426.7294  -13241480.61947  -9968336.90061
  21768700.5024   -9773303.84448  -7615545.61764
  24564202.9164    -919069.55845   -646301.19861
  21263480.5184  -16684786.66647 -12883169.32563
 91  5  2 23  8  0.0020000  0  4G13G 2G15G 6
  22016735.7834  -13276641.29147  -9995734.78261
  21772222.9864   -9754792.13948  -7601120.91564
  24566546.3074    -906736.54445   -636691.04461
  21263738.0724  -16683437.56547 -12882118.08163
 91  5  2 23  8 15.0020000  0  4G13G 2G15G 6
  22010068.5024  -13311677.87247 -10023035.98361
  21775754.994    -9736229.237 8  -7586656.32824
  24568921.5024    -894261.20545   -626970.01561
  21264014.7994  -16681982.93647 -12880984.59763
 91  5  2 23  8 30.0020000  0  4G13G 2G15G 6
  22003423.4004  -13346598.37647 -10050246.72861
  21779296.5414   -9717623.40648  -7572158.28664
  24571319.0574    -881651.72245   -617144.44361
  21264310.3614  -16680430.76647 -12879775.11863
 91  5  2 23  8 45.0020000  0  4G13G 2G15G 6
  21996800.9474  -13381399.33947 -10077364.33161
  21782845.8544   -9698971.38448  -7557624.25064
  24573749.6824    -868904.70045   -607211.69861
  21264625.2754  -16678777.32247 -12878486.71863
 91  5  2 23  9  0.0020000  0  4G13G 2G15G 6
  21990200.6824  -13416082.07847 -10104389.80461
  21786404.2364   -9680274.94548  -7543055.59864
  24576185.7834    -856021.88145   -597173.10461
  21264958.3544  -16677024.26247 -12877120.69863
 91  5  2 23  9 15.0020000  0  4G13G 2G15G 6
  21983624.0724  -13450644.24347 -10131321.33261
  21789970.8934   -9661531.90148  -7528450.64064
  24578674.916     -843001.111 5   -587027.04221
  21265311.8384  -16675169.08747 -12875675.10863
 91  5  2 23  9 30.0020000  0  4G13G 2G15G 6
  21977070.0724  -13485085.96047 -10158159.00161
  21793545.8854   -9642742.50248  -7513809.55464
  24581185.830     -829842.858 5   -576773.85021
  21265685.4244  -16673212.13847 -12874150.21363
 91  5  2 23  9 45.0020000  0  4G13G 2G15G 6
  21970538.8304  -13519405.91847 -10184901.79661
  21797130.6354   -9623905.57148  -7499131.43364
  24583714.3384    -816545.82145   -566412.51061
  21266077.1894  -16671151.83947 -12872544.78363
 91  5  2 23 10  0.0020000  0  4G13G 2G15G 6
  21964032.2054  -13553604.84447 -10211550.27561
  21800723.9714   -9605022.40448  -7484417.28164
  24586276.0184    -803111.29945   -555944.04261
  21266487.6744  -16668989.20547 -12870859.61363
 91  5  2 23 10 15.0020000  0  4G13G 2G15G 6
  21957546.3774  -13587685.19347 -10238106.35761
  21804326.8224   -9586095.62548  -7469669.14464
  24588841.4474    -789541.88545   -545370.47361
  21266916.6044  -16666726.75347 -12869096.66063
 91  5  2 23 10 30.0020000  0  4G13G 2G15G 6
  21951084.2684  -13621645.48847 -10264568.89261
  21807936.2134   -9567123.92848  -7454886.01064
  24591458.1504    -775836.31345   -534690.81061
  21267366.9864  -16664363.07647 -12867254.83363
 91  5  2 23 10 45.0020000  0  4G13G 2G15G 6
  21944645.3464  -13655482.80247 -10290935.59761
  21811554.4634   -9548104.76848  -7440065.89164
  24594098.2604    -761992.08345   -523903.10561
  21267838.1504  -16661895.21747 -12865331.82363
 91  5  2 23 11  0.0020000  0  4G13G 2G15G 6
  21938229.0254  -13689192.77347 -10317203.07161
  21815184.9794   -9529034.19948  -7425205.71764
  24596745.3854    -748005.13645   -513004.17061
  21268327.8694  -16659318.99247 -12863324.38063
 91  5  2 23 11 15.0020000  0  4G13G 2G15G 6
  21931837.8304  -13722782.03447 -10343376.48761
  21818822.0964   -9509918.72448  -7410310.55064
  24599442.1744    -733882.07645   -501999.18761
  21268837.2054  -16656640.71647 -12861237.41263
 91  5  2 23 11 30.0020000  0  4G13G 2G15G 6
  21925469.7214  -13756248.44847 -10369454.17361
  21822467.5414   -9490756.67448  -7395379.09263
  24602159.322     -719620.996 5   -490886.64621
  21269366.8934  -16653858.46747 -12859069.42763
 91  5  2 23 11 45.0020000  0  4G13G 2G15G 6
  21919124.5964  -13789591.06647 -10395435.40061
  21826122.7994   -9471547.42048  -7380410.85064
  24604898.854     -705221.466 5   -479666.22221
  21269916.1974  -16650971.46747 -12856819.81763
 91  5  2 23 12  0.0020000  0  4G13G 2G15G 6
  21912802.0414  -13822814.37547 -10421323.65161
  21829787.158    -9452295.651 8  -7365409.48223
  24607658.588     -690688.298 5   -468341.66321
  21270485.2054  -16647984.14547 -12854492.03163
 91  5  2 23 12 15.0020000  0  4G13G 2G15G 6
  21906503.7364  -13855914.27447 -10447115.75061
  21833459.2214   -9432997.48348  -7350371.95864
  24610453.4554    -676017.54045   -456909.90361
  21271073.2054  -16644892.49947 -12852082.95163
 91  5  2 23 12 30.0020000  0  4G13G 2G15G 6
  21900228.5184  -13888889.79747 -10472810.93061
  21837140.5184   -9413652.17248  -7335297.69663
  24613266.885     -661208.446 5   -445370.34321
  21271681.4944  -16641695.51847 -12849591.79763
 91  5  2 23 12 45.0020000  0  4G13G 2G15G 6
  21893977.2444  -13921739.83547 -10498408.33061
  21840831.5024   -9394259.27348  -7320186.35364
  24616115.760     -646260.311 5   -433722.44621
  21272309.1664  -16638392.42047 -12847017.96063
 91  5  2 23 13  0.0020000  0  4G13G 2G15G 6
  21887749.4244  -13954467.97647 -10523910.73961
  21844529.236    -9374822.056 8  -7305040.48224
  24618985.697     -631176.682 5   -421968.97121
  21272958.6434  -16634986.44547 -12844363.95363
 91  5  2 23 13 15.0020000  0  4G13G 2G15G 6
  21881545.2364  -13987072.02347 -10549316.46061
  21848237.7754   -9355338.90148  -7289858.81364
  24621884.471     -615955.799 5   -410108.53221
  21273625.4324  -16631475.67747 -12841628.29063
 91  5  2 23 13 30.0020000  0  4G13G 2G15G 6
  21875364.9794  -14019551.53747 -10574625.13661
  21851954.4864   -9335809.48948  -7274641.09064
  24624804.189     -600597.442 5   -398140.95521
  21274314.5964  -16627859.47747 -12838810.46863
 91  5  2 23 13 45.0020000  0  4G13G 2G15G 6
  21869208.2914  -14051902.76647 -10599833.84961
  21855678.8304   -9316230.48448  -7259384.73264
  24627751.635     -585098.248 5   -386063.66521
  21275022.5964  -16624134.40247 -12835907.81063
 91  5  2 23 14  0.0020000  0  4G13G 2G15G 6
  21863077.3304  -14084125.90447 -10624942.75461
  21859415.7134   -9296602.16748  -7244089.94964
  24630724.3144    -569458.54446   -373876.87161
  21275752.4554  -16620300.50847 -12832920.36163
 91  5  2 23 14 15.0020000  0  4G13G 2G15G 6
  21856968.3854  -14116225.38147 -10649955.30161
  21863158.1664   -9276929.11548  -7228760.31064
  24633732.6194    -553682.99346   -361584.22161
  21276501.9864  -16616362.32647 -12829851.65163
 91  5  2 23 14 30.0020000  0  4G13G 2G15G 6
  21850884.0724  -14148198.94647 -10674869.72861
  21866911.4794   -9257209.62748  -7213394.48463
  24636755.8224    -537770.01445   -349184.48961
  21277272.4944  -16612317.78747 -12826700.06463
 91  5  2 23 14 45.0020000  0  4G13G 2G15G 6
  21844822.9794  -14180047.67847 -10699686.89061
  21870671.6824   -9237444.81248  -7197993.33763
  24639824.549     -521720.664 6   -336678.48221
  21278062.5884  -16608167.82647 -12823466.33263
 91  5  2 23 15  0.0020000  0  4G13G 2G15G 6
  21838787.9714  -14211766.01547 -10724402.44261
  21874442.1434   -9217629.28548  -7182552.67064
  24642899.5414    -505529.61245   -324062.08161
  21278872.2754  -16603906.84147 -12820146.08163
 91  5  2 23 15 15.0020000  0  4G13G 2G15G 6
  21832776.6974  -14243355.02447 -10749017.22762
  21878223.1744   -9197764.27648  -7167073.44964
  24646009.854     -489198.085 5   -311336.20421
  21279704.9634  -16599535.83047 -12816740.09463
 91  5  2 23 15 30.0020000  0  4G13G 2G15G 6
  21826789.0184  -14274816.02947 -10773532.26162
  21882012.1504   -9177851.45848  -7151556.96864
  24649133.1744    -472728.03145   -298502.38761
  21280557.1114  -16595056.52547 -12813249.73063
 91  5  2 23 15 45.0020000  0  4G13G 2G15G 6
  21820826.3544  -14306149.11247 -10797947.62061
  21885810.9324   -9157891.45848  -7136003.72764
  24652305.2754    -456119.82045   -285560.93261
  21281428.6664  -16590469.05247 -12809675.07763
 91  5  2 23 16  0.0020000  0  4G13G 2G15G 6
  21814888.5884  -14337355.31047 -10822264.10861
  21889617.5964   -9137885.35648  -7120414.56064
  24655491.2604    -439374.19345   -272512.39161
  21282323.3614  -16585774.19647 -12806016.74463
 91  5  2 23 16 15.0020000  0  4G13G 2G15G 6
  21808975.7914  -14368430.30947 -10846478.36061
  21893433.5644   -9117828.76148  -7104786.05664
  24658690.9474    -422487.27645   -259353.75161
  21283238.2754  -16580967.71847 -12802271.43663
 91  5  2 23 16 30.0020000  0  4G13G 2G15G 6
  21803085.0644  -14399378.07047 -10870593.46961
  21897259.5024   -9097725.89448  -7089121.48964
  24661941.7214    -405463.42145   -246088.41061
  21284173.4634  -16576053.44047 -12798442.12563
 91  5  2 23 16 45.0020000  0  4G13G 2G15G 6
  21797220.7684  -14430196.91347 -10894608.11961
  21901095.0414   -9077575.45648  -7073419.85664
  24665199.2214    -388301.27945   -232715.30761
  21285128.3934  -16571030.05547 -12794527.79863
 91  5  2 23 17  0.0020000  0  4G13G 2G15G 6
  21791381.9864  -14460884.53947 -10918520.52661
  21904937.7604   -9057375.48948  -7057679.63163
  24668490.0964    -370998.83045   -219232.87961
  21286105.3774  -16565895.17047 -12790526.59263
 91  5  2 23 17 15.0020000  0  4G13G 2G15G 6
  21785566.2214  -14491444.56447 -10942333.50162
  21908790.8854   -9037129.72448  -7041903.71263
  24671811.7444    -353559.88645   -205644.09561
  21287103.6974  -16560652.35847 -12786441.28963
 91  5  2 23 17 30.0020000  0  4G13G 2G15G 6
  21779776.2134  -14521875.41047 -10966045.81461
  21912652.3614   -9016836.89448  -7026091.12463
  24675155.275     -335983.175 5   -191947.94621
  21288122.1744  -16555300.13647 -12782270.72863
 91  5  2 23 17 45.0020000  0  4G13G 2G15G 6
  21774009.9794  -14552174.08547 -10989655.13862
  21916524.1354   -8996494.16848  -7010239.65563
  24678529.4244    -318266.08445   -178142.41861
  21289161.4244  -16549835.62847 -12778012.67563
 91  5  2 23 18  0.0020000  0  4G13G 2G15G 6
  21768268.7914  -14582340.87147 -11013161.69561
  21920404.3464   -8976101.94748  -6994349.62163
  24681931.3144    -300408.91545   -164227.74761
  21290223.9864  -16544258.89947 -12773667.17463
 91  5  2 23 18 15.0020000  0  4G13G 2G15G 6
  21762553.4714  -14612377.91047 -11036567.14961
  21924293.6504   -8955662.57748  -6978422.84363
  24685348.0574    -282414.17745   -150205.87161
  21291305.1664  -16538572.15847 -12769235.95363
 91  5  2 23 18 30.0020000  0  4G13G 2G15G 6
  21756862.3464  -14642281.25547 -11059868.42461
  21928193.2134   -8935172.60548  -6962456.63763
  24688811.432     -264278.333 5   -136074.06221
  21292408.5494  -16532771.75147 -12764716.15663
 91  5  2 23 18 45.0020000  0  4G13G 2G15G 6
  21751197.9324  -14672046.84047 -11083062.35361
  21932102.6894   -8914628.00348  -6946447.86563
  24692280.4714    -245997.44345   -121829.21361
  21293535.8304  -16526853.44447 -12760104.49263
 91  5  2 23 19  0.0020000  0  4G13G 2G15G 6
  21745559.549   -14701677.969 7 -11106151.52221
  21936021.3074   -8894032.37448  -6930399.33263
  24695786.1354    -227575.23845   -107474.25861
  21294683.7444  -16520820.62247 -12755403.58963
 91  5  2 23 19 15.0020000  0  4G13G 2G15G 6
  21739946.4634  -14731177.28147 -11129137.97061
  21939950.5104   -8873388.29448  -6914313.03964
  24699322.1044    -209014.37845    -93011.24261
  21295852.2524  -16514675.68647 -12750615.33263
 91  5  2 23 19 30.0020000  0  4G13G 2G15G 6
  21734357.8614  -14760545.78447 -11152022.48961
  21943887.174    -8852697.226 8  -6898190.14123
  24702881.6114    -190316.28845    -78441.31561
  21297043.5964  -16508419.85447 -12745740.66063
 91  5  2 23 19 45.0020000  0  4G13G 2G15G 6
  21728795.088   -14789779.500 7 -11174801.98622
  21947834.3854   -8831955.37148  -6882027.66663
  24706467.3384    -171477.09545    -63761.42761
  21298254.7054  -16502049.30347 -12740776.59963
 91  5  2 23 20  0.0020000  0  4G13G 2G15G 6
  21723257.2914  -14818878.11547 -11197476.19962
  21951790.9634   -8811162.67248  -6865825.56263
  24710074.752     -152496.969 5    -48971.70021
  21299489.7134  -16495563.55247 -12735722.76963
 91  5  2 23 20 15.0020000  0  4G13G 2G15G 6
  21717744.979   -14847846.826 7 -11220049.19122
  21955755.6744   -8790324.49748  -6849588.03263
  24713710.8934    -133381.38045    -34076.43461
  21300744.4324  -16488968.01547 -12730583.39263
 91  5  2 23 20 30.0020000  0  4G13G 2G15G 6
  21712258.1664  -14876680.19047 -11242516.71961
  21959731.2294   -8769435.54248  -6833310.93263
  24717377.830     -114125.250 5    -19071.65421
  21302021.7684  -16482257.40647 -12725354.34863
 91  5  2 23 20 45.0020000  0  4G13G 2G15G 6
  21706796.1044  -14905382.17547 -11264881.87062
  21963714.3224   -8748500.17048  -6816997.66063
  24721075.135      -94732.862 6     -3960.70821
  21303319.2134  -16475435.44647 -12720038.53863
 91  5  2 23 21  0.0020000  0  4G13G 2G15G 6
  21701359.6274  -14933947.11747 -11287140.23562
  21967708.1664   -8727512.77748  -6800643.85263
  24724783.5104     -75198.44945     11260.90461
  21304640.0254  -16468496.54447 -12714631.60063
 91  5  2 23 21 15.0020000  0  4G13G 2G15G 6
  21695949.0574  -14962375.59647 -11309292.27061
  21971711.7054   -8706474.32748  -6784250.26364
  24728530.1274     -55523.05945     26592.36961
  21305982.3614  -16461441.29147 -12709134.00263
 91  5  2 23 21 30.0020000  0  4G13G 2G15G 6
  21690566.3384  -14990664.02247 -11331335.16862
  21975726.3854   -8685381.28748  -6767814.13964
  24732304.1974     -35703.33345     42036.32361
  21307347.9474  -16454266.09547 -12703542.94563
 91  5  2 23 21 45.0020000  0  4G13G 2G15G 6
  21685210.1974  -15018811.92947 -11353268.57661
  21979750.7294   -8664233.29448  -6751335.18463
  24736099.2524     -15739.00045     57592.92961
  21308736.3074  -16446970.49647 -12697858.06263
 91  5  2 23 22  0.0020000  0  4G13G 2G15G 6
  21679880.6894  -15046817.84947 -11375091.34461
  21983785.9244   -8643028.84548  -6734812.24263
  24739928.377        4371.225 5     73263.25221
  21310147.7754  -16439552.74347 -12692078.00263
 91  5  2 23 22 15.0020000  0  4G13G 2G15G 6
  21674578.1824  -15074680.11347 -11396802.16961
  21987831.2754   -8621766.68048  -6718244.32963
  24743783.3694      24628.63945     89048.23061
  21311583.2754  -16432011.56847 -12686201.76163
 91  5  2 23 22 30.0020000  0  4G13G 2G15G 6
  21669304.9244  -15102397.60947 -11418400.19261
  21991888.9244   -8600445.74048  -6701630.61463
  24747662.7754      45034.15345    104948.63961
  21313041.2604  -16424345.77347 -12680228.41763
 91  5  2 23 22 45.0020000  0  4G13G 2G15G 6
  21664057.6114  -15129969.34047 -11439884.62961
  21995957.0104   -8579065.28247  -6684970.52263
  24751580.4944      65588.52645    120965.03461
  21314524.4794  -16416554.35947 -12674157.18663
 91  5  2 23 23  0.0020000  0  4G13G 2G15G 6
  21658839.1114  -15157394.09747 -11461254.54061
  22000037.5254   -8557624.48147  -6668263.41564
  24755509.4324      86292.47345    137097.99661
  21316030.7754  -16408636.07647 -12667987.09563
 91  5  2 23 23 15.0020000  0  4G13G 2G15G 6
  21653649.1274  -15184669.29947 -11482507.91761
  22004128.7684   -8536120.90347  -6651507.39163
  24759490.7994     107148.16245    153349.16061
  21317562.4474  -16400588.47547 -12661716.24063
 91  5  2 23 23 30.0020000  0  4G13G 2G15G 6
  21648486.6194  -15211793.65547 -11503643.74862
  22008233.9794   -8514553.34848  -6634701.51363
  24763483.9864     128156.84245    169719.56161
  21319118.9164  -16392410.25847 -12655343.60363
 91  5  2 23 23 45.0020000  0  4G13G 2G15G 6
  21643354.3774  -15238766.70847 -11524661.68262
  22012350.0724   -8492921.48148  -6617845.52663
  24767505.3074     149318.65245    186209.27861
  21320699.9554  -16384101.05147 -12648868.89763
 91  5  2 23 24  0.0020000  0  4G13G 2G15G 6
  21638249.1664  -15265592.60347 -11545564.94162
  22016478.7914   -8471229.93048  -6600943.02463
  24771567.4944     170629.03145    202814.75461
  21322304.4004  -16375665.07847 -12642295.40963
 91  5  2 23 24 15.0020000  0  4G13G 2G15G 6
  21633174.1664  -15292265.32447 -11566348.85462
  22020618.4004   -8449472.91048  -6583989.51763
  24775651.4474     192093.74745    219540.50561
  21323935.2214  -16367096.36547 -12635618.49563
 91  5  2 23 24 30.0020000  0  4G13G 2G15G 6
  21628126.768   -15318789.677 7 -11587017.15322
  22024770.2134   -8427655.00248  -6566988.55263
  24779762.1114     213707.97045    236382.75261
  21325590.6584  -16358399.44747 -12628841.68563
 91  5  2 23 24 45.0020000  0  4G13G 2G15G 6
  21623106.533   -15345167.370 7 -11607571.17522
  22028932.5644   -8405778.26747
  24783905.080      235469.678 5
  21327270.0414  -16349576.11147 -12621966.36363
 91  5  2 23 25  0.0020000  0  4G13G 2G15G 6
  21618115.986   -15371398.299 7 -11628010.83422
  22033107.2214   -8383842.82448
  24788069.877      257378.574 5
  21328972.5724  -16340626.27447 -12614992.46763
 91  5  2 23 25 15.0020000  0  4G13G 2G15G 6
  21613150.525   -15397486.257 7 -11648339.08822
  22037292.1584   -8361852.49948  -6515713.89563
  24792261.314      279430.663 5
  21330699.2914  -16331553.80447 -12607923.00863
 91  5  2 23 25 30.0020000  0  4G13G 2G15G 6
  21608213.4084  -15423428.90347 -11668554.10762
  22041486.6584   -8339805.02548  -6498534.05263
  24796498.5494     301627.99045
  21332449.6504  -16322356.18947 -12600756.03763
 91  5  2 23 25 45.0020000  0  4G13G 2G15G 6
  21603304.229   -15449224.135 7 -11688654.26622
  22045694.6044   -8317698.49848  -6481308.19663
  24800741.5104     323972.44945
  21334223.4474  -16313031.38147 -12593489.95563
 91  5  2 23 26  0.0020000  0  4G13G 2G15G 6
  21598423.6434  -15474873.07247 -11708640.42262
  22049911.9554   -8295534.49748  -6464037.55763
  24805018.439      346462.545 5        -0.17731
  21336022.5494  -16303580.72547 -12586125.80963
 91  5  2 23 26 15.0020000  0  4G13G 2G15G 6
  21593571.2134  -15500376.32747 -11728513.06362
  22054140.400    -8273313.776 8  -6446722.72423
  24809332.1664     369097.44545     17637.40961
  21337844.6434  -16294004.79447 -12578664.05063
 91  5  2 23 26 30.0020000  0  4G13G 2G15G 6
  21588745.1504  -15525733.15947 -11748271.60662
  22058379.3384   -8251035.51448  -6429363.04563
  24813668.0884     391877.69745     35388.25361
  21339691.2684  -16284302.73047 -12571104.00663
 91  5  2 23 26 45.0020000  0  4G13G 2G15G 6
  21583947.9244  -15550946.57947 -11767918.39862
  22062629.096    -8228703.159 8  -6411961.22423
  24818020.1274     414799.80945     53249.62061
  21341560.0024  -16274477.66847 -12563448.11463
 91  5  2 23 27  0.0020000  0  4G13G 2G15G 6
  21579177.9554  -15576016.77447 -11787453.59362
  22066889.7134   -8206316.99848  -6394517.47263
  24822407.3304     437863.19245     71221.07661
  21343453.5494  -16264529.89447 -12555696.61263
 91  5  2 23 27 15.0020000  0  4G13G 2G15G 6
  21574434.1664  -15600942.07147 -11806875.87162
  22071159.604    -8183875.350 8  -6377030.48823
  24826831.7214     461069.53845     89303.93061
  21345370.3854  -16254457.59747 -12547848.06963
 91  5  2 23 27 30.0020000  0  4G13G 2G15G 6
  21569719.189   -15625718.869 7 -11826182.43722
  22075441.5254   -8161374.99748  -6359497.75263
  24831267.8464     484422.05445    107500.70161
  21347310.8854  -16244257.26947 -12539899.76463
 91  5  2 23 27 45.0020000  0  4G13G 2G15G 6
  21565031.7994  -15650353.09647 -11845377.90862
  22079733.5804   -8138821.89848  -6341923.91763
  24835738.3774     507914.42445    125806.43061
  21349274.6824  -16233934.80047 -12531856.28663
 91  5  2 23 28  0.0020000  0  4G13G 2G15G 6
  21560370.8854  -15674845.16847 -11864462.61062
  22084034.0884   -8116216.55147  -6324309.36963
  24840243.6894     531546.03745    144220.67661
  21351263.0414  -16223490.50647 -12523717.88462
 91  5  2 23 28 15.0020000  0  4G13G 2G15G 6
  21555737.2914  -15699195.57847 -11883436.92862
  22088346.354    -8093559.761 7  -6306654.73923
  24844764.0884     555316.03345    162742.73561
  21353273.5414  -16212925.14147 -12515485.13663
 91  5  2 23 28 30.0020000  0  4G13G 2G15G 6
  21551131.2834  -15723400.41547 -11902297.81062
  22092667.924    -8070847.410 7  -6288956.81623
  24849318.1584     579228.57145    181375.87461
  21355307.9324  -16202234.34347 -12507154.65063
 91  5  2 23 28 45.0020000  0  4G13G 2G15G 6
  21546552.775   -15747463.258 7 -11921048.05322
  22096999.9634   -8048083.42647  -6271218.65663
  24853894.799      603279.486 5    200116.83821
  21357365.6274  -16191421.81647 -12498729.31263
 91  5  2 23 29  0.0020000  0  4G13G 2G15G 6
  21542000.7914  -15771383.26047 -11939686.98962
  22101341.666    -8025267.342 7  -6253439.90323
  24858501.893      627469.138 5    218965.89521
  21359445.9394  -16180486.99447 -12490208.67563
 91  5  2 23 29 15.0020000  0  4G13G 2G15G 6
  21537476.064   -15795157.485 7 -11958212.33122
  22105694.580    -8002396.151 7  -6235618.20723
  24863131.7604     651800.46245    237925.36061
  21361550.7294  -16169426.76647 -12481590.32363
 91  5  2 23 29 30.0020000  0  3G13G 2G 6
  21532979.7994  -15818789.50047 -11976626.86362
  22110055.963    -7979473.809 8  -6217756.65523
  21363679.4714  -16158244.93047 -12472877.21063
 91  5  2 23 29 45.0020000  0  3G13G 2G 6
  21528509.3304  -15842280.51447 -11994931.52462
  22114427.346    -7956501.403 8  -6199856.08823
  21365829.8694  -16146942.49247 -12464070.11863
 91  5  2 23 30  0.0020000  0  3G13G 2G 6
  21524066.158   -15865627.376 7 -12013123.85922
  22118808.8144   -7933475.76948  -6181914.04563
  21368004.3694  -16135516.15547 -12455166.48263
 91  5  2 23 30 15.0020000  0  3G13G 2G 6
  21519650.846   -15888829.613 7 -12031203.49522
  22123202.1664   -7910396.57148  -6163930.26863
  21370202.0254  -16123965.38747 -12446165.88663
 91  5  2 23 30 30.0020000  0  3G13G 2G 6
  21515262.6744  -15911889.63247 -12049172.31262
  22127603.307    -7887266.384 8  -6145906.75423
  21372423.7754  -16112292.58347 -12437070.20063
 91  5  2 23 30 45.0020000  0  3G13G 2G 6
  21510901.455   -15934807.138 7 -12067030.08622
  22132013.8074   -7864085.15048  -6127843.46663
  21374667.2054  -16100497.65247 -12427879.35363
 91  5  2 23 31  0.0020000  0  3G13G 2G 6
  21506568.1584  -15957582.95247 -12084777.44662
  22136434.736    -7840854.187 8  -6109741.42923
  21376935.6664  -16088581.54247 -12418594.07563
 91  5  2 23 31 15.0020000  0  3G13G 2G 6
  21502262.0254  -15980211.22647 -12102409.83862
  22140865.869    -7817567.720 8  -6091596.15023
  21379227.0184  -16076538.38847 -12409209.80563
 91  5  2 23 31 30.0020000  0  3G13G 2G 6
  21497983.088   -16002698.293 7 -12119932.20022
  22145307.197    -7794232.126 8  -6073412.58723
  21381541.0184  -16064374.51747 -12399731.47063
 91  5  2 23 31 45.0020000  0  3G13G 2G 6
  21493730.0724  -16025042.43547 -12137343.19162
  22149757.189    -7770845.554 8  -6055189.29423
  21383879.6974  -16052088.04647 -12390157.60163
 91  5  2 23 32  0.0020000  0  3G13G 2G 6
  21489505.729   -16047247.730 7 -12154645.99422
  22154214.932    -7747412.199 8  -6036929.55523
  21386240.8144  -16039682.93747 -12380491.28763
 91  5  2 23 32 15.0020000  0  3G13G 2G 6
  21485305.932   -16069313.524 7 -12171840.09422
  22158684.3854   -7723931.81448  -6018633.15863
  21388624.4394  -16027158.77947 -12370732.20763
 91  5  2 23 32 30.0020000  0  3G13G 2G 6
  21481133.2754  -16091238.13647 -12188924.18362
  22163162.0104   -7700402.65448  -6000298.75863
  21391030.1044  -16014513.69847 -12360878.90463
 91  5  2 23 32 45.0020000  0  3G13G 2G 6
  21476987.3614  -16113023.74647 -12205899.95762
  22167648.400    -7676827.009 8  -5981928.14223
  21393458.5024  -16001749.98247 -12350933.15763
 91  5  2 23 33  0.0020000  0  3G13G 2G 6
  21472869.4004  -16134670.46347 -12222767.50462
  22172142.4244   -7653205.32148  -5963521.64463
  21395911.2054  -15988867.77547 -12340895.07563
 91  5  2 23 33 15.0020000  0  3G13G 2G 6
  21468775.4474  -16156178.58647 -12239527.05562
  22176646.799    -7629537.926 8  -5945079.53323
  21398384.7444  -15975867.51547 -12330765.00963
 91  5  2 23 33 30.0020000  0  3G13G 2G 6
  21464708.721   -16177546.009 7 -12256176.96422
  22181160.744    -7605822.781 8  -5926600.21823
  21400881.6354  -15962746.88947 -12320541.14863
 91  5  2 23 33 45.0020000  0  3G13G 2G 6
  21460669.111   -16198776.155 7 -12272719.91822
  22185682.0724   -7582063.52548  -5908086.52163
  21403399.2054  -15949509.33547 -12310226.17963
 91  5  2 23 34  0.0020000  0  3G13G 2G 6
  21456656.8224  -16219868.52747 -12289155.50362
  22190211.557    -7558259.738 8  -5889538.12623
  21405941.0724  -15936154.31447 -12299819.67263
 91  5  2 23 34 15.0020000  0  3G13G 2G 6
  21452669.9164  -16240820.89447 -12305481.99762
  22194748.736    -7534409.054 8  -5870953.19023
  21408506.3144  -15922679.53047 -12289319.84963
 91  5  2 23 34 30.0020000  0  3G13G 2G 6
  21448708.854   -16261639.162 7 -12321704.00322
  22199295.877    -7510517.599 8  -5852336.49323
  21411091.6274  -15909090.81547 -12278731.24762
 91  5  2 23 34 45.0020000  0  3G13G 2G 6
  21444773.0104  -16282319.61447 -12337818.61362
  22203850.252    -7486581.786 8  -5833685.22323
  21413699.0804  -15895384.62447 -12268051.10563
 91  5  2 23 35  0.0020000  0  3G13G 2G 6
  21440863.807   -16302861.882 7 -12353825.55022
  22208413.533    -7462601.497 8  -5814999.30623
  21416330.6504  -15881560.58647 -12257279.13563
 91  5  2 23 35 15.0020000  0  3G13G 2G 6
  21436981.064   -16323266.533 7 -12369725.25222
  22212986.2364   -7438577.34048  -5796279.18263
  21418983.0414  -15867619.29647 -12246415.80363
 91  5  2 23 35 30.0020000  0  3G13G 2G 6
  21433123.6044  -16343533.39047 -12385517.58762
  22217566.096    -7414509.026 8  -5777524.66723
  21421658.4714  -15853560.35147 -12235460.79063
 91  5  2 23 35 45.0020000  0  3G13G 2G 6
  21429293.010   -16363661.925 7 -12401202.13822
  22222154.682    -7390396.320 8  -5758735.56223
  21424355.7604  -15839383.12047 -12224413.60663
 91  5  2 23 36  0.0020000  0  3G13G 2G 6
  21425489.846   -16383649.296 7 -12416776.69322
  22226751.3384   -7366236.61948  -5739909.82963
  21427078.0724  -15825085.05747 -12213272.26863
 91  5  2 23 36 15.0020000  0  3G13G 2G 6
  21421711.768   -16403499.331 7 -12432244.22722
  22231358.096    -7342033.533 8  -5721050.29523
  21429820.0574  -15810669.84047 -12202039.63863
 91  5  2 23 36 30.0020000  0  3G13G 2G 6
  21417962.314   -16423209.205 7 -12447602.54822
  22235972.182    -7317784.655 8  -5702155.07923
  21432586.1584  -15796134.74647 -12190713.60363
 91  5  2 23 36 45.0020000  0  3G13G 2G 6
  21414236.283   -16442781.414 7 -12462853.59822
  22240594.6584   -7293492.32748  -5683226.00663
  21435375.4394  -15781482.09847 -12179295.95863
 91  5  2 23 37  0.0020000  0  3G13G 2G 6
  21410540.1114  -16462210.37847 -12477993.02762
  22245226.236    -7269151.316 8  -5664258.99423
  21438186.5184  -15766706.42547 -12167782.45363
 91  5  2 23 37 15.0020000  0  3G13G 2G 6
  21406869.283   -16481501.589 7 -12493025.11922
  22249867.377    -7244767.075 8  -5645258.29923
  21441019.9944  -15751813.15647 -12156177.31763
 91  5  2 23 37 30.0020000  0  3G13G 2G 6
  21403225.760   -16500648.661 7 -12507944.89122
  22254517.369    -7220333.342 8  -5626219.03923
  21443876.7754  -15736795.93247 -12144475.58963
 91  5  2 23 37 45.0020000  0  3G13G 2G 6
  21399607.885   -16519657.187 7 -12522756.70022
  22259174.111    -7195855.805 8  -5607145.64523
  21446757.0414  -15721660.41747 -12132681.68863
 91  5  2 23 38  0.0020000  0  3G13G 2G 6
  21396017.260   -16538526.225 7 -12537459.82722
  22263841.127    -7171333.583 8  -5588037.44023
  21449660.4324  -15706405.52547 -12120794.76963
 91  5  2 23 38 15.0020000  0  3G13G 2G 6
  21392452.846   -16557258.082 7 -12552056.06022
  22268516.0574   -7146769.01948  -5568896.23063
  21452585.7994  -15691033.60347 -12108816.65763
 91  5  2 23 38 30.0020000  0  3G13G 2G 6
  21388914.854   -16575846.466 7 -12566540.48822
  22273199.518    -7122155.816 8  -5549717.12523
  21455534.5104  -15675538.13747 -12096742.27763
 91  5  2 23 38 45.0020000  0  3G13G 2G 6
  21385405.697   -16594294.667 7 -12580915.68322
  22277891.1274   -7097497.42048  -5530502.80163
  21458506.2364  -15659922.59047 -12084574.32363
 91  5  2 23 39  0.0020000  0  3G13G 2G 6
  21381922.135   -16612598.388 7 -12595178.30222
  22282592.4244   -7072789.51148  -5511249.89463
  21461502.4634  -15644182.47847 -12072309.30563
 91  5  2 23 39 15.0020000  0  3G13G 2G 6
  21378465.760   -16630760.514 7 -12609330.58322
  22287302.932    -7048035.176 8  -5491960.81423
  21464521.0184  -15628320.91247 -12059949.64963
 91  5  2 23 39 30.0020000  0  3G13G 2G 6
  21375037.439   -16648778.798 7 -12623370.77722
  22292024.0884   -7023232.16048  -5472633.80363
  21467561.2364  -15612335.39047 -12047493.40363
 91  5  2 23 39 45.0020000  0  3G13G 2G 6
  21371636.1044  -16666649.73847 -12637296.15962
  22296754.1194   -6998377.17548  -5453266.28963
  21470627.6114  -15596222.50947 -12034937.91463
